Date StartTime U_cm/s V_cm/s W_cm/s Ustd_cm/s Vstd_cm/s Wstd_cm/s Uvar_(cm/s)^2 Vvar_(cm/s)^2 Wvar_(cm/s)^2 KE_(m/s)^2 TurbulentKE_(m/s)^2 HorizWindSpeed_cm/s FrictionSpeec_cm/s DragCoef SpeedOfSound_m/s SonicTemperature_C Pressure_mb 
08/16/2013  00:00:00     -113.514      -35.420       -0.635       28.385       26.063       16.462      805.683      679.282      270.982        0.795        0.088      118.912       13.889        0.014      344.797       21.869      863.264
08/16/2013  00:01:00      -34.126      -26.208       15.985       58.421       35.055       21.998     3413.036     1228.835      483.893        0.362        0.256       43.029       28.998        0.454      344.325       21.064      863.255
08/16/2013  00:02:00      -69.396      -29.397       -0.768       46.976       31.982       18.543     2206.782     1022.867      343.842        0.463        0.179       75.365       20.646        0.075      344.490       21.345      863.260
08/16/2013  00:03:00      -75.724      -21.993        7.323       32.903       24.580       15.883     1082.580      604.157      252.279        0.410        0.097       78.853       15.317        0.038      344.545       21.440      863.251
08/16/2013  00:04:00      -94.601      -44.776        2.535       35.581       30.997       16.068     1266.028      960.797      258.188        0.672        0.124      104.663       16.464        0.025      344.575       21.491      863.234
08/16/2013  00:05:00      -79.392      -20.304        1.545       38.699       27.774       17.942     1497.646      771.389      321.918        0.465        0.130       81.947       20.015        0.060      344.413       21.214      863.233
08/16/2013  00:06:00      -40.148       -7.635        5.906       30.684       22.425       14.841      941.521      502.878      220.266        0.168        0.083       40.867       13.207        0.104      344.167       20.793      863.238
08/16/2013  00:07:00      -56.358      -19.713        6.460       30.176       25.391       16.539      910.610      644.708      273.543        0.272        0.091       59.707       12.480        0.044      344.024       20.550      863.231
08/16/2013  00:08:00      -82.292      -43.176        2.451       35.368       29.529       20.236     1250.893      871.959      409.494        0.559        0.127       92.930       19.804        0.045      344.357       21.118      863.247
08/16/2013  00:09:00     -104.898        2.629       -2.082       55.760       33.935       16.223     3109.146     1151.555      263.176        0.777        0.226      104.931       20.659        0.039      344.328       21.067      863.250
08/16/2013  00:10:00     -128.058      -11.785       -4.337       52.086       36.348       20.404     2712.905     1321.150      416.319        1.050        0.223      128.599       22.138        0.030      344.398       21.188      863.237
08/16/2013  00:11:00      -56.412      -30.947        3.889       34.214       25.464       16.164     1170.615      648.426      261.267        0.312        0.104       64.344       14.565        0.051      344.040       20.576      863.233
08/16/2013  00:12:00      -60.025      -42.443        4.247       24.982       29.779       18.539      624.102      886.804      343.695        0.364        0.093       73.515       16.395        0.050      344.056       20.604      863.231
08/16/2013  00:13:00      -40.075      -27.577        8.355       39.808       27.316       18.135     1584.674      746.171      328.869        0.255        0.133       48.647       20.937        0.185      343.852       20.256      863.222
08/16/2013  00:14:00      -91.269       10.028       -1.088       32.936       28.182       12.007     1084.805      794.252      144.176        0.523        0.101       91.818        9.161        0.010      343.926       20.380      863.209
08/16/2013  00:15:00     -102.476       13.976       -7.851       37.765       32.815       16.570     1426.166     1076.810      274.562        0.677        0.139      103.425       15.373        0.022      343.924       20.379      863.204
08/16/2013  00:16:00      -20.430      -17.232        0.886       20.235       20.973       13.842      409.458      439.861      191.605        0.088        0.052       26.727       10.616        0.158      343.773       20.120      863.192
08/16/2013  00:17:00      -48.018       -9.079       12.068       23.060       18.117       11.778      531.759      328.226      138.727        0.177        0.050       48.869       10.043        0.042      343.819       20.200      863.175
08/16/2013  00:18:00      -66.364      -11.812       -1.097       39.413       22.796       15.504     1553.372      519.648      240.389        0.343        0.116       67.407       13.200        0.038      343.710       20.014      863.179
08/16/2013  00:19:00      -49.004      -38.331        6.406       29.693       22.207       18.710      881.662      493.161      350.050        0.282        0.086       62.215       13.325        0.046      343.701       19.999      863.172
08/16/2013  00:20:00        7.868      -26.921        8.221       42.685       20.482       14.789     1822.052      419.501      218.701        0.166        0.123       28.047        9.599        0.117      343.027       18.850      863.179
08/16/2013  00:21:00      -29.925        5.851        8.705       23.738       26.916       12.502      563.483      724.484      156.312        0.122        0.072       30.492        9.311        0.093      343.323       19.355      863.178
08/16/2013  00:22:00      -65.770       15.931        0.007       22.089        9.728        8.972      487.939       94.630       80.491        0.262        0.033       67.672        8.199        0.015      343.761       20.101      863.184
08/16/2013  00:23:00      -46.963       15.501       -0.151       16.565       15.423       10.460      274.394      237.877      109.411        0.153        0.031       49.455        7.297        0.022      343.763       20.104      863.182
08/16/2013  00:24:00      -39.688        6.410       -1.822       14.402       14.084        8.908      207.411      198.351       79.352        0.105        0.024       40.203        7.705        0.037      343.742       20.067      863.185
08/16/2013  00:25:00      -11.046       26.334        5.867       19.942       14.170       11.240      397.665      200.782      126.335        0.079        0.036       28.557       11.658        0.167      343.649       19.908      863.166
08/16/2013  00:26:00      -13.031       19.659        4.507       17.778       23.281       12.777      316.051      542.001      163.249        0.080        0.051       23.586        9.761        0.171      343.636       19.888      863.147
08/16/2013  00:27:00      -24.439       -1.329       -2.184       15.199        9.501        8.405      231.017       90.270       70.643        0.050        0.020       24.475        7.423        0.092      343.684       19.970      863.167
08/16/2013  00:28:00       -5.217        6.077        4.032       10.548       11.699        6.867      111.262      136.876       47.154        0.019        0.015        8.009        3.130        0.153      343.340       19.383      863.159
08/16/2013  00:29:00       19.215       35.150        8.721       20.091        9.433        9.857      403.639       88.978       97.166        0.114        0.029       40.059        6.949        0.030      343.471       19.607      863.159
08/16/2013  00:30:00       42.528        8.476        5.599       23.617       25.020       19.703      557.750      625.996      388.191        0.174        0.079       43.365        8.440        0.038      342.969       18.753      863.191
08/16/2013  00:31:00       78.221      -16.472       23.140       28.774       20.555       22.906      827.929      422.507      524.669        0.435        0.089       79.937       10.190        0.016      342.717       18.322      863.207
08/16/2013  00:32:00        8.837        0.712       29.516       26.533       23.828       13.289      704.002      567.750      176.597        0.120        0.072        8.866        8.060        0.827      342.646       18.201      863.229
08/16/2013  00:33:00        9.781        4.248       17.673       21.223       19.618       16.427      450.405      384.883      269.841        0.077        0.055       10.664       15.162        2.022      342.664       18.231      863.226
08/16/2013  00:34:00        8.958       22.570       22.566       10.179       11.135       15.389      103.610      123.989      236.816        0.078        0.023       24.282        8.115        0.112      342.791       18.447      863.232
08/16/2013  00:35:00        5.241       19.710       16.492       16.607       20.814       26.670      275.798      433.215      711.292        0.105        0.071       20.395       21.223        1.083      342.960       18.735      863.238
08/16/2013  00:36:00       -2.832       -0.911        4.595        5.973       12.080        9.307       35.674      145.922       86.619        0.015        0.013        2.975        5.997        4.063      343.113       18.995      863.245
08/16/2013  00:37:00       55.107       23.187       12.885       20.215       25.020       20.916      408.660      625.986      437.493        0.261        0.074       59.787        7.891        0.017      343.047       18.883      863.272
08/16/2013  00:38:00       40.473        7.392       21.367       24.777       21.835       24.210      613.900      476.754      586.137        0.191        0.084       41.142       15.061        0.134      342.803       18.469      863.274
08/16/2013  00:39:00       25.848       -4.964        4.060       24.058       12.753       18.323      578.772      162.644      335.721        0.089        0.054       26.321       10.385        0.156      343.010       18.820      863.293
08/16/2013  00:40:00       -7.098       20.751       10.735       23.649       19.908       15.219      559.283      396.319      231.615        0.089        0.059       21.931       15.505        0.500      343.181       19.113      863.301
08/16/2013  00:41:00       44.311       32.822        5.284       36.225       26.168       24.229     1312.256      684.771      587.046        0.283        0.129       55.144       13.256        0.058      342.905       18.645      863.306
08/16/2013  00:42:00       57.407       26.520       20.647       23.419       24.360       25.456      548.466      593.410      648.011        0.311        0.089       63.237        8.668        0.019      342.983       18.775      863.287
08/16/2013  00:43:00       90.070       61.657       35.420       18.499       22.768       23.648      342.209      518.394      559.226        0.729        0.071      109.153        8.064        0.005      343.416       19.512      863.286
08/16/2013  00:44:00       71.784       35.774       -2.773       26.390       30.269       21.573      696.433      916.220      465.398        0.426        0.104       80.204       14.552        0.033      343.365       19.426      863.283
08/16/2013  00:45:00       26.811       20.663       25.167       19.024       20.124       19.762      361.921      404.987      390.532        0.147        0.058       33.849        5.282        0.024      343.204       19.152      863.291
08/16/2013  00:46:00       -4.030       -1.823        6.893       15.374       20.301       18.906      236.353      412.149      357.426        0.054        0.050        4.424       11.222        6.436      342.909       18.649      863.320
08/16/2013  00:47:00       45.511       37.810       22.858       33.998       37.253       27.034     1155.840     1387.750      730.829        0.365        0.164       59.168       13.960        0.056      343.179       19.108      863.334
08/16/2013  00:48:00       55.839       36.357       10.150       26.445       29.319       32.529      699.314      859.608     1058.135        0.358        0.131       66.632       15.698        0.056      343.075       18.931      863.340
08/16/2013  00:49:00       27.113       26.143      -21.137       30.331       32.096       25.548      919.946     1030.162      652.709        0.223        0.130       37.664       19.600        0.271      343.053       18.893      863.341
08/16/2013  00:50:00       41.822       -8.826      -12.944       20.038       33.075       21.291      401.519     1093.943      453.302        0.197        0.097       42.743       19.249        0.203      343.378       19.447      863.364
08/16/2013  00:51:00       44.615       10.707       -5.873       28.005       30.688       26.636      784.253      941.731      709.489        0.229        0.122       45.882       11.540        0.063      343.080       18.939      863.382
08/16/2013  00:52:00       72.003       47.014       18.452       25.427       46.245       27.752      646.545     2138.622      770.186        0.564        0.178       85.993       18.457        0.046      342.939       18.699      863.380
08/16/2013  00:53:00      111.088       60.442        9.009       24.488       22.333       23.544      599.678      498.782      554.340        0.886        0.083      126.467        7.705        0.004      343.232       19.200      863.366
08/16/2013  00:54:00      121.581       55.394       17.565       37.664       27.444       25.202     1418.563      753.198      635.161        1.048        0.140      133.605       19.168        0.021      343.335       19.373      863.353
08/16/2013  00:55:00       98.473       63.656       26.911       41.992       41.726       35.753     1763.338     1741.066     1278.304        0.963        0.239      117.256       24.861        0.045      343.330       19.367      863.369
08/16/2013  00:56:00      104.208       72.287       38.221       29.836       21.595       28.698      890.184      466.345      823.576        0.986        0.109      126.825       12.173        0.009      343.369       19.433      863.370
08/16/2013  00:57:00      104.135       56.541       24.670       61.560       28.924       29.081     3789.574      836.589      845.725        1.006        0.274      118.495       30.579        0.067      343.272       19.266      863.372
08/16/2013  00:58:00       50.686       56.983       61.763       39.937       29.862       26.877     1594.936      891.727      722.354        0.642        0.160       76.264       14.166        0.035      343.036       18.866      863.380
08/16/2013  00:59:00        4.593       21.417       49.893       30.447       28.586       16.253      927.023      817.187      264.170        0.249        0.100       21.904       14.362        0.430      343.035       18.864      863.401
08/16/2013  01:00:00        5.059       21.350       27.974       26.649       25.742       14.570      710.171      662.668      212.274        0.142        0.079       21.942        7.447        0.115      343.162       19.078      863.417
08/16/2013  01:01:00       30.308       11.764        9.115       19.781       18.934       21.954      391.298      358.484      481.959        0.119        0.062       32.511        9.881        0.092      343.123       19.014      863.422
08/16/2013  01:02:00       32.075       43.338       26.767       30.237       26.634       26.606      914.252      709.370      707.900        0.298        0.117       53.916       13.950        0.067      342.864       18.571      863.415
08/16/2013  01:03:00       62.623       51.191        9.386       35.878       29.664       22.069     1287.235      879.976      487.044        0.464        0.133       80.883       10.100        0.016      343.016       18.830      863.395
08/16/2013  01:04:00      -18.193       25.859       -4.659       35.794       26.577       14.437     1281.231      706.319      208.432        0.161        0.110       31.617       12.846        0.165      343.387       19.462      863.388
08/16/2013  01:05:00      -64.066      -12.807       -7.814       10.148       11.611        6.866      102.973      134.826       47.141        0.231        0.014       65.334        4.577        0.005      343.038       18.868      863.388
08/16/2013  01:06:00      -56.379      -12.634       -9.933        9.507       11.037        5.827       90.381      121.820       33.953        0.184        0.012       57.777        5.050        0.008      343.141       19.044      863.362
08/16/2013  01:07:00      -37.642      -11.367       -1.725       11.838       10.412        8.387      140.148      108.409       70.339        0.093        0.016       39.321        8.461        0.046      343.271       19.264      863.354
08/16/2013  01:08:00        3.577       17.936       -5.233       12.154       22.165       16.263      147.709      491.298      264.476        0.063        0.045       18.289       14.766        0.652      343.064       18.912      863.351
08/16/2013  01:09:00        3.577       25.750      -10.604       15.622       19.486       13.742      244.041      379.711      188.837        0.080        0.041       25.997        7.527        0.084      343.566       19.768      863.366
08/16/2013  01:10:00       20.369       34.444       -3.871       23.258       18.242       17.332      540.951      332.761      300.394        0.140        0.059       40.016       14.418        0.130      343.861       20.270      863.398
08/16/2013  01:11:00        1.091       36.196        8.896       24.683       18.900       13.752      609.261      357.212      189.124        0.127        0.058       36.213       10.358        0.082      343.420       19.518      863.405
08/16/2013  01:12:00       31.942       30.839       12.087       27.748       22.402       17.962      769.957      501.856      322.624        0.186        0.080       44.400        5.106        0.013      343.068       18.919      863.401
08/16/2013  01:13:00       60.845       31.074        4.894       26.338       28.219       19.757      693.704      796.318      390.352        0.329        0.094       68.320        8.352        0.015      343.144       19.049      863.392
08/16/2013  01:14:00       40.850       42.624        1.507       27.344       21.934       17.647      747.720      481.096      311.422        0.251        0.077       59.038       14.472        0.060      343.813       20.190      863.380
08/16/2013  01:15:00       13.619       39.965       -3.790       14.605       20.729        9.176      213.314      429.694       84.195        0.126        0.036       42.222        6.998        0.027      344.008       20.522      863.386
08/16/2013  01:16:00       -1.647       21.785       12.247       15.364       20.068       11.549      236.049      402.733      133.380        0.070        0.039       21.847        9.981        0.209      343.732       20.051      863.387
08/16/2013  01:17:00      -34.540        2.239        6.362       24.271       16.013       13.696      589.072      256.411      187.592        0.114        0.052       34.613       16.055        0.215      343.096       18.968      863.371
08/16/2013  01:18:00      -93.347      -17.587       -8.871       18.291       14.840       11.977      334.579      220.233      143.437        0.490        0.035       94.990        4.288        0.002      342.846       18.541      863.372
08/16/2013  01:19:00      -99.385      -32.481      -12.319       31.626       19.541       16.718     1000.176      381.868      279.497        0.637        0.083      104.558       16.687        0.025      342.703       18.298      863.383
08/16/2013  01:20:00      -78.046      -23.455       -9.141       25.994       25.093       19.630      675.709      629.672      385.344        0.421        0.085       81.494       11.133        0.019      342.620       18.157      863.393
08/16/2013  01:21:00      -70.009      -40.465       -6.993       22.845       23.650       14.546      521.893      559.326      211.589        0.394        0.065       80.862        9.780        0.015      342.667       18.237      863.399
08/16/2013  01:22:00     -112.332      -31.188       -9.005       24.208       25.033       17.390      586.017      626.671      302.408        0.759        0.076      116.581        7.837        0.005      342.640       18.192      863.409
08/16/2013  01:23:00      -66.996      -35.178      -13.162       33.296       27.886       18.583     1108.601      777.634      345.335        0.406        0.112       75.670       15.679        0.043      342.709       18.308      863.408
08/16/2013  01:24:00      -66.748       -6.778      -15.973       16.069       13.231       15.011      258.203      175.062      225.317        0.271        0.033       67.092       13.837        0.043      343.264       19.254      863.391
08/16/2013  01:25:00      -71.581       -3.656      -17.493       20.148       18.682       10.713      405.952      349.027      114.767        0.316        0.043       71.675        4.779        0.004      342.986       18.780      863.384
08/16/2013  01:26:00      -64.892       -8.167       -8.324       30.134       18.938       15.836      908.086      358.649      250.766        0.293        0.076       65.404       12.721        0.038      342.642       18.195      863.385
08/16/2013  01:27:00     -123.324      -43.069      -16.379       29.782       27.824       20.427      886.944      774.199      417.271        0.970        0.104      130.628       13.386        0.011      342.594       18.114      863.386
08/16/2013  01:28:00      -95.793      -16.152        0.078       36.565       35.178       24.043     1337.027     1237.508      578.086        0.629        0.158       97.145       14.987        0.024      342.487       17.930      863.390
08/16/2013  01:29:00      -58.166      -12.852        8.010       37.666       26.891       21.461     1418.739      723.114      460.566        0.311        0.130       59.569       21.559        0.131      342.381       17.752      863.376
08/16/2013  01:30:00      -62.999      -12.467       -9.418       15.740       24.422       13.698      247.749      596.425      187.643        0.262        0.052       64.221       10.174        0.025      342.555       18.049      863.369
08/16/2013  01:31:00      -68.429      -13.870      -18.931       13.207       18.289        9.825      174.422      334.485       96.538        0.292        0.030       69.821        4.902        0.005      342.669       18.241      863.395
08/16/2013  01:32:00      -57.359      -13.387      -11.451       10.902       16.320        9.990      118.844      266.348       99.795        0.204        0.024       58.901        4.622        0.006      342.666       18.237      863.413
08/16/2013  01:33:00      -64.870      -27.256       -8.692       15.699       18.464       11.466      246.444      340.906      131.465        0.287        0.036       70.364        7.377        0.011      342.713       18.316      863.422
08/16/2013  01:34:00     -103.314      -27.416      -18.178       20.047       22.503       14.310      401.891      506.405      204.774        0.643        0.056      106.890        8.587        0.006      342.542       18.025      863.427
08/16/2013  01:35:00     -101.265        5.793      -22.926       20.823       17.620       14.397      433.593      310.463      207.280        0.588        0.048      101.430        9.878        0.009      342.643       18.197      863.408
08/16/2013  01:36:00     -102.122      -16.004      -16.061       34.660       22.243       18.247     1201.321      494.731      332.948        0.649        0.101      103.369       15.684        0.023      342.411       17.801      863.395
08/16/2013  01:37:00     -102.549      -23.173      -15.285       30.987       22.044       16.308      960.206      485.920      265.936        0.650        0.086      105.134       13.809        0.017      342.354       17.707      863.387
08/16/2013  01:38:00     -103.763      -27.656      -11.374       29.918       30.458       18.098      895.093      927.712      327.529        0.691        0.108      107.386       16.197        0.023      342.372       17.735      863.361
08/16/2013  01:39:00      -91.648       26.736      -13.651       56.757       49.712       26.573     3221.307     2471.318      706.102        0.785        0.320       95.468       18.898        0.039      342.474       17.909      863.352
08/16/2013  01:40:00     -117.130       60.482       -6.757       71.874       41.012       35.719     5165.819     1682.020     1275.869        1.277        0.406      131.824       26.628        0.041      343.055       18.897      863.351
08/16/2013  01:41:00     -189.443       71.661      -16.779       81.100       46.733       35.989     6577.233     2183.992     1295.206        2.568        0.503      202.543       27.051        0.018      342.954       18.722      863.340
08/16/2013  01:42:00     -228.248       87.519      -17.307       59.362       41.377       34.289     3523.814     1712.028     1175.730        3.323        0.321      244.452       29.031        0.014      342.820       18.493      863.346
08/16/2013  01:43:00     -191.574       70.721      -16.534       60.043       43.838       32.715     3605.134     1921.727     1070.253        2.429        0.330      204.211       22.708        0.012      342.782       18.429      863.334
08/16/2013  01:44:00     -216.949       46.321      -24.063       47.581       43.264       22.139     2263.957     1871.787      490.116        2.721        0.231      221.838       15.131        0.005      342.480       17.916      863.354
08/16/2013  01:45:00     -190.637       -5.903      -21.406       46.128       64.360       28.112     2127.818     4142.248      790.305        2.195        0.353      190.728       13.548        0.005      342.401       17.784      863.356
08/16/2013  01:46:00     -108.716      -18.218       -1.966       57.801       40.235       29.019     3340.907     1618.876      842.077        0.898        0.290      110.232       28.783        0.068      342.359       17.713      863.347
08/16/2013  01:47:00      -34.361       16.301       -1.628       41.433       27.209       21.901     1716.691      740.320      479.667        0.219        0.147       38.032       14.969        0.155      342.270       17.562      863.343
08/16/2013  01:48:00      -21.016       22.145       -5.516       34.973       41.466       20.684     1223.079     1719.445      427.811        0.217        0.169       30.530       11.114        0.133      342.327       17.659      863.328
08/16/2013  01:49:00      -45.253       34.623       -8.927       27.566       32.664       22.918      759.893     1066.951      525.219        0.284        0.118       56.979       16.022        0.079      342.747       18.372      863.317
08/16/2013  01:50:00      -82.062       10.938      -19.009       35.133       34.612       21.878     1234.351     1197.962      478.654        0.506        0.146       82.788       14.535        0.031      342.725       18.336      863.296
08/16/2013  01:51:00     -124.562      -39.834      -10.357       22.564       28.392       17.825      509.137      806.128      317.745        0.942        0.082      130.776        8.532        0.004      342.401       17.784      863.292
08/16/2013  01:52:00     -108.802      -10.494      -16.179       23.302       34.539       19.251      543.006     1192.910      370.589        0.716        0.105      109.307       13.760        0.016      342.317       17.642      863.281
08/16/2013  01:53:00      -78.804       -5.761        4.958       42.936       48.535       23.034     1843.484     2355.664      530.551        0.550        0.236       79.014       22.049        0.078      342.252       17.531      863.283
08/16/2013  01:54:00      -86.171        0.040       -8.344       45.772       46.751       20.431     2095.038     2185.666      417.440        0.610        0.235       86.171       15.736        0.033      342.407       17.794      863.267
08/16/2013  01:55:00     -129.159      -19.754       -4.679       75.610       46.816       29.631     5716.812     2191.694      877.990        1.294        0.439      130.661       29.224        0.050      342.235       17.501      863.259
08/16/2013  01:56:00     -138.766      -41.670       -0.426       79.123       67.499       28.012     6260.515     4556.076      784.687        1.630        0.580      144.888       36.614        0.064      342.145       17.347      863.256
08/16/2013  01:57:00     -120.076       26.352       -6.169       56.070       50.826       32.939     3143.890     2583.237     1084.984        1.098        0.341      122.934       23.778        0.037      342.160       17.375      863.247
08/16/2013  01:58:00     -178.868       31.472      -24.003       52.954       44.254       25.885     2804.165     1958.430      670.033        1.950        0.272      181.616       19.399        0.011      342.335       17.670      863.240
08/16/2013  01:59:00     -133.607      -20.155      -18.002       46.093       53.414       23.686     2124.532     2853.044      561.040        1.206        0.277      135.119       23.213        0.030      342.264       17.552      863.225
08/16/2013  02:00:00     -142.198       34.129      -20.308       44.834       47.712       26.860     2010.121     2276.451      721.449        1.340        0.250      146.236       20.496        0.020      342.371       17.733      863.204
08/16/2013  02:01:00     -143.969       54.868       -7.807       50.341       35.665       30.326     2534.210     1272.013      919.682        1.426        0.236      154.070       22.781        0.022      342.490       17.937      863.174
08/16/2013  02:02:00     -127.397       11.631      -11.072       30.916       61.916       21.079      955.783     3833.550      444.342        1.086        0.262      127.927       15.555        0.015      342.726       18.336      863.163
08/16/2013  02:03:00     -144.224      -36.702      -18.545       60.813       69.958       22.633     3698.278     4894.091      512.249        1.580        0.455      148.820       14.381        0.009      342.524       17.994      863.161
08/16/2013  02:04:00     -138.668       -9.746       -8.445       34.804       45.754       22.397     1211.309     2093.417      501.631        1.160        0.190      139.010       17.954        0.017      342.306       17.623      863.159
08/16/2013  02:05:00     -145.476       39.911      -10.588       36.456       23.842       16.523     1329.028      568.438      273.024        1.252        0.109      150.851       11.462        0.006      342.361       17.717      863.165
08/16/2013  02:06:00     -139.218       -2.859       -5.574       24.509       24.375       14.242      600.696      594.129      202.837        1.041        0.070      139.248       12.415        0.008      342.438       17.849      863.160
08/16/2013  02:07:00     -152.305      -24.695      -13.172       26.261       20.421       13.894      689.639      417.037      193.035        1.264        0.065      154.294       13.626        0.008      342.457       17.882      863.174
08/16/2013  02:08:00     -104.092      -27.206       -5.133       26.745       25.717       14.911      715.295      661.389      222.343        0.660        0.080      107.588       13.850        0.017      342.363       17.720      863.192
08/16/2013  02:09:00     -142.144      -34.148       -4.407       25.485       24.977       15.257      649.503      623.858      232.767        1.145        0.075      146.188        9.779        0.004      342.325       17.656      863.188
08/16/2013  02:10:00     -103.012      -20.060       -5.921       41.466       31.333       17.525     1719.425      981.733      307.137        0.703        0.150      104.947       20.063        0.037      342.325       17.655      863.187
08/16/2013  02:11:00      -87.008      -24.424       -3.797       30.666       27.408       14.842      940.378      751.225      220.288        0.505        0.096       90.371       15.986        0.031      342.346       17.691      863.182
08/16/2013  02:12:00      -71.164      -13.655       -1.945       13.903       19.421       10.649      193.282      377.194      113.392        0.297        0.034       72.462        5.876        0.007      342.378       17.745      863.171
08/16/2013  02:13:00      -45.810      -13.115       -2.842       11.385       14.968        8.159      129.614      224.042       66.571        0.135        0.021       47.650        6.517        0.019      342.385       17.756      863.162
08/16/2013  02:14:00      -49.389      -14.426        3.340       16.152       12.747        8.432      260.893      162.491       71.105        0.158        0.025       51.453        6.259        0.015      342.461       17.887      863.172
08/16/2013  02:15:00      -50.177       -5.065        2.793       14.473        9.911        9.841      209.456       98.219       96.840        0.148        0.020       50.432        5.263        0.011      342.413       17.804      863.165
08/16/2013  02:16:00      -59.072      -23.689       -4.853       18.665       14.144        9.601      348.368      200.058       92.185        0.236        0.032       63.645       10.334        0.026      342.437       17.846      863.155
08/16/2013  02:17:00      -97.161      -37.558       -8.627       24.054        7.678        6.849      578.586       58.949       46.906        0.580        0.034      104.168        8.105        0.006      342.491       17.937      863.162
08/16/2013  02:18:00     -128.126      -39.713      -10.938       16.339       19.681       12.929      266.955      387.346      167.148        0.947        0.041      134.140        7.094        0.003      342.415       17.806      863.159
08/16/2013  02:19:00     -123.141      -20.931       -9.550       33.688       28.033       15.812     1134.855      785.837      250.007        0.893        0.109      124.907       16.391        0.017      342.252       17.532      863.157
08/16/2013  02:20:00      -90.049      -19.235       -0.255       36.509       24.537       17.897     1332.908      602.042      320.303        0.537        0.113       92.081       17.388        0.036      342.138       17.338      863.155
08/16/2013  02:21:00      -59.912        1.715        0.788       30.852       22.764       17.469      951.819      518.219      305.179        0.268        0.089       59.937       10.764        0.032      342.153       17.364      863.155
08/16/2013  02:22:00      -69.090       18.989        1.014       44.574       24.586       20.279     1986.819      604.473      411.248        0.407        0.150       71.652       15.085        0.044      342.396       17.777      863.148
08/16/2013  02:23:00      -53.377        2.999        0.435       27.759       23.701       19.813      770.574      561.725      392.554        0.229        0.086       53.461        8.761        0.027      342.389       17.763      863.136
08/16/2013  02:24:00      -77.788      -19.435        1.473       26.345       33.849       16.065      694.062     1145.783      258.078        0.426        0.105       80.180       14.028        0.031      342.346       17.693      863.137
08/16/2013  02:25:00      -88.738      -33.249       -8.605       20.528       23.340       12.333      421.409      544.755      152.115        0.509        0.056       94.762        8.717        0.008      342.307       17.623      863.134
08/16/2013  02:26:00     -105.630      -44.468      -10.651       37.033       39.665       20.003     1371.435     1573.296      400.130        0.830        0.167      114.609       16.498        0.021      342.176       17.403      863.129
08/16/2013  02:27:00      -62.554        9.400      -13.084       36.726       37.638       16.298     1348.763     1416.625      265.625        0.360        0.152       63.256       17.522        0.077      342.255       17.536      863.121
08/16/2013  02:28:00      -74.854      -31.690       -9.103       31.186       32.552       19.204      972.545     1059.657      368.783        0.455        0.120       81.285       14.820        0.033      342.260       17.545      863.126
08/16/2013  02:29:00      -78.635      -48.790      -12.045       29.145       22.636       16.287      849.415      512.399      265.257        0.517        0.081       92.542       11.057        0.014      342.216       17.470      863.120
08/16/2013  02:30:00     -125.022      -45.599      -12.189       34.342       30.588       22.954     1179.376      935.614      526.867        1.025        0.132      133.079       15.305        0.013      342.137       17.335      863.120
08/16/2013  02:31:00      -76.666      -58.013       -9.593       35.621       41.632       20.292     1268.825     1733.197      411.753        0.637        0.171       96.141       17.744        0.034      342.039       17.170      863.118
08/16/2013  02:32:00     -126.618      -46.989      -11.868       44.195       32.680       18.222     1953.238     1067.954      332.031        1.087        0.168      135.056       19.780        0.021      342.029       17.153      863.123
08/16/2013  02:33:00     -129.806      -15.155       -3.252       46.633       52.231       29.866     2174.610     2728.080      891.978        1.144        0.290      130.688       28.158        0.046      341.931       16.987      863.122
08/16/2013  02:34:00     -189.390       46.938      -13.997       55.242       40.693       26.758     3051.719     1655.923      715.972        2.184        0.271      195.120       23.859        0.015      342.119       17.304      863.113
08/16/2013  02:35:00     -206.837       55.932      -10.481       56.223       35.004       26.556     3161.047     1225.284      705.236        2.555        0.255      214.266       25.713        0.014      342.228       17.488      863.110
08/16/2013  02:36:00     -155.678       10.329      -15.593       56.991       46.348       24.344     3247.959     2148.116      592.636        1.529        0.299      156.020       23.500        0.023      342.137       17.336      863.116
08/16/2013  02:37:00     -108.032       -0.009       -2.991       44.244       47.148       25.772     1957.528     2222.957      664.209        0.826        0.242      108.032       23.452        0.047      341.997       17.098      863.108
08/16/2013  02:38:00     -111.216      -11.515       -6.583       33.677       31.259       16.721     1134.119      977.118      279.584        0.747        0.120      111.811       15.534        0.019      342.050       17.188      863.092
08/16/2013  02:39:00     -128.740      -20.069      -16.543       41.351       32.479       18.260     1709.937     1054.902      333.445        1.017        0.155      130.294       17.998        0.019      342.036       17.164      863.086
08/16/2013  02:40:00     -146.673      -13.122       -9.028       64.417       29.449       28.412     4149.611      867.226      807.258        1.379        0.291      147.259       31.012        0.044      341.981       17.071      863.089
08/16/2013  02:41:00     -244.283       -1.212      -23.224       68.238       52.280       28.782     4656.452     2733.152      828.411        3.422        0.411      244.286       28.447        0.014      341.943       17.004      863.125
08/16/2013  02:42:00     -225.737       39.014      -21.264       41.996       33.366       25.249     1763.627     1113.283      637.502        2.822        0.176      229.083       16.996        0.006      342.007       17.111      863.144
08/16/2013  02:43:00     -206.550       19.900      -18.990       37.825       37.767       17.899     1430.757     1426.349      320.375        2.330        0.159      207.507       13.223        0.004      342.066       17.214      863.136
08/16/2013  02:44:00     -130.632      -36.417      -11.440       27.559       29.459       19.363      759.502      867.848      374.935        1.026        0.100      135.613       13.373        0.010      342.012       17.125      863.135
08/16/2013  02:45:00     -110.105      -18.756       -8.325       26.500       26.689       15.983      702.260      712.310      255.453        0.711        0.084      111.691       11.221        0.010      341.952       17.020      863.134
08/16/2013  02:46:00     -100.491       16.298       -7.139       34.395       23.144       16.562     1182.982      535.635      274.308        0.620        0.100      101.804       12.679        0.016      341.990       17.085      863.122
08/16/2013  02:47:00     -143.906       47.930       -7.809       60.426       39.703       29.143     3651.324     1576.344      849.295        1.457        0.304      151.678       21.622        0.020      342.200       17.442      863.124
08/16/2013  02:48:00     -184.952       34.162      -23.208       50.095       53.163       23.163     2509.525     2826.355      536.516        2.089        0.294      188.081       22.629        0.014      342.117       17.300      863.145
08/16/2013  02:49:00     -165.282      -16.541      -11.147       55.392       37.385       33.914     3068.306     1397.634     1150.169        1.667        0.281      166.108       35.687        0.046      341.975       17.060      863.144
08/16/2013  02:50:00     -149.133      -18.536       -9.902       54.109       32.926       20.610     2927.787     1084.114      424.789        1.356        0.222      150.280       23.475        0.024      341.922       16.970      863.153
08/16/2013  02:51:00      -94.912      -30.061       -0.221       33.126       44.208       21.005     1097.348     1954.348      441.226        0.670        0.175       99.559       15.199        0.023      341.858       16.862      863.181
08/16/2013  02:52:00      -61.756       15.598        2.719       35.963       34.202       20.262     1293.302     1169.767      410.544        0.347        0.144       63.695       11.869        0.035      341.819       16.797      863.186
08/16/2013  02:53:00      -41.179      -28.200        4.660       30.346       28.142       18.482      920.881      791.971      341.588        0.228        0.103       49.909       17.513        0.123      341.883       16.905      863.187
08/16/2013  02:54:00       24.564       46.120       17.694       26.839       21.847       19.044      720.327      477.285      362.672        0.230        0.078       52.254       17.980        0.118      341.612       16.446      863.191
08/16/2013  02:55:00       41.516       -3.565       11.017       18.564       28.654       22.543      344.606      821.060      508.203        0.177        0.084       41.669       16.766        0.162      341.245       15.824      863.181
08/16/2013  02:56:00       28.407      -11.990        6.659       22.161       17.990       14.165      491.126      323.657      200.643        0.101        0.051       30.834       13.150        0.182      341.060       15.510      863.187
08/16/2013  02:57:00       -0.970        0.620      -11.640       18.409       16.949       16.610      338.885      287.255      275.893        0.052        0.045        1.151        8.648       56.469      341.156       15.673      863.210
08/16/2013  02:58:00      -18.735        4.713       -9.041       13.858       17.758       10.226      192.051      315.364      104.577        0.053        0.031       19.319        7.938        0.169      341.649       16.509      863.236
08/16/2013  02:59:00      -19.660       23.266       -0.373       10.238        5.428        6.802      104.806       29.467       46.265        0.055        0.009       30.460        3.869        0.016      341.764       16.704      863.256
08/16/2013  03:00:00      -15.217       11.010       10.708        9.663        6.797        6.320       93.374       46.197       39.944        0.032        0.009       18.782        4.335        0.053      341.539       16.321      863.275
08/16/2013  03:01:00      -33.332       28.906       -3.276       12.779        8.872        4.542      163.309       78.715       20.633        0.111        0.013       44.120        5.292        0.014      341.851       16.851      863.265
08/16/2013  03:02:00        7.132       15.657       -1.201       10.678       12.945        8.258      114.025      167.571       68.194        0.032        0.017       17.205        5.454        0.101      341.744       16.669      863.249
08/16/2013  03:03:00       -0.403        7.750        7.338       13.308       15.112        8.447      177.091      228.369       71.355        0.030        0.024        7.760        7.544        0.945      341.588       16.405      863.235
08/16/2013  03:04:00      -53.075       -5.584       -3.871       27.556       13.653       10.585      759.307      186.394      112.049        0.196        0.053       53.368       14.245        0.071      341.713       16.615      863.223
08/16/2013  03:05:00     -123.183      -18.006      -14.269       25.098       18.796       13.444      629.910      353.290      180.752        0.843        0.058      124.492       11.153        0.008      341.551       16.341      863.238
08/16/2013  03:06:00      -49.736      -19.811       -7.626       29.015       30.752       18.605      841.897      945.662      346.143        0.253        0.107       53.536       18.133        0.115      341.576       16.383      863.263
08/16/2013  03:07:00        6.050       19.668        6.247       15.843       13.194       11.903      251.012      174.073      141.670        0.051        0.028       20.578        9.260        0.203      341.582       16.393      863.278
08/16/2013  03:08:00       55.480       48.066        9.138       18.807       30.431       30.550      353.706      926.041      933.303        0.384        0.111       73.406       12.342        0.028      341.914       16.957      863.275
08/16/2013  03:09:00       38.168       10.388       12.052       31.822       25.269       25.630     1012.633      638.507      656.917        0.201        0.115       39.556        8.349        0.045      341.487       16.233      863.288
08/16/2013  03:10:00      -81.079      -10.001      -11.517       39.677       22.399       15.401     1574.253      501.723      237.194        0.456        0.116       81.693       20.389        0.062      341.678       16.558      863.294
08/16/2013  03:11:00     -121.684       -5.210      -18.597       28.985       17.380       15.686      840.126      302.057      246.066        0.828        0.069      121.795       13.881        0.013      341.522       16.291      863.297
08/16/2013  03:12:00      -78.601       -6.567      -10.475       18.740       12.957       15.101      351.184      167.890      228.028        0.354        0.037       78.875       11.090        0.020      341.438       16.150      863.297
08/16/2013  03:13:00      -64.489       -5.257      -10.874       17.180       21.152       12.046      295.162      447.401      145.110        0.260        0.044       64.703        9.628        0.022      341.529       16.305      863.293
08/16/2013  03:14:00      -70.365       -5.966       -7.484       20.861       13.859        9.081      435.181      192.071       82.467        0.288        0.035       70.618        7.314        0.011      341.743       16.667      863.295
08/16/2013  03:15:00      -83.694      -26.705      -12.419       14.094       18.074       15.001      198.637      326.679      225.018        0.431        0.038       87.851       11.137        0.016      341.627       16.471      863.295
08/16/2013  03:16:00      -60.774      -18.272      -14.000       23.818       13.229       13.633      567.278      175.009      185.869        0.258        0.046       63.462        7.046        0.012      341.688       16.574      863.290
08/16/2013  03:17:00      -84.473      -18.872      -10.137       14.163       15.383       11.599      200.584      236.638      134.526        0.408        0.029       86.556        6.309        0.005      341.697       16.590      863.294
08/16/2013  03:18:00     -119.963      -41.801      -18.690       18.739       18.140       11.729      351.154      329.071      137.572        0.865        0.041      127.037        5.949        0.002      341.469       16.203      863.294
08/16/2013  03:19:00     -115.514      -17.194      -15.481       27.316       17.301       16.786      746.155      299.337      281.772        0.760        0.066      116.787       16.221        0.019      341.419       16.118      863.291
08/16/2013  03:20:00      -85.774      -20.108      -14.080       33.261       34.304       15.494     1106.298     1176.787      240.058        0.524        0.126       88.100       16.505        0.035      341.461       16.188      863.286
08/16/2013  03:21:00     -118.205      -31.235      -13.092       42.933       25.125       16.768     1843.280      631.275      281.174        0.894        0.138      122.263       17.289        0.020      341.430       16.135      863.286
08/16/2013  03:22:00      -63.913        3.162       -0.332       49.508       38.696       21.087     2451.058     1497.346      444.661        0.424        0.220       63.991       19.008        0.088      341.405       16.094      863.283
08/16/2013  03:23:00      -51.031       27.623       -7.105       26.244       24.052       19.650      688.757      578.496      386.106        0.254        0.083       58.027       15.596        0.072      341.646       16.503      863.284
08/16/2013  03:24:00      -48.328      -36.398       -7.048       21.471       23.397       14.885      461.012      547.406      221.570        0.247        0.061       60.502       11.863        0.038      341.609       16.441      863.281
08/16/2013  03:25:00      -72.737      -50.439       -7.523       29.347       26.205       17.985      861.253      686.680      323.465        0.488        0.094       88.514       10.687        0.015      341.516       16.283      863.301
08/16/2013  03:26:00     -108.278      -52.598       -0.309       32.551       40.844       20.858     1059.596     1668.210      435.049        0.883        0.158      120.377       12.371        0.011      341.423       16.124      863.320
08/16/2013  03:27:00     -106.201      -20.653       -6.611       33.497       22.856       16.345     1122.080      522.395      267.155        0.683        0.096      108.190        9.794        0.008      341.445       16.163      863.333
08/16/2013  03:28:00     -110.515      -19.922       -7.556       35.022       26.343       17.211     1226.538      693.973      296.207        0.744        0.111      112.296       18.532        0.027      341.475       16.212      863.347
08/16/2013  03:29:00     -102.033      -13.225       -2.163       45.929       31.857       20.468     2109.455     1014.848      418.954        0.707        0.177      102.887       22.058        0.046      341.460       16.188      863.355
08/16/2013  03:30:00      -90.656      -15.191       -3.906       37.425       33.517       23.761     1400.597     1123.358      564.588        0.578        0.154       91.920       22.442        0.060      341.459       16.185      863.359
08/16/2013  03:31:00     -129.333      -39.484       -8.685       28.441       36.076       16.442      808.892     1301.464      270.329        1.037        0.119      135.225       15.392        0.013      341.624       16.466      863.374
08/16/2013  03:32:00     -114.568      -14.252       -8.501       33.736       22.349       16.673     1138.087      499.493      277.994        0.766        0.096      115.451       12.943        0.013      341.651       16.511      863.378
08/16/2013  03:33:00     -166.431       18.560      -18.057       40.386       40.804       25.154     1631.039     1664.955      632.748        1.615        0.196      167.462       17.153        0.010      341.498       16.252      863.380
08/16/2013  03:34:00     -180.686       63.582      -19.179       56.269       39.592       31.124     3166.235     1567.543      968.678        2.138        0.285      191.546       23.773        0.015      341.548       16.334      863.383
08/16/2013  03:35:00     -203.651       42.269      -24.125       37.756       32.218       23.911     1425.512     1038.012      571.737        2.344        0.152      207.992       19.102        0.008      341.549       16.335      863.395
08/16/2013  03:36:00      -68.225        7.656       -8.518       39.335       30.153       19.742     1547.256      909.181      389.759        0.382        0.142       68.654       13.891        0.041      341.711       16.614      863.396
08/16/2013  03:37:00      -66.826      -21.472       -6.353       36.331       31.082       17.519     1319.919      966.113      306.899        0.378        0.130       70.191        7.332        0.011      341.619       16.458      863.388
08/16/2013  03:38:00     -127.658      -40.729       -6.117       34.569       38.762       20.990     1194.995     1502.485      440.598        1.056        0.157      133.998       18.199        0.018      341.381       16.053      863.396
08/16/2013  03:39:00      -89.715      -57.692       -6.515       39.232       22.903       20.400     1539.113      524.542      416.176        0.695        0.124      106.664        6.617        0.004      341.444       16.160      863.401
08/16/2013  03:40:00      -75.077      -23.670        1.088       35.094       43.890       17.572     1231.571     1926.375      308.774        0.483        0.173       78.720       18.153        0.053      341.454       16.177      863.390
08/16/2013  03:41:00     -100.066      -25.509       -0.948       26.755       32.601       17.480      715.804     1062.811      305.566        0.637        0.104      103.266       16.788        0.026      341.360       16.018      863.390
08/16/2013  03:42:00     -169.512      -14.903       -9.133       58.329       67.415       22.852     3402.235     4544.822      522.203        1.875        0.423      170.166       24.015        0.020      341.352       16.004      863.387
08/16/2013  03:43:00     -170.853        3.386      -14.173       60.525       62.863       26.282     3663.305     3951.713      690.723        1.885        0.415      170.887       27.399        0.026      341.403       16.089      863.392
08/16/2013  03:44:00     -125.392       -6.221      -10.226       29.659       21.433       18.753      879.681      459.393      351.661        0.878        0.085      125.546       17.464        0.019      341.283       15.888      863.390
08/16/2013  03:45:00     -109.875      -15.428       -5.332       31.849       22.560       18.640     1014.349      508.940      347.436        0.710        0.094      110.953       16.634        0.022      341.336       15.977      863.397
08/16/2013  03:46:00     -104.048      -19.182       -7.578       18.308       24.167       13.125      335.182      584.053      172.275        0.617        0.055      105.801        9.146        0.007      341.281       15.884      863.400
08/16/2013  03:47:00      -88.491      -27.211       -3.054       37.190       29.943       17.060     1383.085      896.603      291.054        0.558        0.129       92.580       16.498        0.032      341.346       15.993      863.392
08/16/2013  03:48:00      -99.829      -32.091       -5.643       25.862       21.268       14.294      668.828      452.338      204.324        0.618        0.066      104.861       11.165        0.011      341.369       16.034      863.397
08/16/2013  03:49:00     -128.710      -45.099       -7.055       29.360       27.696       16.670      862.039      767.090      277.897        1.028        0.095      136.383        5.661        0.002      341.379       16.051      863.402
08/16/2013  03:50:00     -151.133       17.028       -6.551       38.044       46.750       26.553     1447.313     2185.548      705.074        1.376        0.217      152.090       23.214        0.023      341.333       15.972      863.419
08/16/2013  03:51:00      -92.914       11.961      -11.248       37.393       39.641       24.846     1398.204     1571.405      617.328        0.624        0.179       93.681       19.613        0.044      341.287       15.895      863.424
08/16/2013  03:52:00      -82.510      -18.469      -10.012       32.438       25.901       14.921     1052.239      670.878      222.621        0.460        0.097       84.551       15.728        0.035      341.237       15.811      863.431
08/16/2013  03:53:00     -116.674      -41.503      -10.721       25.951       38.834       22.738      673.438     1508.079      517.030        0.907        0.135      123.836       13.801        0.012      341.329       15.968      863.430
08/16/2013  03:54:00     -149.979      -25.776       -9.096       45.231       54.345       23.511     2045.828     2953.387      552.744        1.440        0.278      152.178       23.879        0.025      341.285       15.891      863.425
08/16/2013  03:55:00     -117.320      -11.484       -7.358       44.567       39.192       23.057     1986.241     1536.026      531.624        0.900        0.203      117.881       23.583        0.040      341.227       15.795      863.424
08/16/2013  03:56:00      -91.898      -31.928        2.465       41.973       55.032       22.829     1761.719     3028.566      521.186        0.739        0.266       97.287       20.564        0.045      341.231       15.800      863.421
08/16/2013  03:57:00     -140.363      -50.703       -9.958       34.245       39.680       16.624     1172.707     1574.523      276.357        1.270        0.151      149.240       10.943        0.005      341.242       15.819      863.414
08/16/2013  03:58:00     -132.284      -47.846       -4.458       21.611       27.521       15.303      467.026      757.424      234.171        1.063        0.073      140.671       10.298        0.005      341.208       15.764      863.423
08/16/2013  03:59:00     -174.053      -36.731      -17.059       23.308       30.401       15.462      543.280      924.198      239.059        1.682        0.085      177.886       11.205        0.004      341.189       15.729      863.423
08/16/2013  04:00:00      -86.184      -40.631       -3.888       49.462       39.842       20.768     2446.531     1587.389      431.295        0.678        0.223       95.281       19.305        0.041      341.182       15.718      863.438
08/16/2013  04:01:00     -103.332      -13.342       -0.987       35.535       29.984       22.129     1262.718      899.069      489.704        0.675        0.133      104.190       18.917        0.033      341.141       15.648      863.467
08/16/2013  04:02:00      -83.164      -13.216       -7.768       22.580       24.159       12.048      509.836      583.673      145.151        0.419        0.062       84.208       10.904        0.017      341.191       15.733      863.494
08/16/2013  04:03:00      -86.165      -35.486      -11.699       31.947       18.835       11.186     1020.633      354.752      125.121        0.516        0.075       93.187       13.530        0.021      341.380       16.053      863.498
08/16/2013  04:04:00      -69.612      -33.449       -6.836       12.248       12.569       10.258      150.015      157.990      105.217        0.321        0.021       77.231        5.828        0.006      341.427       16.132      863.492
08/16/2013  04:05:00      -73.178      -21.377        0.592       15.920       15.794        8.952      253.446      249.461       80.133        0.320        0.029       76.236        4.743        0.004      341.461       16.188      863.496
08/16/2013  04:06:00      -35.683      -27.741        0.214       31.666       19.719       12.852     1002.761      388.851      165.186        0.180        0.078       45.198       10.445        0.053      341.388       16.067      863.504
08/16/2013  04:07:00      -48.151      -27.085       -1.830       18.624       13.107       10.412      346.838      171.805      108.416        0.184        0.031       55.246        4.692        0.007      341.367       16.030      863.507
08/16/2013  04:08:00      -54.237      -19.048       -7.237       22.336       20.530        9.412      498.898      421.463       88.595        0.218        0.050       57.485       10.465        0.033      341.345       15.992      863.517
08/16/2013  04:09:00      -15.032      -25.174        5.111       22.046       15.711       10.448      486.014      246.832      109.162        0.086        0.042       29.320        8.615        0.086      341.344       15.990      863.533
08/16/2013  04:10:00      -64.307      -40.445       -1.113       29.943       16.613       12.498      896.562      275.980      156.191        0.355        0.066       75.968       14.586        0.037      341.348       15.999      863.548
08/16/2013  04:11:00      -49.681      -34.469        2.190       30.668       20.696       15.912      940.549      428.324      253.181        0.264        0.081       60.468       13.061        0.047      341.235       15.806      863.562
08/16/2013  04:12:00       10.249      -23.980        9.485       14.426       15.397       13.495      208.116      237.083      182.107        0.070        0.031       26.079       10.057        0.149      341.311       15.936      863.562
08/16/2013  04:13:00        4.681        4.032        5.550        7.995       12.212       10.632       63.920      149.137      113.043        0.020        0.016        6.178        7.160        1.343      341.301       15.917      863.553
08/16/2013  04:14:00      -18.189        2.597       13.530       11.138       13.702        7.366      124.065      187.743       54.260        0.044        0.018       18.374        8.898        0.235      341.134       15.636      863.567
08/16/2013  04:15:00      -47.359      -10.145       -7.006       23.531       11.270        8.516      553.700      127.012       72.526        0.157        0.038       48.434       10.679        0.049      341.276       15.875      863.585
08/16/2013  04:16:00      -57.301      -21.172       -6.579       11.521       11.487        5.903      132.738      131.955       34.847        0.204        0.015       61.087        3.376        0.003      341.218       15.778      863.594
08/16/2013  04:17:00      -44.287      -25.925       -5.734       10.358        8.269        7.120      107.280       68.374       50.688        0.145        0.011       51.317        4.579        0.008      341.332       15.971      863.588
08/16/2013  04:18:00      -62.951      -26.249       -6.503       20.424       13.985        8.044      417.159      195.588       64.703        0.269        0.034       68.205        7.699        0.013      341.298       15.913      863.582
08/16/2013  04:19:00      -80.688      -36.109      -10.087       11.854       11.825        9.005      140.520      139.832       81.082        0.414        0.018       88.400        6.602        0.006      341.279       15.881      863.580
08/16/2013  04:20:00      -36.323      -10.016       -7.618       17.161       15.742       11.716      294.491      247.826      137.256        0.108        0.034       37.679        7.354        0.038      341.336       15.979      863.592
08/16/2013  04:21:00      -17.140      -24.263        1.114        9.973        7.858        7.821       99.466       61.741       61.166        0.055        0.011       29.706        6.809        0.053      341.443       16.159      863.585
08/16/2013  04:22:00      -46.747      -11.473       -8.451       16.243       13.134        8.832      263.830      172.491       78.010        0.145        0.026       48.135        9.287        0.037      341.398       16.081      863.595
08/16/2013  04:23:00      -95.761      -21.702      -14.677       17.553       12.620        9.195      308.103      159.267       84.551        0.520        0.028       98.189        6.817        0.005      341.230       15.800      863.595
08/16/2013  04:24:00      -98.170      -11.163       -5.330       34.138       20.720       14.316     1165.415      429.336      204.959        0.579        0.090       98.803       10.236        0.011      341.124       15.619      863.598
08/16/2013  04:25:00      -80.374      -18.029       -9.295       24.138       19.472       14.641      582.649      379.155      214.355        0.402        0.059       82.372       14.239        0.030      340.990       15.392      863.602
08/16/2013  04:26:00      -87.497      -38.674      -15.470       17.619       21.951       14.347      310.438      481.866      205.842        0.519        0.050       95.663       12.176        0.016      340.917       15.269      863.600
08/16/2013  04:27:00      -99.968      -39.051      -13.798       24.135       20.165       16.591      582.504      406.623      275.264        0.649        0.063      107.325       13.777        0.016      340.824       15.111      863.604
08/16/2013  04:28:00      -62.134      -46.257       -2.012       23.343       25.010       20.123      544.918      625.515      404.933        0.379        0.079       77.462       16.943        0.048      340.931       15.292      863.611
08/16/2013  04:29:00      -78.117      -56.264       -3.740       34.543       24.992       17.543     1193.213      624.599      307.753        0.570        0.106       96.270       17.972        0.035      340.875       15.197      863.613
08/16/2013  04:30:00     -120.905      -37.590      -11.102       25.139       38.232       19.343      631.974     1461.706      374.167        0.931        0.123      126.614       12.422        0.010      340.820       15.105      863.633
08/16/2013  04:31:00     -130.157        4.263      -13.800       51.020       37.070       22.785     2603.088     1374.211      519.137        1.082        0.225      130.227       15.958        0.015      340.671       14.852      863.643
08/16/2013  04:32:00      -51.071       -5.884       -1.984       39.322       33.985       23.302     1546.258     1154.963      542.981        0.294        0.162       51.408       23.089        0.202      340.711       14.920      863.643
08/16/2013  04:33:00      -25.414        6.142       19.830       22.071       21.846       25.421      487.110      477.226      646.249        0.134        0.081       26.146       21.306        0.664      340.650       14.817      863.636
08/16/2013  04:34:00        6.879       -3.885       11.729       16.194       12.916       15.278      262.252      166.823      233.429        0.043        0.033        7.901       12.131        2.358      340.557       14.659      863.628
08/16/2013  04:35:00      -46.075      -14.988       -5.231       27.558       14.116        9.224      759.466      199.260       85.091        0.171        0.052       48.451       10.366        0.046      340.900       15.241      863.629
08/16/2013  04:36:00      -99.189      -11.342      -12.348       17.336       13.146       10.469      300.520      172.811      109.597        0.535        0.029       99.836        7.319        0.005      340.944       15.314      863.613
08/16/2013  04:37:00      -63.216      -25.748       -4.757       35.020       23.145       16.180     1226.413      535.704      261.801        0.335        0.101       68.258       14.405        0.045      340.819       15.102      863.602
08/16/2013  04:38:00      -74.869      -10.614       -0.724       28.036       25.585       16.747      786.002      654.567      280.458        0.372        0.086       75.618       15.170        0.040      340.939       15.306      863.595
08/16/2013  04:39:00      -17.301      -20.758        5.028       42.605       22.103       15.415     1815.170      488.522      237.637        0.165        0.127       27.022       14.350        0.282      340.909       15.255      863.605
08/16/2013  04:40:00       38.333      -12.568       25.899       24.695       21.971       20.258      609.861      482.703      410.387        0.190        0.075       40.341       14.778        0.134      340.412       14.415      863.607
08/16/2013  04:41:00       -9.948        2.111       10.118       23.114       12.668       14.375      534.276      160.477      206.633        0.055        0.045       10.170       13.556        1.777      340.563       14.669      863.599
08/16/2013  04:42:00      -29.462      -14.077        0.036        9.917        8.188        8.332       98.352       67.044       69.427        0.065        0.012       32.652        7.046        0.047      341.003       15.414      863.609
08/16/2013  04:43:00      -40.910       -7.842        0.697       16.298       15.188       14.644      265.614      230.680      214.437        0.122        0.036       41.655       10.119        0.059      341.106       15.589      863.621
08/16/2013  04:44:00      -58.230      -18.551       -8.993       27.255       12.540       10.211      742.815      157.247      104.256        0.241        0.050       61.114        8.683        0.020      341.063       15.518      863.636
08/16/2013  04:45:00      -79.293      -21.230      -15.860        9.431       11.702        6.994       88.944      136.936       48.911        0.363        0.014       82.086        6.009        0.005      341.010       15.429      863.663
08/16/2013  04:46:00     -105.426      -35.371      -13.633       14.540       14.255        9.638      211.403      203.209       92.887        0.653        0.025      111.202        5.924        0.003      340.919       15.273      863.685
08/16/2013  04:47:00     -119.666      -46.382       -8.904       30.284       34.709       19.144      917.110     1204.721      366.492        0.952        0.124      128.340       13.525        0.011      340.762       15.006      863.688
08/16/2013  04:48:00      -97.463      -42.258       -5.906       23.977       30.636       18.923      574.885      938.573      358.082        0.660        0.094      106.230       15.352        0.021      340.669       14.849      863.694
08/16/2013  04:49:00      -70.124      -42.370        5.577       29.734       39.753       21.448      884.087     1580.302      460.023        0.483        0.146       81.931       15.952        0.038      340.700       14.901      863.702
08/16/2013  04:50:00      -61.794      -43.932       -8.054       46.083       31.493       22.863     2123.680      991.819      522.734        0.473        0.182       75.819       21.350        0.079      340.799       15.069      863.703
08/16/2013  04:51:00      -62.605      -35.687       -6.621       30.881       20.954       19.487      953.652      439.067      379.734        0.350        0.089       72.062       18.619        0.067      340.820       15.105      863.702
08/16/2013  04:52:00      -90.662      -50.845       -9.901       25.891       17.831       16.001      670.325      317.929      256.037        0.607        0.062      103.947       12.916        0.015      340.756       14.997      863.718
08/16/2013  04:53:00      -94.561      -72.524       -6.205       39.655       27.436       19.034     1572.535      752.748      362.307        0.846        0.134      119.170       18.069        0.023      340.669       14.850      863.739
08/16/2013  04:54:00      -84.223      -50.169       -3.784       21.143       16.711       11.765      447.039      279.249      138.424        0.524        0.043       98.033        9.824        0.010      340.758       14.999      863.742
08/16/2013  04:55:00      -96.143      -44.458       -8.930       16.968       15.819        9.172      287.929      250.228       84.133        0.596        0.031      105.924        3.804        0.001      340.820       15.105      863.745
08/16/2013  04:56:00     -112.114      -48.451      -12.795       12.249       14.029       10.487      150.032      196.803      109.983        0.777        0.023      122.135        2.017        0.000      340.864       15.180      863.754
08/16/2013  04:57:00     -134.952      -26.040      -14.006       14.165       13.124       12.944      200.659      172.244      167.542        0.981        0.027      137.441        8.804        0.004      340.853       15.161      863.756
08/16/2013  04:58:00     -128.119      -38.362      -14.065       12.825       15.439       10.689      164.488      238.355      114.259        0.930        0.026      133.739        4.330        0.001      340.917       15.269      863.755
08/16/2013  04:59:00     -110.302      -32.749      -10.979       19.577       15.432       11.913      383.254      238.153      141.922        0.706        0.038      115.061        9.339        0.007      340.900       15.239      863.757
08/16/2013  05:00:00     -113.434      -21.003       -6.112       36.086       18.596       16.131     1302.235      345.816      260.193        0.763        0.095      115.362       18.292        0.025      340.783       15.041      863.774
08/16/2013  05:01:00     -138.570      -25.101      -14.578       12.973       11.961       12.094      168.311      143.077      146.260        1.025        0.023      140.825        7.202        0.003      340.693       14.889      863.784
08/16/2013  05:02:00     -103.327      -22.776       -4.860       26.922       22.062       15.945      724.776      486.728      254.244        0.634        0.073      105.808       15.780        0.022      340.635       14.792      863.792
08/16/2013  05:03:00     -111.768      -31.074       -6.705       15.753       12.985       11.482      248.151      168.623      131.843        0.703        0.027      116.007        9.892        0.007      340.618       14.763      863.790
08/16/2013  05:04:00      -90.094      -17.827       -6.361       18.227       21.617        9.959      332.211      467.310       99.188        0.469        0.045       91.841        7.578        0.007      340.642       14.804      863.799
08/16/2013  05:05:00      -85.663      -22.021      -12.892       17.602       14.984       11.097      309.814      224.528      123.147        0.432        0.033       88.448        4.192        0.002      340.592       14.719      863.796
08/16/2013  05:06:00      -76.912      -29.318        0.598       21.003       25.914       16.754      441.121      671.527      280.708        0.408        0.070       82.311       10.908        0.018      340.570       14.682      863.782
08/16/2013  05:07:00      -86.383      -21.304      -13.193       25.953       29.978       16.752      673.580      898.701      280.638        0.497        0.093       88.972       13.130        0.022      340.534       14.620      863.773
08/16/2013  05:08:00     -122.954      -14.518       -8.632       47.680       39.632       25.763     2273.379     1570.718      663.717        0.995        0.225      123.808       23.874        0.037      340.397       14.389      863.775
08/16/2013  05:09:00     -122.004      -34.475      -16.259       39.803       45.429       25.049     1584.248     2063.758      627.477        1.031        0.214      126.782       22.358        0.031      340.407       14.406      863.786
08/16/2013  05:10:00     -115.538      -31.572      -10.939       45.679       31.571       21.611     2086.583      996.753      467.047        0.901        0.178      119.774       19.385        0.026      340.460       14.497      863.782
08/16/2013  05:11:00      -73.051      -35.829      -14.181       49.279       19.337       16.109     2428.404      373.936      259.513        0.494        0.153       81.364       14.771        0.033      340.433       14.450      863.766
08/16/2013  05:12:00       27.273        9.098        5.773       19.589       12.276       15.210      383.714      150.711      231.347        0.081        0.038       28.751        8.582        0.089      340.374       14.350      863.771
08/16/2013  05:13:00        1.348      -12.379       -1.401       18.234       17.694       13.847      332.487      313.076      191.748        0.050        0.042       12.452        5.663        0.207      340.569       14.680      863.767
08/16/2013  05:14:00      -51.386      -17.457      -19.631       21.794       26.648       18.549      474.982      710.092      344.081        0.243        0.076       54.270        6.397        0.014      340.623       14.773      863.773
08/16/2013  05:15:00      -67.010      -30.144      -16.405       20.726       18.549       20.449      429.572      344.077      418.144        0.343        0.060       73.478       12.518        0.029      340.605       14.743      863.792
08/16/2013  05:16:00      -89.007      -28.668      -10.016       18.731       15.514       14.398      350.836      240.681      207.297        0.482        0.040       93.510        8.555        0.008      340.550       14.648      863.808
08/16/2013  05:17:00      -96.449       -7.653      -18.174       20.341       19.150       12.105      413.749      366.740      146.526        0.531        0.046       96.752        7.094        0.005      340.598       14.728      863.807
08/16/2013  05:18:00      -98.168      -40.397      -21.881       13.463       19.262       12.642      181.254      371.011      159.813        0.623        0.036      106.155        8.836        0.007      340.479       14.527      863.797
08/16/2013  05:19:00      -75.060      -44.313       -9.699       36.086       28.080       19.211     1302.177      788.484      369.068        0.508        0.123       87.165       14.749        0.029      340.463       14.501      863.791
08/16/2013  05:20:00      -70.269      -48.357       -1.832       44.068       32.531       22.444     1941.955     1058.243      503.725        0.539        0.175       85.300       13.046        0.023      340.482       14.534      863.787
08/16/2013  05:21:00     -102.865      -34.498       -3.876       35.507       34.818       22.227     1260.724     1212.302      494.031        0.738        0.148      108.496       18.543        0.029      340.471       14.513      863.780
08/16/2013  05:22:00      -88.423      -20.651       -5.545       49.077       41.066       27.797     2408.563     1686.378      772.652        0.657        0.243       90.803       25.302        0.078      340.366       14.336      863.790
08/16/2013  05:23:00      -56.589       18.876      -13.255       54.503       47.127       28.755     2970.615     2220.907      826.860        0.488        0.301       59.654       28.614        0.230      340.364       14.335      863.795
08/16/2013  05:24:00      -93.151       22.347       -8.289       50.977       33.222       22.190     2598.686     1103.679      492.392        0.672        0.210       95.794       18.069        0.036      340.470       14.513      863.795
08/16/2013  05:25:00      -42.102       -0.665        2.935       22.868       22.584       20.151      522.935      510.052      406.067        0.161        0.072       42.107       14.835        0.124      340.496       14.558      863.816
08/16/2013  05:26:00      -37.335        7.994       -4.172       23.102       14.615       16.227      533.689      213.591      263.316        0.124        0.051       38.181        8.447        0.049      340.549       14.647      863.830
08/16/2013  05:27:00      -58.174      -29.474      -10.527       25.130       20.837       15.542      631.521      434.171      241.559        0.284        0.065       65.215       13.011        0.040      340.630       14.784      863.849
08/16/2013  05:28:00     -129.494      -44.056      -23.813       28.850       19.334       16.781      832.327      373.797      281.617        1.038        0.074      136.783       15.876        0.013      340.462       14.499      863.869
08/16/2013  05:29:00     -140.321      -47.226      -16.230       33.185       33.598       19.890     1101.219     1128.859      395.614        1.240        0.131      148.055       20.996        0.020      340.406       14.404      863.888
08/16/2013  05:30:00     -122.329      -39.035       -9.345       30.505       37.200       23.069      930.538     1383.808      532.191        0.971        0.142      128.406       15.860        0.015      340.393       14.383      863.873
08/16/2013  05:31:00     -138.715      -40.006      -13.559       36.950       35.057       28.535     1365.328     1229.016      814.225        1.222        0.170      144.368       26.923        0.035      340.422       14.431      863.853
08/16/2013  05:32:00     -127.488      -27.050      -15.678       56.702       47.273       28.143     3215.089     2234.697      792.018        1.174        0.312      130.326       24.406        0.035      340.369       14.343      863.847
08/16/2013  05:33:00     -176.667       10.150      -27.781       44.947       47.716       27.847     2020.251     2276.841      775.472        1.858        0.254      176.958       21.178        0.014      340.489       14.542      863.846
08/16/2013  05:34:00     -142.006       25.760      -13.252       36.928       32.955       24.744     1363.652     1086.017      612.263        1.203        0.153      144.324       18.794        0.017      340.519       14.595      863.851
08/16/2013  05:35:00     -124.890      -19.722       -5.017       35.923       39.650       21.099     1290.451     1572.112      445.182        0.966        0.165      126.438       13.445        0.011      340.451       14.481      863.872
08/16/2013  05:36:00     -119.224      -20.910       -8.907       51.038       31.404       19.239     2604.908      986.208      370.149        0.935        0.198      121.044       21.756        0.032      340.471       14.514      863.892
08/16/2013  05:37:00      -92.625        5.969       -2.907       63.975       30.219       26.389     4092.854      913.185      696.388        0.716        0.285       92.817       29.553        0.101      340.566       14.675      863.902
08/16/2013  05:38:00     -208.331        4.152      -20.780       64.100       32.047       33.395     4108.853     1026.999     1115.256        2.505        0.313      208.372       35.877        0.030      340.679       14.862      863.905
08/16/2013  05:39:00     -145.204      -39.441       -1.135       69.042       41.270       32.838     4766.843     1703.202     1078.309        1.509        0.377      150.465       36.287        0.058      340.508       14.576      863.914
08/16/2013  05:40:00      -96.828      -25.332        5.621       56.620       51.171       22.389     3205.768     2618.479      501.270        0.819        0.316      100.086       23.991        0.057      340.479       14.528      863.909
08/16/2013  05:41:00     -166.074      -57.883      -16.469       27.721       31.635       21.081      768.480     1000.745      444.423        1.671        0.111      175.872       12.379        0.005      340.563       14.670      863.913
08/16/2013  05:42:00     -121.211      -54.342       -8.588       34.182       38.787       18.598     1168.388     1504.469      345.887        1.037        0.151      132.835       17.603        0.018      340.573       14.686      863.930
08/16/2013  05:43:00      -70.753      -37.426       -0.121       40.617       34.033       21.600     1649.714     1158.254      466.579        0.484        0.164       80.041       23.450        0.086      340.470       14.514      863.935
08/16/2013  05:44:00      -75.452      -47.165        3.280       36.724       24.315       18.221     1348.625      591.218      332.014        0.510        0.114       88.980       17.525        0.039      340.547       14.643      863.929
08/16/2013  05:45:00      -90.667      -55.469        4.600       31.091       26.138       17.935      966.667      683.189      321.669        0.664        0.099      106.289       16.595        0.024      340.513       14.585      863.917
08/16/2013  05:46:00     -128.990      -53.477       -6.940       25.511       25.384       19.721      650.836      644.325      388.906        1.061        0.084      139.636       12.452        0.008      340.496       14.558      863.916
08/16/2013  05:47:00     -157.331      -50.584      -18.839       15.177       18.289       14.959      230.344      334.501      223.760        1.423        0.039      165.263        9.499        0.003      340.516       14.590      863.922
08/16/2013  05:48:00     -120.455      -77.418       -5.667       28.987       21.524       17.750      840.257      463.279      315.077        1.108        0.081      143.188       11.372        0.006      340.571       14.683      863.925
08/16/2013  05:49:00      -91.569      -63.242        3.125       36.206       33.318       22.914     1310.896     1110.104      525.054        0.767        0.147      111.285       22.578        0.041      340.584       14.704      863.936
08/16/2013  05:50:00      -61.682      -44.528        4.478       34.838       30.723       24.660     1213.697      943.899      608.130        0.429        0.138       76.075       18.233        0.057      340.452       14.482      863.951
08/16/2013  05:51:00      -65.840      -55.900        5.754       55.237       35.129       28.625     3051.093     1234.033      819.363        0.630        0.255       86.370       35.758        0.171      340.444       14.470      863.976
08/16/2013  05:52:00      -75.691      -64.146        9.205       52.326       35.232       28.827     2738.007     1241.308      831.016        0.737        0.241       99.216       21.066        0.045      340.380       14.360      863.998
08/16/2013  05:53:00     -123.568      -89.953       -5.209       49.161       35.722       26.602     2416.853     1276.046      707.641        1.389        0.220      152.842       22.055        0.021      340.460       14.496      864.002
08/16/2013  05:54:00     -173.859      -59.814       -5.293       32.296       26.113       21.844     1043.030      681.866      477.181        1.802        0.110      183.861       16.389        0.008      340.509       14.578      863.989
08/16/2013  05:55:00     -144.159      -57.498       -6.979       25.349       22.170       17.975      642.559      491.529      323.095        1.280        0.073      155.203        9.469        0.004      340.445       14.469      863.972
08/16/2013  05:56:00      -93.102      -72.615       -7.343       41.219       28.187       22.456     1699.005      794.519      504.252        0.850        0.150      118.071       18.320        0.024      340.399       14.392      863.953
08/16/2013  05:57:00      -67.828      -47.006        2.581       58.762       46.086       26.268     3453.025     2123.898      690.014        0.654        0.313       82.524       31.119        0.142      340.387       14.372      863.951
08/16/2013  05:58:00       14.878       -4.785       16.138       30.627       13.317       16.985      938.012      177.346      288.488        0.095        0.070       15.628       12.714        0.662      340.237       14.119      863.971
08/16/2013  05:59:00       13.754      -24.648        0.601       43.377       21.191       26.490     1881.582      449.062      701.708        0.191        0.152       28.226       18.104        0.411      339.812       13.403      864.012
08/16/2013  06:00:00      -11.100       -1.269       17.530       18.466       33.331       24.852      340.981     1110.931      617.644        0.125        0.103       11.173       21.920        3.849      339.916       13.578      864.053
08/16/2013  06:01:00       32.947      -23.895       11.085       28.536       27.024       23.409      814.287      730.318      548.003        0.194        0.105       40.700       21.526        0.280      339.968       13.664      864.092
08/16/2013  06:02:00       -7.589        9.601       18.268       18.733       21.083       16.679      350.917      444.501      278.196        0.078        0.054       12.238       13.169        1.158      340.006       13.730      864.117
08/16/2013  06:03:00      -61.845      -58.629      -15.994       27.423       21.952       20.853      752.030      481.879      434.852        0.459        0.083       85.218       14.809        0.030      340.568       14.678      864.124
08/16/2013  06:04:00      -92.097      -32.379      -14.481       23.555       16.291       16.416      554.830      265.411      269.476        0.541        0.054       97.623        7.494        0.006      340.649       14.816      864.111
08/16/2013  06:05:00     -129.548      -19.926      -15.103       10.189       12.897        8.678      103.814      166.344       75.312        0.888        0.017      131.071        6.043        0.002      340.623       14.771      864.100
08/16/2013  06:06:00     -109.142      -21.956       -8.350       13.610       19.385        9.928      185.227      375.769       98.558        0.656        0.033      111.329        5.724        0.003      340.587       14.711      864.092
08/16/2013  06:07:00      -49.075      -12.064        4.375       35.898       19.115       14.734     1288.672      365.371      217.080        0.222        0.094       50.536       19.592        0.150      340.577       14.695      864.110
08/16/2013  06:08:00       36.867      -10.572       17.814       31.600       35.688       25.917      998.549     1273.638      671.674        0.237        0.147       38.353       26.514        0.478      339.811       13.400      864.145
08/16/2013  06:09:00       35.451      -15.851       14.242       40.479       33.866       22.667     1638.509     1146.938      513.781        0.250        0.165       38.834        9.975        0.066      339.737       13.276      864.178
08/16/2013  06:10:00       18.064      -23.523       18.907       20.458       30.330       16.409      418.510      919.908      269.260        0.142        0.080       29.659        9.015        0.092      340.286       14.202      864.199
08/16/2013  06:11:00      -46.250      -40.407        6.524       42.028       33.957       21.722     1766.359     1153.087      471.832        0.360        0.170       61.415       17.961        0.086      340.467       14.506      864.217
08/16/2013  06:12:00      -94.093      -70.346        1.705       55.361       38.860       25.573     3064.822     1510.133      653.978        0.952        0.261      117.483       27.281        0.054      340.381       14.362      864.218
08/16/2013  06:13:00     -117.533      -91.707       -3.924       38.546       40.328       26.663     1485.767     1626.369      710.938        1.303        0.191      149.078       19.206        0.017      340.246       14.133      864.225
08/16/2013  06:14:00      -91.782      -38.116       -5.536       28.919       31.371       16.947      836.290      984.117      287.214        0.601        0.105       99.382        7.665        0.006      340.286       14.201      864.219
08/16/2013  06:15:00      -94.412      -10.241       -0.976       36.504       27.998       17.512     1332.517      783.863      306.663        0.572        0.121       94.966       17.319        0.033      340.209       14.070      864.222
08/16/2013  06:16:00      -75.546      -21.301        0.362       24.622       19.292       16.819      606.251      372.188      282.862        0.371        0.063       78.492       16.177        0.042      340.202       14.059      864.235
08/16/2013  06:17:00      -61.316      -28.171       -0.843       20.799       31.266       14.967      432.611      977.571      224.007        0.309        0.082       67.478        9.756        0.021      340.205       14.065      864.250
08/16/2013  06:18:00      -38.304      -31.254       -6.431       33.779       17.542       16.021     1141.018      307.730      256.676        0.210        0.085       49.437       10.342        0.044      340.134       13.945      864.268
08/16/2013  06:19:00       28.371      -24.971       -4.021       18.982       21.962       20.427      360.312      482.329      417.281        0.135        0.063       37.795       15.826        0.175      339.748       13.295      864.283
08/16/2013  06:20:00       33.139      -24.957       11.834       25.046       14.742       11.450      627.278      217.317      131.093        0.142        0.049       41.485        7.634        0.034      339.854       13.473      864.296
08/16/2013  06:21:00       36.560       -1.534       24.851       27.532       19.441       22.538      757.997      377.942      507.965        0.180        0.082       36.592       17.155        0.220      339.530       12.926      864.291
08/16/2013  06:22:00       22.412       16.697        8.181       25.580       12.171       17.757      654.339      148.123      315.296        0.098        0.056       27.948       16.096        0.332      339.702       13.217      864.284
08/16/2013  06:23:00       -1.887       11.542        2.281        4.785        7.244        8.660       22.896       52.474       74.992        0.015        0.008       11.695        4.672        0.160      340.160       13.988      864.277
08/16/2013  06:24:00        3.595       -0.284       12.462       13.296       12.824        9.972      176.773      164.463       99.440        0.030        0.022        3.607        8.036        4.965      339.942       13.621      864.281
08/16/2013  06:25:00       23.011      -20.564       -1.102       21.566       16.443       14.912      465.105      270.380      222.371        0.096        0.048       30.861        5.720        0.034      339.909       13.567      864.296
08/16/2013  06:26:00       40.637      -21.204       15.533       25.861       24.025       21.927      668.788      577.184      480.787        0.203        0.086       45.836       18.923        0.170      339.733       13.268      864.328
08/16/2013  06:27:00       29.643      -62.412       -9.165       22.723       29.822       17.986      516.349      889.344      323.512        0.329        0.086       69.094       14.206        0.042      339.913       13.573      864.364
08/16/2013  06:28:00       -3.418      -37.043       -0.982       28.654       27.372       21.799      821.051      749.209      475.207        0.171        0.102       37.200       15.064        0.164      339.918       13.581      864.387
08/16/2013  06:29:00      -43.809      -16.724       -5.556       19.670       13.027       10.652      386.899      169.702      113.461        0.145        0.034       46.893        5.471        0.014      340.304       14.235      864.382
08/16/2013  06:30:00      -19.914       -9.120        6.274       21.249       16.242        8.963      451.538      263.792       80.344        0.066        0.040       21.903        6.288        0.082      340.253       14.146      864.368
08/16/2013  06:31:00      -33.016        8.603        3.324       11.779        8.733        8.146      138.745       76.271       66.354        0.073        0.014       34.119        6.835        0.040      340.305       14.234      864.354
08/16/2013  06:32:00      -18.362       19.978        5.017       11.459        7.690        6.628      131.308       59.131       43.926        0.050        0.012       27.134        5.860        0.047      340.309       14.241      864.343
08/16/2013  06:33:00       20.693       -0.551        1.658       15.331       21.380       13.012      235.029      457.120      169.308        0.065        0.043       20.701        4.665        0.051      339.917       13.580      864.339
08/16/2013  06:34:00      -38.156        2.791      -10.392       28.814        8.243        5.724      830.257       67.950       32.764        0.125        0.047       38.258        6.701        0.031      340.148       13.969      864.335
08/16/2013  06:35:00      -99.893        0.337      -10.275       13.679       14.710        8.961      187.112      216.371       80.298        0.528        0.024       99.894        6.691        0.004      340.319       14.257      864.324
08/16/2013  06:36:00     -119.920      -33.137       -5.680       30.555       21.829       17.151      933.583      476.519      294.170        0.861        0.085      124.414        5.553        0.002      340.124       13.927      864.325
08/16/2013  06:37:00     -126.242      -61.433       -9.082       27.190       21.341       15.738      739.277      455.418      247.691        1.062        0.072      140.396       12.439        0.008      340.145       13.962      864.328
08/16/2013  06:38:00      -86.387      -23.563        2.430       34.577       31.130       21.380     1195.570      969.094      457.094        0.532        0.131       89.543       20.236        0.051      340.110       13.906      864.331
08/16/2013  06:39:00      -92.375      -31.485      -11.432       38.548       30.263       16.200     1485.979      915.832      262.438        0.616        0.133       97.593       13.114        0.018      339.984       13.692      864.339
08/16/2013  06:40:00      -44.116      -23.331       -1.074       40.940       27.838       21.174     1676.086      774.976      448.326        0.270        0.145       49.906       21.852        0.192      339.952       13.639      864.339
08/16/2013  06:41:00      -19.304      -28.900        7.823       26.460       26.047       13.466      700.120      678.471      181.328        0.141        0.078       34.754       12.489        0.129      340.050       13.802      864.338
08/16/2013  06:42:00       -0.199       -4.698        8.652       11.320       10.234       12.876      128.153      104.729      165.787        0.025        0.020        4.702        8.087        2.958      340.177       14.016      864.336
08/16/2013  06:43:00       -6.441       -6.482        5.126       18.896        8.977        9.108      357.071       80.586       82.962        0.032        0.026        9.138        7.478        0.670      340.369       14.341      864.327
08/16/2013  06:44:00      -46.978      -19.106       -1.582       31.142       14.481       10.626      969.838      209.698      112.908        0.193        0.065       50.715        6.344        0.016      340.245       14.132      864.330
08/16/2013  06:45:00      -72.842      -31.090      -12.679       17.265       22.812        9.250      298.069      520.375       85.558        0.367        0.045       79.200       10.339        0.017      340.159       13.988      864.345
08/16/2013  06:46:00      -77.034      -37.660       -2.418       11.975        9.739       13.108      143.410       94.847      171.814        0.388        0.021       85.747       10.834        0.016      340.188       14.036      864.365
08/16/2013  06:47:00      -92.039      -27.898       -8.505       12.763       11.568        7.956      162.888      133.825       63.294        0.484        0.018       96.175        4.151        0.002      340.184       14.029      864.366
08/16/2013  06:48:00      -94.827      -21.674       -1.730       21.928       33.345       16.231      480.826     1111.902      263.434        0.566        0.093       97.273        9.145        0.009      340.206       14.066      864.370
08/16/2013  06:49:00      -96.868      -26.481       -7.474       16.832       16.470       12.362      283.332      271.245      152.831        0.542        0.035      100.422        7.666        0.006      340.227       14.103      864.388
08/16/2013  06:50:00      -78.339      -46.372       -3.591       30.270       22.313       18.791      916.294      497.852      353.100        0.503        0.088       91.035       18.505        0.041      340.207       14.069      864.399
08/16/2013  06:51:00      -47.213      -35.072        0.971       25.381       27.629       14.590      644.170      763.371      212.864        0.254        0.081       58.815       11.725        0.040      340.319       14.258      864.409
08/16/2013  06:52:00      -56.748      -21.323       -0.967       20.962        9.816        9.478      439.424       96.356       89.827        0.215        0.031       60.621        9.311        0.024      340.316       14.251      864.440
08/16/2013  06:53:00      -30.540       -3.360       -4.796       15.465        9.695       12.983      239.172       93.990      168.546        0.073        0.025       30.725       12.336        0.161      340.468       14.508      864.448
08/16/2013  06:54:00        7.239        3.953        9.602       18.466       10.088       18.819      340.992      101.762      354.147        0.048        0.040        8.248        7.938        0.926      340.350       14.311      864.454
08/16/2013  06:55:00      -11.453        4.871       13.748       10.329       10.228       13.624      106.693      104.622      185.618        0.037        0.020       12.446       10.066        0.654      340.471       14.515      864.456
08/16/2013  06:56:00      -59.254        2.594       -2.250       14.514        7.730        6.746      210.653       59.748       45.503        0.192        0.016       59.311        6.631        0.013      340.503       14.569      864.448
08/16/2013  06:57:00      -70.816      -15.630       -4.598       17.370       14.639        9.764      301.718      214.293       95.340        0.295        0.031       72.521        6.789        0.009      340.487       14.540      864.449
08/16/2013  06:58:00      -71.062      -18.409       -8.014       15.281       12.460        8.261      233.501      155.243       68.240        0.295        0.023       73.407        4.960        0.005      340.487       14.541      864.435
08/16/2013  06:59:00      -64.530       -0.726       -1.289       23.658       17.491       13.832      559.701      305.939      191.334        0.261        0.053       64.534       13.546        0.044      340.452       14.484      864.431
08/16/2013  07:00:00      -65.039       -8.014       -4.777       24.562       16.638       14.432      603.285      276.807      208.284        0.270        0.054       65.531       10.737        0.027      340.415       14.420      864.426
08/16/2013  07:01:00      -41.696      -16.668       -4.779       18.968       15.093       11.027      359.770      227.808      121.598        0.137        0.035       44.904        9.361        0.043      340.487       14.542      864.432
08/16/2013  07:02:00      -38.180       -8.421        0.275       18.703       16.905       10.151      349.799      285.788      103.033        0.113        0.037       39.097        9.644        0.061      340.604       14.740      864.442
08/16/2013  07:03:00      -18.716      -26.217        6.855       20.546       20.843       12.219      422.142      434.412      149.300        0.105        0.050       32.212        4.927        0.023      340.742       14.975      864.466
08/16/2013  07:04:00      -21.561      -22.763        8.304       20.881       15.442       13.421      436.010      238.465      180.123        0.095        0.043       31.353       11.526        0.135      340.715       14.927      864.481
08/16/2013  07:05:00      -18.242       -2.038       13.153       15.051       13.110       10.169      226.541      171.880      103.411        0.051        0.025       18.356        8.675        0.223      340.965       15.349      864.493
08/16/2013  07:06:00      -28.491       -9.900       -0.501       12.653       11.293        7.185      160.100      127.528       51.619        0.062        0.017       30.162        6.325        0.044      340.853       15.159      864.489
08/16/2013  07:07:00      -18.960        2.331       14.135       11.815        9.474       11.884      139.593       89.749      141.222        0.047        0.019       19.103        8.145        0.182      341.100       15.579      864.487
08/16/2013  07:08:00      -46.096       -0.139       -0.273       11.240        9.432        5.622      126.329       88.959       31.612        0.119        0.012       46.096        4.193        0.008      340.853       15.161      864.489
08/16/2013  07:09:00     -103.688        5.209       -8.246       17.926        6.522        7.157      321.348       42.535       51.217        0.563        0.021      103.819        8.835        0.007      340.849       15.152      864.478
08/16/2013  07:10:00     -102.978       -2.488      -13.069       19.373       22.493       14.295      375.325      505.916      204.341        0.593        0.054      103.008        8.487        0.007      340.736       14.963      864.474
08/16/2013  07:11:00      -60.078       -5.180        0.757       41.014       26.722       21.542     1682.140      714.047      464.055        0.325        0.143       60.301       25.407        0.178      340.916       15.268      864.480
08/16/2013  07:12:00       -2.146      -14.788       18.461       12.766       16.919       12.213      162.971      286.259      149.168        0.058        0.030       14.943        9.447        0.400      341.139       15.644      864.493
08/16/2013  07:13:00        8.464      -55.282        8.063       17.626       40.511       20.443      310.691     1641.171      417.907        0.278        0.118       55.926       18.991        0.115      341.001       15.411      864.529
08/16/2013  07:14:00       35.600      -72.098      -18.296       54.053       64.798       46.030     2921.737     4198.755     2118.797        0.802        0.462       80.408       34.658        0.186      340.913       15.262      864.562
08/16/2013  07:15:00       20.750      -53.150        4.255       46.267       48.910       37.982     2140.657     2392.178     1442.649        0.462        0.299       57.057       27.381        0.230      340.841       15.141      864.569
08/16/2013  07:16:00       19.883       12.243       11.543       32.437       20.607       26.481     1052.159      424.658      701.246        0.143        0.109       23.350        4.996        0.046      340.867       15.183      864.544
08/16/2013  07:17:00       -9.779       20.652        1.926       12.499       12.445       18.106      156.221      154.879      327.819        0.058        0.032       22.850        7.492        0.107      341.057       15.505      864.517
08/16/2013  07:18:00       10.312        5.473       16.499       12.759       14.851       10.806      162.801      220.556      116.779        0.045        0.025       11.674        6.256        0.287      341.117       15.608      864.506
08/16/2013  07:19:00       -5.725       12.215       12.148        9.331       13.031       10.815       87.059      169.804      116.961        0.035        0.019       13.490        5.501        0.166      341.480       16.223      864.492
08/16/2013  07:20:00       -8.760       76.145       -2.038       15.888       22.875       15.722      252.442      523.274      247.182        0.345        0.051       76.647        9.993        0.017      341.332       15.972      864.474
08/16/2013  07:21:00      -12.202       70.451       -3.162       15.640       26.168       15.877      244.594      684.759      252.089        0.315        0.059       71.500       14.424        0.041      341.351       16.005      864.468
08/16/2013  07:22:00       -6.533       53.872       10.107       14.487       43.114       18.206      209.875     1858.815      331.468        0.272        0.120       54.267       21.707        0.160      341.508       16.269      864.466
08/16/2013  07:23:00      -25.223        8.242       10.443       19.438       13.556       13.060      377.841      183.770      170.559        0.077        0.037       26.536       11.758        0.196      341.416       16.116      864.475
08/16/2013  07:24:00      -14.955       -0.493       17.050       14.860       14.266       15.619      220.807      203.523      243.956        0.059        0.033       14.963       12.860        0.739      341.726       16.639      864.493
08/16/2013  07:25:00       19.176      -15.349       26.435       30.794       34.865       29.940      948.291     1215.556      896.403        0.218        0.153       24.562       22.552        0.843      341.129       15.627      864.516
08/16/2013  07:26:00       38.802       14.340       36.963       45.409       35.920       26.411     2061.999     1290.211      697.520        0.356        0.202       41.367       29.419        0.506      340.719       14.935      864.539
08/16/2013  07:27:00       12.014       14.588       37.466       32.057       44.406       30.044     1027.653     1971.924      902.624        0.283        0.195       18.898       25.408        1.808      341.114       15.602      864.551
08/16/2013  07:28:00       40.419      -19.011       38.791       46.590       45.107       38.348     2170.619     2034.665     1470.591        0.459        0.284       44.667       28.563        0.409      341.090       15.562      864.559
08/16/2013  07:29:00       48.728      -14.482       12.569       41.351       26.270       32.874     1709.942      690.125     1080.681        0.311        0.174       50.834       29.124        0.328      341.122       15.616      864.536
08/16/2013  07:30:00        9.833       -2.310       10.616       21.511       20.694       19.539      462.727      428.262      381.755        0.074        0.064       10.101       12.524        1.537      341.436       16.147      864.499
08/16/2013  07:31:00       10.490       41.531       -3.216       31.813       35.225       15.750     1012.074     1240.814      248.076        0.217        0.125       42.836       14.058        0.108      341.206       15.758      864.472
08/16/2013  07:32:00       -7.640       30.573        5.546       21.076       30.923       19.577      444.188      956.244      383.278        0.140        0.089       31.513       21.460        0.464      341.564       16.364      864.471
08/16/2013  07:33:00       27.026        7.187       16.939       21.386       24.392       17.753      457.375      594.956      315.157        0.122        0.068       27.966       12.462        0.199      341.547       16.336      864.504
08/16/2013  07:34:00       35.809      -47.352        3.916       45.999       45.794       45.994     2115.913     2097.068     2115.450        0.493        0.316       59.367       31.940        0.289      341.201       15.749      864.554
08/16/2013  07:35:00       54.115      -64.261       16.032       63.427       80.183       54.019     4023.038     6429.279     2918.077        1.034        0.669       84.012       49.593        0.348      341.703       16.600      864.597
08/16/2013  07:36:00       26.584      -16.660       36.697       32.452       42.292       37.059     1053.160     1788.604     1373.360        0.327        0.211       31.373       23.796        0.575      341.526       16.300      864.614
08/16/2013  07:37:00        2.994        8.027       37.846       19.771       28.311       20.774      390.878      801.507      431.574        0.156        0.081        8.567        4.515        0.278      342.031       17.156      864.592
08/16/2013  07:38:00       -0.713       33.325        7.320       17.255       20.873       23.069      297.742      435.688      532.163        0.121        0.063       33.332       11.763        0.125      341.719       16.626      864.550
08/16/2013  07:39:00        1.351        8.132        9.031       19.901       17.886       13.532      396.061      319.917      183.112        0.052        0.045        8.244        3.713        0.203      341.777       16.724      864.534
08/16/2013  07:40:00       20.846      -12.249       12.819       19.740       15.362       20.443      389.655      235.981      417.911        0.090        0.052       24.179       13.132        0.295      341.731       16.647      864.536
08/16/2013  07:41:00        0.336        9.087       31.136       20.512       31.482       19.198      420.749      991.100      368.546        0.142        0.089        9.093       11.377        1.565      341.865       16.874      864.558
08/16/2013  07:42:00       29.700      -43.954       10.515       38.455       36.339       37.525     1478.791     1320.532     1408.103        0.357        0.210       53.048       30.949        0.340      341.929       16.985      864.581
08/16/2013  07:43:00       43.544      -68.004      -15.684       36.835       46.736       32.932     1356.784     2184.249     1084.511        0.570        0.231       80.750       27.927        0.120      342.022       17.140      864.598
08/16/2013  07:44:00       -9.671      -53.009       -1.530       23.630       46.153       20.269      558.362     2130.078      410.819        0.300        0.155       53.884       13.795        0.066      341.882       16.903      864.609
08/16/2013  07:45:00      -14.571       12.381       16.442       19.516       20.746       18.362      380.860      430.398      337.171        0.089        0.057       19.121       12.079        0.399      342.219       17.476      864.618
08/16/2013  07:46:00       33.596      -16.835       -5.578       33.684       19.930       26.121     1134.639      397.217      682.323        0.183        0.111       37.578       13.970        0.138      341.547       16.337      864.603
08/16/2013  07:47:00       25.862      -14.262      -20.108       22.216       22.064       17.467      493.533      486.816      305.082        0.128        0.064       29.534       12.342        0.175      341.541       16.325      864.597
08/16/2013  07:48:00       16.080       -5.456        2.135       16.546       23.958       20.470      273.775      573.979      419.008        0.078        0.063       16.980       10.210        0.362      342.125       17.316      864.597
08/16/2013  07:49:00       24.875      -20.628        0.895       13.138       15.832       19.114      172.608      250.653      365.344        0.092        0.039       32.315       12.750        0.156      341.838       16.829      864.597
08/16/2013  07:50:00       -3.086       10.084       46.141       26.689       33.635       21.718      712.323     1131.322      471.682        0.228        0.116       10.545       20.166        3.657      342.080       17.239      864.612
08/16/2013  07:51:00       44.518        1.848       33.324       38.828       35.581       25.964     1507.608     1266.020      674.147        0.327        0.172       44.556       24.514        0.303      342.003       17.108      864.625
08/16/2013  07:52:00      -15.026       -2.051       26.381       14.824       19.475       20.653      219.760      379.268      426.553        0.098        0.051       15.166       10.645        0.493      342.543       18.027      864.621
08/16/2013  07:53:00      -23.825       13.926       13.048       23.976       23.613       19.850      574.850      557.595      394.014        0.123        0.076       27.596       14.403        0.272      342.273       17.567      864.610
08/16/2013  07:54:00      -32.606       -1.814        6.225       21.357       19.956       13.953      456.134      398.234      194.683        0.108        0.052       32.656       13.167        0.163      342.110       17.291      864.606
08/16/2013  07:55:00      -38.497      -15.756       -0.605       15.462       14.307       11.081      239.065      204.685      122.783        0.115        0.028       41.596        4.524        0.012      341.968       17.049      864.617
08/16/2013  07:56:00       -0.621       -9.785       10.215       10.883       15.224       13.923      118.445      231.775      193.855        0.037        0.027        9.805        7.570        0.596      342.389       17.766      864.652
08/16/2013  07:57:00       31.078      -18.922       17.928       18.553       20.460       27.309      344.214      418.600      745.792        0.158        0.075       36.385       11.243        0.095      341.833       16.820      864.670
08/16/2013  07:58:00        3.814       21.748       25.502       24.425       25.088       23.792      596.557      629.432      566.076        0.146        0.090       22.080       19.210        0.757      342.051       17.190      864.667
08/16/2013  07:59:00       -5.284       18.515       12.115       17.460       21.858       20.995      304.846      477.780      440.799        0.087        0.061       19.255       10.086        0.274      342.197       17.439      864.651
08/16/2013  08:00:00      -37.826       18.035        7.388       21.395       19.693       14.760      457.761      387.811      217.865        0.144        0.053       41.906       13.052        0.097      342.195       17.437      864.636
08/16/2013  08:01:00      -11.774       11.869       -1.183       15.439       24.504       16.072      238.374      600.438      258.321        0.069        0.055       16.718       14.200        0.721      342.450       17.871      864.640
08/16/2013  08:02:00       17.828      -18.260       13.149       27.252       27.733       26.870      742.662      769.143      722.014        0.153        0.112       25.520       20.214        0.627      342.323       17.654      864.664
08/16/2013  08:03:00       36.771        2.626       35.540       26.518       20.739       16.810      703.231      430.088      282.562        0.202        0.071       36.865       10.525        0.082      341.954       17.026      864.686
08/16/2013  08:04:00       22.471        8.440       38.154       25.277       24.188       18.047      638.947      585.052      325.695        0.179        0.077       24.004       15.598        0.422      342.188       17.424      864.693
08/16/2013  08:05:00       42.708        1.825       12.386       31.323       24.337       24.599      981.107      592.281      605.090        0.208        0.109       42.747       15.969        0.140      341.838       16.830      864.691
08/16/2013  08:06:00       13.583      -10.172       11.039       25.022       26.291       20.695      626.114      691.240      428.296        0.108        0.087       16.970       14.839        0.765      341.975       17.063      864.678
08/16/2013  08:07:00        6.272       13.778       24.662       17.554       17.549       21.927      308.137      307.954      480.794        0.097        0.055       15.139       10.977        0.526      342.348       17.696      864.666
08/16/2013  08:08:00        5.323       -9.518        2.046       27.019       23.223       20.051      730.003      539.323      402.053        0.090        0.084       10.905        8.850        0.659      342.352       17.703      864.664
08/16/2013  08:09:00       17.591        5.576       36.718       25.808       18.599       20.772      666.054      345.937      431.460        0.157        0.072       18.454       16.308        0.781      342.583       18.095      864.685
08/16/2013  08:10:00       -3.444      -21.344       26.517       22.684       38.625       32.568      514.564     1491.860     1060.649        0.212        0.153       21.620       26.182        1.467      342.643       18.196      864.715
08/16/2013  08:11:00       -2.392        9.811       49.391       20.648       50.736       25.994      426.338     2574.129      675.664        0.311        0.184       10.098       14.722        2.126      342.861       18.567      864.735
08/16/2013  08:12:00        5.596       -2.894       35.604       24.521       22.817       16.727      601.260      520.600      279.807        0.135        0.070        6.300       13.841        4.827      342.968       18.749      864.752
08/16/2013  08:13:00      -26.064       21.413        3.697       15.683       24.530       20.708      245.970      601.738      428.840        0.121        0.064       33.732       10.992        0.106      342.357       17.710      864.736
08/16/2013  08:14:00      -12.492       19.652       15.633       20.551       17.441       20.472      422.340      304.204      419.119        0.097        0.057       23.287       17.409        0.559      342.978       18.767      864.717
08/16/2013  08:15:00      -19.006       21.445       19.101       19.784       19.944       20.835      391.409      397.760      434.079        0.120        0.061       28.655       16.112        0.316      343.063       18.912      864.715
08/16/2013  08:16:00       23.196        1.383       22.588       43.850       16.362       20.114     1922.859      267.719      404.564        0.182        0.130       23.237       16.811        0.523      342.862       18.569      864.730
08/16/2013  08:17:00       28.949       -9.609       18.961       29.477       29.337       26.539      868.869      860.678      704.293        0.186        0.122       30.502       21.290        0.487      342.166       17.388      864.738
08/16/2013  08:18:00       16.199      -29.106        1.637       22.356       23.675       23.179      499.780      560.484      537.256        0.135        0.080       33.310       13.804        0.172      342.143       17.347      864.731
08/16/2013  08:19:00      -13.048       -0.460       10.685       19.427       13.018       14.472      377.409      169.457      209.450        0.052        0.038       13.056        6.165        0.223      342.619       18.156      864.722
08/16/2013  08:20:00       17.810        5.835        3.474       13.484       11.174       11.016      181.831      124.849      121.363        0.040        0.021       18.741        5.383        0.082      342.444       17.859      864.727
08/16/2013  08:21:00       22.777       -1.017       22.994       25.401       21.375       25.527      645.192      456.911      651.622        0.140        0.088       22.799       15.679        0.473      342.851       18.551      864.751
08/16/2013  08:22:00        9.625        0.954       28.273       28.734       20.493       20.228      825.638      419.946      409.163        0.127        0.083        9.672       15.401        2.536      343.178       19.107      864.788
08/16/2013  08:23:00       19.945       16.348       26.372       34.163       31.544       25.911     1167.144      995.054      671.357        0.210        0.142       25.789       21.798        0.714      342.983       18.776      864.818
08/16/2013  08:24:00       47.032       -2.875        4.928       25.385       32.995       28.089      644.411     1088.669      789.010        0.238        0.126       47.120       16.457        0.122      342.215       17.467      864.810
08/16/2013  08:25:00      -17.377       31.154       -7.143       34.119       17.218       17.081     1164.089      296.450      291.755        0.154        0.088       35.673       17.901        0.252      342.788       18.444      864.783
08/16/2013  08:26:00      -52.338       30.102        6.185       24.670       20.677       21.991      608.599      427.518      483.615        0.260        0.076       60.377       14.671        0.059      342.883       18.604      864.736
08/16/2013  08:27:00      -34.454       27.346       16.543       34.732       28.113       22.780     1206.326      790.360      518.926        0.236        0.126       43.988       20.591        0.219      343.184       19.117      864.706
08/16/2013  08:28:00      -36.363        2.460        2.339       26.993       19.385       23.174      728.632      375.781      537.045        0.149        0.082       36.446       15.369        0.178      343.138       19.039      864.706
08/16/2013  08:29:00      -34.368        9.192        5.120       23.340       13.127       20.965      544.755      172.314      439.543        0.122        0.058       35.576       17.793        0.250      343.320       19.351      864.726
08/16/2013  08:30:00       12.125      -65.085        7.121       19.006       36.012       23.511      361.233     1296.839      552.770        0.332        0.111       66.205       23.570        0.127      343.212       19.167      864.757
08/16/2013  08:31:00      -13.242      -30.487       21.415       16.042       28.044       15.621      257.338      786.452      244.008        0.143        0.064       33.239       16.146        0.236      343.189       19.125      864.796
08/16/2013  08:32:00       52.322       -1.014       17.962       33.779       23.919       32.145     1141.047      572.099     1033.313        0.290        0.137       52.332       21.514        0.169      342.855       18.558      864.823
08/16/2013  08:33:00       34.212       -1.396       19.657       45.541       35.431       32.889     2074.021     1255.374     1081.718        0.298        0.221       34.241       27.463        0.643      342.781       18.431      864.837
08/16/2013  08:34:00        4.434        5.213       30.441       31.759       34.188       21.469     1008.614     1168.836      460.934        0.181        0.132        6.844       20.993        9.409      343.314       19.339      864.824
08/16/2013  08:35:00       -8.488       19.416       43.412       10.409       19.712       13.465      108.337      388.564      181.314        0.151        0.034       21.190        9.301        0.193      343.856       20.263      864.803
08/16/2013  08:36:00      -43.928       22.336        7.832       21.329       16.393       21.834      454.909      268.714      476.741        0.184        0.060       49.281       18.157        0.136      343.429       19.536      864.766
08/16/2013  08:37:00      -43.273       52.485      -11.024       28.814       24.368       18.208      830.218      593.805      331.520        0.325        0.088       68.023       17.331        0.065      343.334       19.374      864.727
08/16/2013  08:38:00      -91.250       36.772       -8.964       44.301       25.356       17.015     1962.589      642.950      289.517        0.633        0.145       98.381       16.945        0.030      343.199       19.141      864.703
08/16/2013  08:39:00      -69.761       35.177        0.873       47.659       23.747       24.848     2271.389      563.939      617.447        0.478        0.173       78.128       29.251        0.140      343.445       19.563      864.697
08/16/2013  08:40:00      -10.757        3.543        4.625       41.092       20.016       24.596     1688.593      400.627      604.943        0.142        0.135       11.325       20.219        3.187      343.585       19.802      864.715
08/16/2013  08:41:00        7.314      -19.364        5.947       29.489       43.534       37.925      869.622     1895.235     1438.335        0.233        0.210       20.699       12.851        0.385      343.408       19.499      864.742
08/16/2013  08:42:00       36.990       -4.361       30.478       35.410       48.251       36.646     1253.877     2328.142     1342.896        0.362        0.246       37.246       21.304        0.327      343.023       18.843      864.779
08/16/2013  08:43:00       22.284       28.012       41.929       32.821       35.491       20.454     1077.233     1259.611      418.346        0.290        0.138       35.795       10.963        0.094      343.409       19.502      864.799
08/16/2013  08:44:00        0.520        3.476       44.279       26.973       32.181       15.604      727.539     1035.634      243.500        0.199        0.100        3.514       11.481       10.672      343.751       20.084      864.795
08/16/2013  08:45:00       -6.860      -23.033       -1.493       30.808       27.284       27.889      949.106      744.396      777.776        0.153        0.124       24.033       12.433        0.268      343.275       19.272      864.784
08/16/2013  08:46:00      -15.734      -12.308       -2.485       18.583       12.020       10.051      345.323      144.484      101.029        0.050        0.030       19.976        4.936        0.061      343.602       19.829      864.764
08/16/2013  08:47:00      -35.446       -1.970       -7.196       24.058       31.447       15.186      578.774      988.886      230.608        0.155        0.090       35.500       16.619        0.219      343.567       19.769      864.745
08/16/2013  08:48:00       -5.609       21.961        7.633       21.176       23.542       19.193      448.441      554.207      368.390        0.097        0.069       22.666       14.330        0.400      344.206       20.860      864.732
08/16/2013  08:49:00        7.712       37.348       24.271       20.223       19.620       19.473      408.952      384.961      379.188        0.161        0.059       38.136       11.557        0.092      344.293       21.011      864.718
08/16/2013  08:50:00        1.879       15.217       38.171       23.465       21.471       20.031      550.589      460.998      401.256        0.155        0.071       15.333       12.984        0.717      344.134       20.738      864.718
08/16/2013  08:51:00      -30.734      -31.184        8.173       37.332       18.105       17.295     1393.669      327.801      299.132        0.200        0.101       43.783       19.074        0.190      343.741       20.065      864.723
08/16/2013  08:52:00        1.141      -11.701        7.895       17.451       15.942       18.009      304.544      254.134      324.333        0.054        0.044       11.756        6.448        0.301      344.172       20.804      864.719
08/16/2013  08:53:00       11.971       -8.888       14.767       19.087       24.712       21.694      364.299      610.680      470.649        0.094        0.072       14.909        7.020        0.222      343.729       20.047      864.723
08/16/2013  08:54:00        2.586      -21.110       15.944       17.948       20.404       20.001      322.130      416.309      400.029        0.092        0.057       21.268       13.591        0.408      343.992       20.498      864.716
08/16/2013  08:55:00      -25.814        9.619        2.835       12.910       20.461       13.961      166.681      418.648      194.905        0.077        0.039       27.548        5.950        0.047      344.000       20.509      864.698
08/16/2013  08:56:00      -47.331        6.582       10.578       21.422       19.243       13.921      458.891      370.286      193.784        0.171        0.051       47.786        9.262        0.038      343.999       20.509      864.674
08/16/2013  08:57:00      -74.299      -11.380        9.387       38.189       33.781       23.892     1458.376     1141.166      570.832        0.445        0.159       75.166       29.011        0.149      344.013       20.531      864.656
08/16/2013  08:58:00      -74.342      -17.505        4.404       23.750       17.380       15.315      564.056      302.072      234.536        0.348        0.055       76.375       14.168        0.034      343.951       20.424      864.652
08/16/2013  08:59:00      -11.254       -3.710        5.068       29.213       21.653       23.998      853.401      468.835      575.882        0.103        0.095       11.850       21.740        3.366      344.212       20.872      864.648
08/16/2013  09:00:00       11.892      -29.737       16.785       23.743       29.837       26.474      563.721      890.220      700.886        0.173        0.108       32.026       19.360        0.365      343.770       20.118      864.648
08/16/2013  09:01:00        1.218      -13.068       18.946       35.314       28.470       21.080     1247.079      810.558      444.353        0.152        0.125       13.124       20.698        2.487      344.343       21.096      864.651
08/16/2013  09:02:00        7.306        1.700       19.023       24.930       29.537       26.619      621.500      872.439      708.582        0.131        0.110        7.502       14.671        3.825      344.140       20.749      864.650
08/16/2013  09:03:00       40.495        0.024       13.096       32.037       22.471       24.430     1026.353      504.944      596.832        0.197        0.106       40.495       13.465        0.111      343.833       20.223      864.637
08/16/2013  09:04:00       25.747       25.898       39.723       30.840       30.506       31.135      951.124      930.631      969.375        0.288        0.143       36.519       21.370        0.342      344.464       21.303      864.612
08/16/2013  09:05:00       -2.007        5.670       34.129       16.640       18.137       14.330      276.880      328.962      205.343        0.101        0.041        6.014       12.465        4.295      345.234       22.619      864.592
08/16/2013  09:06:00        2.291        2.726       21.347       13.851       11.780        9.903      191.856      138.778       98.060        0.045        0.021        3.561        8.471        5.659      345.033       22.274      864.575
08/16/2013  09:07:00       22.389       23.029       29.120       22.442       22.454       20.880      503.656      504.186      435.966        0.166        0.072       32.119       15.955        0.247      344.530       21.416      864.563
08/16/2013  09:08:00       44.634       -1.676       34.829       39.085       30.597       28.060     1527.618      936.204      787.337        0.323        0.163       44.665       27.284        0.373      344.002       20.511      864.562
08/16/2013  09:09:00       35.628        3.105       22.029       35.964       18.741       24.911     1293.394      351.217      620.555        0.201        0.113       35.763       17.157        0.230      344.298       21.019      864.559
08/16/2013  09:10:00       58.248       -4.615       17.677       24.625       29.617       31.884      606.391      877.147     1016.621        0.311        0.125       58.431       22.497        0.148      343.833       20.224      864.541
08/16/2013  09:11:00       31.546        8.005        2.236       24.852       36.467       27.442      617.607     1329.863      753.077        0.188        0.135       32.546       14.826        0.208      343.899       20.336      864.520
08/16/2013  09:12:00       28.192       11.516        8.978       21.733       18.037       27.137      472.321      325.345      736.396        0.127        0.077       30.453        8.323        0.075      344.096       20.674      864.503
08/16/2013  09:13:00       48.171        5.101        0.714       20.073       17.177       21.712      402.906      295.047      471.414        0.176        0.058       48.440        6.882        0.020      343.952       20.426      864.487
08/16/2013  09:14:00       37.507        2.552        6.131       18.554       17.643       19.459      344.237      311.274      378.665        0.124        0.052       37.594       10.178        0.073      344.147       20.758      864.474
08/16/2013  09:15:00        9.377       -6.759       25.145       16.805       18.407       14.917      282.413      338.805      222.513        0.080        0.042       11.559        9.226        0.637      345.022       22.256      864.480
08/16/2013  09:16:00       -3.469        8.646       33.647       17.673       19.828       12.896      312.347      393.131      166.309        0.105        0.044        9.316       10.334        1.231      345.199       22.559      864.486
08/16/2013  09:17:00       -5.669        6.788       25.590       10.038       14.513       17.660      100.762      210.639      311.880        0.068        0.031        8.844        7.157        0.655      345.329       22.784      864.496
08/16/2013  09:18:00      -11.355        6.157       15.952       23.511       27.217       17.702      552.749      740.776      313.373        0.101        0.080       12.917       21.270        2.712      345.187       22.539      864.497
08/16/2013  09:19:00      -31.424       -9.394        1.724       12.543       11.919       11.170      157.323      142.059      124.764        0.075        0.021       32.798        2.857        0.008      344.587       21.513      864.511
08/16/2013  09:20:00       20.032      -22.757        0.276       31.398       32.023       22.435      985.808     1025.456      503.340        0.172        0.126       30.318       23.188        0.585      344.711       21.724      864.516
08/16/2013  09:21:00       -0.997       -5.760       16.101       20.641       34.491       21.224      426.041     1189.628      450.441        0.118        0.103        5.846       10.427        3.182      344.958       22.147      864.518
08/16/2013  09:22:00       19.532      -25.163        5.453       28.158       33.664       28.234      792.860     1133.287      797.161        0.188        0.136       31.854       21.963        0.475      344.841       21.946      864.525
08/16/2013  09:23:00       22.130       16.534       31.522       27.938       30.595       30.146      780.515      936.057      908.753        0.219        0.131       27.625       25.857        0.876      344.476       21.322      864.527
08/16/2013  09:24:00        6.702       23.976       44.698       27.825       36.976       30.542      774.208     1367.222      932.823        0.285        0.154       24.895       31.304        1.581      344.629       21.584      864.526
08/16/2013  09:25:00       41.531      -14.533       14.801       31.061       41.297       25.275      964.806     1705.420      638.840        0.273        0.165       44.000       21.624        0.242      344.390       21.174      864.524
08/16/2013  09:26:00      111.238       71.806       37.410       37.117       42.836       38.017     1377.639     1834.884     1445.273        1.179        0.233      132.401       28.804        0.047      344.534       21.421      864.517
08/16/2013  09:27:00      111.164       63.007        1.788       40.455       27.683       25.545     1636.618      766.357      652.560        0.969        0.153      127.779       17.885        0.020      344.754       21.796      864.515
08/16/2013  09:28:00       26.345       50.467       29.769       40.998       30.940       33.527     1680.820      957.264     1124.079        0.394        0.188       56.929        6.719        0.014      345.424       22.944      864.514
08/16/2013  09:29:00        4.775       10.778       34.899       26.635       39.905       19.327      709.423     1592.411      373.550        0.202        0.134       11.788       17.589        2.226      345.453       22.995      864.510
08/16/2013  09:30:00       59.084       44.367       22.533       42.880       31.609       31.546     1838.728      999.159      995.166        0.490        0.192       73.888       24.032        0.106      345.405       22.912      864.505
08/16/2013  09:31:00       36.087       54.594       42.103       42.112       37.386       24.565     1773.455     1397.685      603.440        0.491        0.189       65.443       17.711        0.073      345.541       23.145      864.498
08/16/2013  09:32:00       12.682      -40.301        6.944       17.974       34.672       22.485      323.050     1202.122      505.570        0.193        0.102       42.250       17.986        0.181      344.924       22.089      864.490
08/16/2013  09:33:00       12.128       24.118       36.602       34.099       37.499       30.466     1162.714     1406.146      928.159        0.278        0.175       26.996       26.194        0.942      345.102       22.394      864.476
08/16/2013  09:34:00       34.612       12.623       30.369       36.426       30.821       24.829     1326.848      949.951      616.466        0.259        0.145       36.841       16.158        0.192      344.889       22.030      864.468
08/16/2013  09:35:00       39.193       -9.419        8.709       26.518       28.573       22.507      703.189      816.433      506.584        0.186        0.101       40.309       16.323        0.164      344.618       21.565      864.465
08/16/2013  09:36:00       25.608       17.316       41.006       30.788       32.931       23.852      947.899     1084.467      568.903        0.262        0.130       30.913       19.492        0.398      344.929       22.100      864.442
08/16/2013  09:37:00       29.090       27.002       35.746       30.889       30.793       27.746      954.143      948.240      769.816        0.276        0.134       39.691       23.871        0.362      344.766       21.819      864.432
08/16/2013  09:38:00       33.449       29.163       22.233       27.173       20.348       23.944      738.371      414.043      573.299        0.209        0.086       44.377       17.784        0.161      345.153       22.482      864.423
08/16/2013  09:39:00       33.381       -6.902       33.776       30.674       24.435       27.100      940.868      597.062      734.414        0.229        0.114       34.087       18.071        0.281      344.951       22.136      864.418
08/16/2013  09:40:00       57.593       61.092       61.109       75.457       59.088       29.957     5693.732     3491.376      897.450        1.043        0.504       83.960       22.756        0.073      345.449       22.986      864.409
08/16/2013  09:41:00      125.126      104.717       36.568       47.972       45.149       29.934     2301.277     2038.427      896.062        1.660        0.262      163.163       17.747        0.012      345.238       22.627      864.423
08/16/2013  09:42:00       21.574       17.963       36.363       31.060       33.194       20.311      964.698     1101.874      412.525        0.229        0.124       28.073       11.224        0.160      345.434       22.962      864.437
08/16/2013  09:43:00       88.762       58.819       11.768       39.149       34.059       31.746     1532.683     1160.016     1007.825        0.759        0.185      106.481       18.436        0.030      345.360       22.835      864.441
08/16/2013  09:44:00       28.821        2.567       54.474       46.550       53.484       36.965     2166.878     2860.568     1366.379        0.510        0.320       28.935       34.931        1.457      345.175       22.519      864.445
08/16/2013  09:45:00       14.981       -1.631       22.573       17.176       30.577       21.919      295.007      934.930      480.435        0.122        0.086       15.069       16.494        1.198      344.977       22.180      864.444
08/16/2013  09:46:00       75.407       34.309       10.484       49.929       27.537       27.758     2492.885      758.268      770.501        0.550        0.201       82.845       12.126        0.021      344.863       21.983      864.431
08/16/2013  09:47:00       95.633       50.510       12.859       50.456       31.940       33.382     2545.823     1020.136     1114.369        0.827        0.234      108.152       23.754        0.048      345.515       23.101      864.423
08/16/2013  09:48:00       68.372       47.748       25.720       56.270       51.543       35.539     3166.283     2656.645     1263.008        0.735        0.354       83.394       23.846        0.082      345.879       23.725      864.409
08/16/2013  09:49:00       87.046       65.863       -2.248       61.334       45.305       36.154     3761.847     2052.550     1307.086        0.952        0.356      109.156       19.288        0.031      345.581       23.214      864.399
08/16/2013  09:50:00       81.426      104.035       -2.184       45.639       35.347       32.488     2082.891     1249.391     1055.484        1.092        0.219      132.112       25.694        0.038      345.431       22.957      864.390
08/16/2013  09:51:00       63.648       49.968       21.568       42.080       36.177       33.143     1770.690     1308.760     1098.486        0.559        0.209       80.919       20.479        0.064      345.565       23.188      864.383
08/16/2013  09:52:00      115.183       75.328       19.265       54.584       49.111       34.167     2979.440     2411.886     1167.414        1.293        0.328      137.628       15.710        0.013      345.611       23.265      864.373
08/16/2013  09:53:00      150.332       91.605       17.767       41.950       42.741       32.135     1759.823     1826.802     1032.632        1.796        0.231      176.043       20.285        0.013      345.438       22.968      864.374
08/16/2013  09:54:00       97.796       90.658       34.958       39.074       40.688       37.527     1526.814     1655.531     1408.311        1.180        0.230      133.353       18.309        0.019      345.465       23.015      864.374
08/16/2013  09:55:00       37.567      -22.700        1.110       48.738       61.921       30.563     2375.403     3834.217      934.101        0.453        0.357       43.893       19.263        0.193      345.241       22.630      864.380
08/16/2013  09:56:00       10.976        8.332       17.144       41.303       38.096       24.932     1705.932     1451.278      621.605        0.213        0.189       13.780       14.453        1.100      345.856       23.687      864.386
08/16/2013  09:57:00       97.184       62.857       19.146       60.754       35.676       34.895     3691.077     1272.803     1217.682        0.997        0.309      115.740       24.657        0.045      345.886       23.739      864.390
08/16/2013  09:58:00       61.524       55.657       12.768       43.726       39.635       28.451     1911.920     1570.967      809.444        0.567        0.215       82.963       25.865        0.097      345.968       23.879      864.394
08/16/2013  09:59:00       43.151       60.319        4.744       34.130       39.412       32.505     1164.832     1553.319     1056.564        0.465        0.189       74.164       23.753        0.103      345.914       23.786      864.395
08/16/2013  10:00:00       92.588       35.852        7.695       59.726       43.000       24.627     3567.184     1849.002      606.482        0.797        0.301       99.287       17.587        0.031      345.587       23.224      864.382
08/16/2013  10:01:00       17.408       30.699       39.661       36.301       39.792       28.400     1317.751     1583.415      806.541        0.326        0.185       35.291       16.760        0.226      346.273       24.401      864.383
08/16/2013  10:02:00       60.047       65.017       20.834       40.596       46.287       34.076     1648.066     2142.489     1161.197        0.661        0.248       88.503       22.162        0.063      345.252       22.650      864.380
08/16/2013  10:03:00       -9.822      -17.548       12.189       38.143       34.883       21.865     1454.885     1216.806      478.078        0.185        0.157       20.109       10.170        0.256      345.684       23.390      864.370
08/16/2013  10:04:00       13.516       24.326       51.754       34.448       60.980       29.060     1186.679     3718.522      844.489        0.460        0.287       27.829       26.958        0.938      345.837       23.654      864.367
08/16/2013  10:05:00       30.305       30.209       51.258       38.950       53.697       31.357     1517.114     2883.398      983.249        0.492        0.269       42.790       13.082        0.093      346.038       23.999      864.362
08/16/2013  10:06:00       60.436      -72.956       21.468       46.514       56.803       36.830     2163.567     3226.608     1356.481        0.809        0.337       94.737       39.539        0.174      345.880       23.728      864.366
08/16/2013  10:07:00       26.441       11.860       33.559       52.024       54.335       39.562     2706.540     2952.300     1565.150        0.459        0.361       28.979       43.384        2.241      345.799       23.590      864.350
08/16/2013  10:08:00       13.504        8.710        0.747       28.309       20.000       27.153      801.384      399.980      737.307        0.110        0.097       16.069       12.339        0.590      345.927       23.808      864.348
08/16/2013  10:09:00       26.506       30.001       22.809       44.450       35.680       25.246     1975.812     1273.042      637.337        0.300        0.194       40.033       27.291        0.465      346.074       24.061      864.347
08/16/2013  10:10:00      161.237      108.627       30.271       45.513       50.761       30.909     2071.397     2576.698      955.357        2.216        0.280      194.416       24.979        0.017      345.716       23.443      864.350
08/16/2013  10:11:00       67.317       58.767       19.044       63.338       31.766       39.700     4011.695     1009.057     1576.073        0.747        0.330       89.360       37.531        0.176      345.797       23.584      864.364
08/16/2013  10:12:00       94.146       87.121       45.508       29.864       32.209       30.863      891.874     1037.426      952.543        1.070        0.144      128.272       16.646        0.017      345.515       23.100      864.365
08/16/2013  10:13:00       17.853       23.288       31.830       27.179       28.564       23.385      738.700      815.919      546.845        0.199        0.105       29.344       18.426        0.394      346.051       24.021      864.378
08/16/2013  10:14:00       43.864       27.683       39.028       41.562       26.241       35.641     1727.385      688.569     1270.304        0.395        0.184       51.869       18.362        0.125      345.863       23.699      864.371
08/16/2013  10:15:00       67.808       55.401       15.264       55.465       33.759       31.270     3076.329     1139.652      977.805        0.655        0.260       87.563       25.826        0.087      346.231       24.329      864.362
08/16/2013  10:16:00      115.729       69.465       13.023       60.815       43.745       37.854     3698.494     1913.614     1432.923        1.272        0.352      134.976       29.564        0.048      346.126       24.149      864.357
08/16/2013  10:17:00       63.850       65.133       -6.163       35.927       32.936       34.972     1290.751     1084.748     1223.071        0.598        0.180       91.209       19.242        0.045      346.146       24.184      864.337
08/16/2013  10:18:00       53.939        4.070       45.832       41.921       63.089       35.768     1757.403     3980.228     1279.346        0.602        0.351       54.093       16.723        0.096      346.701       25.138      864.329
08/16/2013  10:19:00       72.105       20.322       42.865       65.518       50.772       41.354     4292.547     2577.818     1710.123        0.801        0.429       74.914       33.797        0.204      346.579       24.928      864.322
08/16/2013  10:20:00       70.852      -58.535        5.200       33.793       48.369       35.117     1141.960     2339.588     1233.227        0.659        0.236       91.904       13.776        0.022      346.060       24.037      864.332
08/16/2013  10:21:00       43.945        3.160       14.713       30.846       29.021       35.385      951.451      842.224     1252.118        0.260        0.152       44.058       15.114        0.118      346.364       24.558      864.328
08/16/2013  10:22:00       14.728        8.601       16.356       23.557       31.373       22.808      554.927      984.246      520.205        0.131        0.103       17.056       13.527        0.629      346.417       24.651      864.324
08/16/2013  10:23:00      -43.993      -10.348       -2.621       19.820       27.664       13.800      392.825      765.287      190.445        0.170        0.067       45.194       14.474        0.103      346.182       24.248      864.324
08/16/2013  10:24:00      -62.486       16.062       -4.801       24.276       19.052       15.620      589.329      362.991      243.993        0.269        0.060       64.517       11.678        0.033      346.152       24.195      864.310
08/16/2013  10:25:00      -10.071       -2.578       -6.632       11.129        9.741        8.482      123.859       94.891       71.941        0.022        0.015       10.396        4.953        0.227      346.485       24.767      864.295
08/16/2013  10:26:00        9.538       28.156        4.868       42.252       36.711       31.150     1785.191     1347.725      970.300        0.250        0.205       29.728       12.096        0.166      347.003       25.660      864.281
08/16/2013  10:27:00      126.902       83.983       18.773       53.630       45.043       48.075     2876.162     2028.911     2311.231        1.536        0.361      152.175       37.093        0.059      346.490       24.776      864.285
08/16/2013  10:28:00      122.122       77.706       16.274       41.831       31.969       35.618     1749.848     1021.987     1268.643        1.263        0.202      144.748       21.681        0.022      346.295       24.440      864.280
08/16/2013  10:29:00       66.508      100.022       -2.035       59.456       35.707       26.163     3535.050     1274.988      684.482        0.996        0.275      120.115       11.554        0.009      346.253       24.368      864.286
08/16/2013  10:30:00       51.770       93.054        0.103       54.162       34.922       27.747     2933.533     1219.515      769.892        0.813        0.246      106.485       15.089        0.020      346.659       25.065      864.288
08/16/2013  10:31:00      117.201       92.399       44.877       38.830       29.371       47.488     1507.758      862.641     2255.076        1.446        0.231      149.244       27.640        0.034      346.403       24.624      864.286
08/16/2013  10:32:00       56.383      110.628        2.403       63.624       45.349       29.279     4048.063     2056.498      857.237        1.119        0.348      124.168       23.149        0.035      346.473       24.745      864.283
08/16/2013  10:33:00        3.945       99.034       -6.148       40.499       35.192       31.941     1640.170     1238.464     1020.217        0.688        0.195       99.113       16.478        0.028      346.630       25.016      864.273
08/16/2013  10:34:00      -24.877       81.045       10.279       32.549       46.233       31.228     1059.408     2137.530      975.197        0.573        0.209       84.777       25.695        0.092      347.004       25.659      864.267
08/16/2013  10:35:00      -35.959       44.586       -5.158       27.682       32.118       18.984      766.300     1031.558      360.395        0.273        0.108       57.280       18.613        0.106      346.789       25.288      864.256
08/16/2013  10:36:00       -0.224       42.452      -10.893       34.381       36.560       24.313     1182.050     1336.641      591.110        0.251        0.155       42.452       18.409        0.188      346.579       24.929      864.253
08/16/2013  10:37:00      -13.429       -4.164       -5.448       13.983       19.840       20.065      195.514      393.614      402.607        0.061        0.050       14.060       13.396        0.908      346.562       24.899      864.247
08/16/2013  10:38:00      -11.022       -2.275      -10.443       12.247        9.993        8.401      149.994       99.855       70.578        0.028        0.016       11.254        8.383        0.555      346.665       25.075      864.241
08/16/2013  10:39:00      -15.273      -14.240      -16.025       14.392       10.734        9.802      207.140      115.216       96.083        0.056        0.021       20.882        5.968        0.082      346.777       25.267      864.226
08/16/2013  10:40:00       -6.994      -36.601        1.831       13.594       14.964       18.517      184.807      223.910      342.894        0.107        0.038       37.263        8.506        0.052      346.515       24.817      864.225
08/16/2013  10:41:00      -12.626        9.279        0.487       16.966       22.593       27.290      287.859      510.433      744.752        0.089        0.077       15.669       12.889        0.677      346.986       25.630      864.217
08/16/2013  10:42:00      -16.789        2.743       26.139       16.433       11.667       17.611      270.052      136.108      310.153        0.084        0.036       17.011       12.777        0.564      347.412       26.363      864.213
08/16/2013  10:43:00      -25.629       10.622       28.468       14.748       20.296       23.819      217.492      411.908      567.322        0.139        0.060       27.743       16.647        0.360      347.397       26.337      864.226
08/16/2013  10:44:00       12.388       31.646       23.773       37.050       34.865       22.567     1372.694     1215.586      509.248        0.241        0.155       33.984       20.000        0.346      347.197       25.991      864.220
08/16/2013  10:45:00       23.082       58.992        3.078       28.925       36.573       28.695      836.657     1337.588      823.429        0.351        0.150       63.347       25.963        0.168      347.353       26.262      864.218
08/16/2013  10:46:00      112.559       70.477       18.778       40.428       40.380       38.861     1634.438     1630.572     1510.149        1.138        0.239      132.803       26.440        0.040      347.056       25.750      864.216
08/16/2013  10:47:00       90.310       73.785       -8.518       59.282       29.449       31.457     3514.403      867.239      989.559        0.952        0.269      116.619       25.360        0.047      346.679       25.100      864.218
08/16/2013  10:48:00       89.929       48.832       18.799       40.856       42.680       28.582     1669.213     1821.583      816.950        0.757        0.215      102.332       16.264        0.025      347.090       25.807      864.202
08/16/2013  10:49:00       17.954      -15.349       27.386       32.303       60.295       31.820     1043.508     3635.432     1012.534        0.350        0.285       23.621       20.345        0.742      347.476       26.474      864.202
08/16/2013  10:50:00        7.208       46.741       66.442       31.383       39.441       29.478      984.875     1555.572      868.943        0.503        0.170       47.294       23.630        0.250      347.467       26.457      864.206
08/16/2013  10:51:00       52.930       58.630       78.631       86.397       55.103       55.050     7464.497     3036.304     3030.494        1.297        0.677       78.988       53.955        0.467      347.317       26.197      864.214
08/16/2013  10:52:00       38.021       -7.174       67.789       59.190       82.880       44.089     3503.502     6869.090     1943.869        0.920        0.616       38.692       47.785        1.525      347.129       25.875      864.212
08/16/2013  10:53:00       31.983       40.622       38.807       67.113       57.162       51.370     4504.218     3267.541     2638.884        0.729        0.521       51.702       29.962        0.336      347.326       26.215      864.223
08/16/2013  10:54:00       44.183       98.474        1.315       35.576       55.494       33.829     1265.647     3079.530     1144.369        0.857        0.274      107.932       23.881        0.049      347.138       25.891      864.229
08/16/2013  10:55:00       36.442       52.134        7.205       43.110       37.471       29.453     1858.488     1404.061      867.494        0.411        0.207       63.608       16.489        0.067      346.910       25.496      864.227
08/16/2013  10:56:00      -29.363       10.916       -3.836       23.571       29.995       17.768      555.587      899.706      315.697        0.138        0.089       31.326        8.424        0.072      347.228       26.046      864.220
08/16/2013  10:57:00      -49.301       45.951      -20.109       21.643       32.516       22.664      468.407     1057.302      513.653        0.349        0.102       67.395       18.129        0.072      346.933       25.536      864.213
08/16/2013  10:58:00        4.059       10.035       11.965       54.614       73.775       27.539     2982.718     5442.725      758.414        0.472        0.459       10.824       25.857        5.706      347.132       25.881      864.211
08/16/2013  10:59:00       -6.560      105.280        2.182       34.655       75.869       29.689     1200.975     5756.148      881.450        0.948        0.392      105.484       35.905        0.116      347.405       26.351      864.201
08/16/2013  11:00:00       86.603       66.223        5.500       31.103       30.273       39.423      967.402      916.431     1554.142        0.768        0.172      109.021       26.008        0.057      347.313       26.194      864.193
08/16/2013  11:01:00       34.256      108.959       -2.855       59.975       64.516       35.683     3596.945     4162.304     1273.297        1.104        0.452      114.217       42.255        0.137      347.120       25.860      864.170
08/16/2013  11:02:00       30.530       89.798        1.064       50.176       57.642       40.136     2517.584     3322.579     1610.911        0.822        0.373       94.846       38.242        0.163      347.611       26.707      864.169
08/16/2013  11:03:00       60.558       61.269      -12.053       58.637       54.466       33.555     3438.267     2966.559     1125.916        0.755        0.377       86.146       30.327        0.124      347.336       26.232      864.162
08/16/2013  11:04:00       44.676       64.456       10.008       43.930       34.462       29.749     1929.810     1187.638      885.022        0.513        0.200       78.426       10.424        0.018      347.383       26.314      864.163
08/16/2013  11:05:00       68.651       58.577        4.095       27.712       37.251       31.104      767.935     1387.627      967.486        0.564        0.156       90.245       18.663        0.043      347.234       26.056      864.148
08/16/2013  11:06:00       44.408       19.062       13.136       37.407       27.313       23.258     1399.265      745.980      540.937        0.260        0.134       48.327       22.366        0.214      347.421       26.377      864.146
08/16/2013  11:07:00       65.127       26.169       11.616       49.269       31.659       31.595     2427.399     1002.299      998.223        0.474        0.221       70.188       19.572        0.078      347.457       26.440      864.133
08/16/2013  11:08:00      114.053       71.182       10.356       36.190       41.195       34.840     1309.685     1697.048     1213.794        1.120        0.211      134.443       17.088        0.016      347.340       26.239      864.124
08/16/2013  11:09:00       70.722       59.163       13.685       39.926       22.897       30.023     1594.073      524.287      901.381        0.585        0.151       92.206       19.650        0.045      347.425       26.386      864.125
08/16/2013  11:10:00        5.245        9.250       49.106       24.604       38.559       20.476      605.381     1486.797      419.285        0.252        0.126       10.634        9.400        0.781      347.880       27.169      864.109
08/16/2013  11:11:00       -5.522       30.925       32.913       25.563       28.192       22.828      653.458      794.807      521.127        0.202        0.098       31.414       17.427        0.308      347.745       26.937      864.106
08/16/2013  11:12:00       -8.577       50.080        7.171       28.885       25.112       23.176      834.330      630.629      537.147        0.232        0.100       50.810       15.812        0.097      347.927       27.252      864.104
08/16/2013  11:13:00        1.275       69.007        2.236       29.248       57.220       24.815      855.438     3274.168      615.764        0.476        0.237       69.019       22.828        0.109      347.878       27.166      864.100
08/16/2013  11:14:00       33.571       79.104        2.722       36.447       57.298       27.250     1328.381     3283.096      742.549        0.637        0.268       85.933       31.558        0.135      347.798       27.027      864.098
08/16/2013  11:15:00       18.503      112.056       -2.682       27.567       72.555       36.885      759.938     5264.289     1360.480        1.014        0.369      113.573       40.187        0.125      347.751       26.948      864.086
08/16/2013  11:16:00       -1.849       55.551        6.031       32.589       47.770       30.288     1062.015     2281.973      917.345        0.369        0.213       55.582       26.616        0.229      347.909       27.220      864.091
08/16/2013  11:17:00      -10.690       46.604       14.594       28.230       26.058       27.059      796.944      679.042      732.181        0.235        0.110       47.814       16.787        0.123      348.237       27.788      864.084
08/16/2013  11:18:00       -5.124       20.258       19.972       19.615       31.862       26.353      384.734     1015.158      694.503        0.146        0.105       20.896       10.399        0.248      348.559       28.345      864.077
08/16/2013  11:19:00      -24.024       18.006       21.094       22.043       19.141       18.544      485.890      366.369      343.870        0.127        0.060       30.022       14.291        0.227      348.259       27.826      864.077
08/16/2013  11:20:00       -5.971        9.285       18.552       23.491       18.643       21.515      551.819      347.546      462.888        0.091        0.068       11.039       11.471        1.080      348.439       28.136      864.072
08/16/2013  11:21:00        4.524       37.545       28.553       31.316       45.494       31.138      980.673     2069.729      969.564        0.313        0.201       37.817       27.890        0.544      348.364       28.007      864.074
08/16/2013  11:22:00       29.475       10.126       21.899       21.045       23.466       28.916      442.911      550.676      836.154        0.164        0.091       31.166       12.947        0.173      348.415       28.095      864.071
08/16/2013  11:23:00       49.478       28.607       40.614       72.578       50.835       51.268     5267.529     2584.225     2628.458        0.770        0.524       57.153       13.991        0.060      348.117       27.580      864.063
08/16/2013  11:24:00       57.695       64.946       64.590       57.936       37.511       43.386     3356.637     1407.107     1882.311        0.918        0.332       86.872       27.723        0.102      347.810       27.048      864.064
08/16/2013  11:25:00       86.523       90.503       63.501       80.158       64.709       75.905     6425.310     4187.240     5761.641        1.804        0.819      125.208       58.061        0.215      347.735       26.919      864.054
08/16/2013  11:26:00      135.237       75.950       47.311       71.852       55.218       42.998     5162.763     3048.990     1848.825        1.818        0.503      155.105       30.721        0.039      347.708       26.872      864.048
08/16/2013  11:27:00       62.489       31.963       15.030       53.539       59.682       39.896     2866.429     3561.964     1591.707        0.658        0.401       70.189       20.904        0.089      348.018       27.407      864.038
08/16/2013  11:28:00      160.154       96.537       19.846       69.212       47.272       45.742     4790.358     2234.619     2092.298        2.224        0.456      186.999       21.974        0.014      347.736       26.919      864.031
08/16/2013  11:29:00      114.248       62.867       21.846       54.342       48.332       43.918     2953.065     2335.977     1928.772        1.235        0.361      130.403       16.281        0.016      347.767       26.975      864.030
08/16/2013  11:30:00      118.725       94.613       45.048       71.610       41.514       50.192     5128.057     1723.411     2519.193        1.722        0.469      151.813       35.677        0.055      347.985       27.350      864.020
08/16/2013  11:31:00      136.224      114.239       72.166       82.190       59.975       51.924     6755.262     3596.972     2696.077        2.493        0.652      177.784       49.332        0.077      348.056       27.471      864.025
08/16/2013  11:32:00       88.271       60.260       76.310       65.463       68.656       59.942     4285.462     4713.665     3593.074        1.492        0.630      106.879       49.200        0.212      348.133       27.605      864.016
08/16/2013  11:33:00      111.253      106.854      118.753       88.666       74.469       62.768     7861.677     5545.602     3939.769        2.762        0.867      154.257       51.548        0.112      347.740       26.925      864.023
08/16/2013  11:34:00       86.649       60.852       77.092       57.011       61.737       45.628     3250.293     3811.479     2081.897        1.315        0.457      105.882       31.267        0.087      347.830       27.083      864.026
08/16/2013  11:35:00      136.360      119.886      106.644       67.439       58.576       59.199     4547.982     3431.140     3504.508        2.791        0.574      181.567       45.851        0.064      347.660       26.788      864.029
08/16/2013  11:36:00      112.688       88.336       32.633       49.989       42.138       50.336     2498.921     1775.571     2533.678        1.419        0.340      143.184       37.058        0.067      347.612       26.706      864.024
08/16/2013  11:37:00      131.358       49.706       -1.948       70.310       39.942       42.874     4943.502     1595.331     1838.181        1.405        0.419      140.448       29.872        0.045      347.688       26.837      864.030
08/16/2013  11:38:00      115.822       93.007       73.937      108.676       61.835       54.990    11810.386     3823.579     3023.854        2.309        0.933      148.543       56.052        0.142      348.083       27.519      864.011
08/16/2013  11:39:00       45.022       39.142       22.833       83.081       66.462       45.075     6902.507     4417.147     2031.761        0.871        0.668       59.658       24.845        0.173      348.296       27.888      864.006
08/16/2013  11:40:00      -47.024       -2.375        1.304       64.813       48.592       34.735     4200.707     2361.161     1206.545        0.499        0.388       47.084       35.139        0.557      348.279       27.859      864.013
08/16/2013  11:41:00     -104.175      -79.478        2.501       52.500       56.970       35.978     2756.199     3245.612     1294.431        1.223        0.365      131.031       28.331        0.047      347.921       27.240      864.004
08/16/2013  11:42:00       18.475      -52.866       12.078       58.624       40.776       31.086     3436.822     1662.720      966.353        0.467        0.303       56.001       17.120        0.093      348.152       27.639      864.006
08/16/2013  11:43:00       64.595     -113.155        9.839       82.665       75.769       45.845     6833.535     5740.873     2101.738        1.587        0.734      130.294       41.462        0.101      348.104       27.556      864.004
08/16/2013  11:44:00      107.541      -74.397       15.249       44.834       56.894       41.746     2010.119     3236.964     1742.718        1.216        0.349      130.767       38.518        0.087      347.837       27.096      864.020
08/16/2013  11:45:00       65.713       34.606       85.478       68.444       55.942       58.451     4684.626     3129.490     3416.463        1.202        0.562       74.268       57.604        0.602      348.255       27.818      863.999
08/16/2013  11:46:00       87.028       59.373       38.500       32.891       36.925       31.938     1081.819     1363.480     1020.014        0.802        0.173      105.352       28.848        0.075      347.778       26.993      863.989
08/16/2013  11:47:00      114.168       58.122        3.634       46.139       32.639       32.168     2128.770     1065.306     1034.778        1.033        0.211      128.111       24.748        0.037      347.982       27.346      863.977
08/16/2013  11:48:00       43.020       56.631       38.577       42.130       54.371       45.600     1774.917     2956.169     2079.331        0.668        0.341       71.118       25.616        0.130      348.306       27.906      863.965
08/16/2013  11:49:00       83.535       64.066       -0.131       40.958       39.771       37.756     1677.528     1581.722     1425.530        0.788        0.234      105.273       31.352        0.089      347.902       27.208      863.950
08/16/2013  11:50:00       51.372       50.465       -7.738       39.845       30.951       37.134     1587.637      957.995     1378.950        0.458        0.196       72.012        4.610        0.004      348.087       27.528      863.944
08/16/2013  11:51:00       22.183        4.020       15.812       38.212       52.811       30.232     1460.145     2789.013      913.987        0.296        0.258       22.545       17.595        0.609      348.347       27.977      863.950
08/16/2013  11:52:00       17.380       -3.629       41.679       41.245       62.081       37.285     1701.187     3854.005     1390.169        0.450        0.347       17.755       24.409        1.890      348.258       27.823      863.936
08/16/2013  11:53:00      -37.325      -83.711       -1.805       50.782       48.729       31.609     2578.776     2374.533      999.137        0.718        0.298       91.655       22.321        0.059      348.351       27.984      863.934
08/16/2013  11:54:00       31.028     -108.026      -35.075       58.032       68.675       40.570     3367.668     4716.256     1645.929        1.179        0.486      112.393       30.407        0.073      348.369       28.013      863.945
08/16/2013  11:55:00       37.688      -87.068      -11.734       70.431       72.064       51.082     4960.586     5193.151     2609.349        1.095        0.638       94.875       50.540        0.284      348.136       27.612      863.950
08/16/2013  11:56:00       47.483      -33.162        1.307       50.608       30.398       30.312     2561.219      924.023      918.791        0.388        0.220       57.916       23.614        0.166      347.917       27.235      863.940
08/16/2013  11:57:00       59.445       18.705       24.565       35.174       34.767       30.410     1237.222     1208.716      924.739        0.393        0.169       62.318       28.673        0.212      348.035       27.437      863.940
08/16/2013  11:58:00       95.867       49.709        3.666       43.875       31.943       31.489     1925.020     1020.358      991.552        0.781        0.197      107.988       27.816        0.066      347.715       26.885      863.919
08/16/2013  11:59:00       82.983       40.851       27.679       42.396       51.891       43.672     1797.398     2692.636     1907.286        0.786        0.320       92.493       24.780        0.072      348.067       27.493      863.901
08/16/2013  12:00:00       64.345      -22.195       33.513       47.776       52.998       45.980     2282.531     2808.833     2114.198        0.648        0.360       68.065       38.291        0.316      348.341       27.967      863.915
08/16/2013  12:01:00      -43.799     -130.996        8.193       54.767      103.033       51.512     2999.398    10615.874     2653.444        1.770        0.813      138.125       44.841        0.105      348.266       27.836      863.904
08/16/2013  12:02:00     -109.107      -90.950      -10.717       83.881       62.611       33.182     7035.987     3920.112     1101.052        1.617        0.603      142.043       29.197        0.042      348.057       27.475      863.889
08/16/2013  12:03:00      -71.572      -95.803       13.689       64.397       74.803       38.834     4147.012     5595.547     1508.067        1.287        0.563      119.586       38.969        0.106      348.314       27.919      863.859
08/16/2013  12:04:00       20.818     -117.984      -22.744       58.121       48.730       32.254     3378.019     2374.619     1040.324        1.083        0.340      119.807       21.715        0.033      348.307       27.908      863.860
08/16/2013  12:05:00       43.772     -115.557       -3.811       84.143       87.594       69.560     7080.063     7672.793     4838.652        1.743        0.980      123.569       46.842        0.144      348.459       28.169      863.842
08/16/2013  12:06:00      114.580     -112.434        5.186      115.180      149.424       85.360    13266.435    22327.532     7286.298        3.433        2.144      160.531      103.615        0.417      348.594       28.404      863.824
08/16/2013  12:07:00       21.457       39.302       98.069       50.913       61.232       44.057     2592.159     3749.413     1941.055        0.995        0.414       44.778       24.250        0.293      348.992       29.093      863.835
08/16/2013  12:08:00       53.345       71.403       81.673       54.563       72.267       40.316     2977.146     5222.519     1625.379        1.222        0.491       89.130       41.530        0.217      348.564       28.352      863.816
08/16/2013  12:09:00      146.414       79.833       36.218       59.067       44.186       48.466     3488.884     1952.384     2348.913        1.845        0.390      166.765       29.809        0.032      348.341       27.965      863.799
08/16/2013  12:10:00       34.540       39.497       39.838       48.851       46.338       32.810     2386.404     2147.255     1076.518        0.497        0.281       52.469       13.558        0.067      348.766       28.702      863.795
08/16/2013  12:11:00        4.945       34.564       52.508       26.381       36.330       21.945      695.945     1319.896      481.572        0.324        0.125       34.916       13.928        0.159      348.841       28.833      863.786
08/16/2013  12:12:00       46.588      -11.936       11.399       47.721       46.436       28.268     2277.330     2156.266      799.079        0.384        0.262       48.093       33.783        0.493      348.471       28.192      863.777
08/16/2013  12:13:00       49.055      -97.361       -6.208       69.119       88.945       40.995     4777.390     7911.189     1680.574        1.314        0.718      109.021       48.569        0.198      348.461       28.173      863.771
08/16/2013  12:14:00       -1.043      -80.310        7.511       59.725       78.300       41.498     3567.090     6130.897     1722.051        0.896        0.571       80.317       43.266        0.290      348.582       28.383      863.743
08/16/2013  12:15:00       66.338     -140.586       -5.006       86.348      135.409       54.802     7455.999    18335.657     3003.263        2.649        1.440      155.451       60.573        0.152      348.661       28.518      863.742
08/16/2013  12:16:00       81.820      -48.279       35.469       64.839      101.840       55.626     4204.039    10371.296     3094.267        1.397        0.883       95.002       69.168        0.530      348.480       28.205      863.729
08/16/2013  12:17:00       27.021       43.377      110.256       72.812       75.416       53.798     5301.619     5687.606     2894.261        1.432        0.694       51.105       49.753        0.948      348.710       28.606      863.703
08/16/2013  12:18:00       65.932      -60.566       54.503       83.279      124.353       74.895     6935.388    15463.546     5609.264        1.949        1.400       89.528       71.341        0.635      348.704       28.594      863.681
08/16/2013  12:19:00       52.148      -32.348       28.893       82.836      108.431       61.085     6861.825    11757.321     3731.410        1.347        1.118       61.366       68.095        1.231      348.738       28.653      863.703
08/16/2013  12:20:00       -6.060       32.668       86.334       28.399       62.287       48.626      806.498     3879.694     2364.458        0.780        0.353       33.225       41.079        1.529      348.985       29.082      863.689
08/16/2013  12:21:00       40.198       33.026       68.529       49.458       79.019       48.620     2446.137     6243.941     2363.868        0.923        0.553       52.026       55.672        1.145      348.505       28.249      863.684
08/16/2013  12:22:00       32.121      -21.921       25.456       38.890       41.696       37.551     1512.440     1738.548     1410.047        0.341        0.233       38.888       35.765        0.846      348.838       28.828      863.666
08/16/2013  12:23:00        9.753      -15.500       44.891       37.466       47.077       37.706     1403.672     2216.255     1421.773        0.370        0.252       18.313       33.073        3.262      349.131       29.334      863.661
08/16/2013  12:24:00       73.044       97.463      111.711       83.712       63.372       44.639     7007.777     4015.990     1992.606        2.016        0.651      121.797       44.914        0.136      348.423       28.107      863.665
08/16/2013  12:25:00       30.730       45.671       81.173       70.067       95.445       75.051     4909.349     9109.702     5632.670        1.463        0.983       55.047       71.645        1.694      348.209       27.737      863.655
08/16/2013  12:26:00       17.664      -62.854        7.125       49.022       53.363       33.204     2403.145     2847.639     1102.531        0.533        0.318       65.289       36.577        0.314      348.583       28.385      863.645
08/16/2013  12:27:00       54.073      -40.215       49.121       78.737      130.204       69.455     6199.463    16953.060     4824.023        1.746        1.399       67.388       85.387        1.606      348.945       29.010      863.635
08/16/2013  12:28:00      109.943     -151.461      -19.806       51.238       76.423       38.863     2625.295     5840.424     1510.345        2.270        0.499      187.157       41.287        0.049      348.407       28.078      863.634
08/16/2013  12:29:00       10.367     -118.520       -5.902       95.876       81.337       49.155     9192.179     6615.652     2416.246        1.620        0.911      118.972       32.641        0.075      348.647       28.495      863.610
08/16/2013  12:30:00      -17.112      -42.594       16.804       41.752       79.538       36.309     1743.214     6326.281     1318.346        0.589        0.469       45.903       20.132        0.192      349.215       29.481      863.590
08/16/2013  12:31:00        0.084      -37.353       33.277       47.195       45.592       31.412     2227.367     2078.598      986.737        0.390        0.265       37.353       28.411        0.579      349.265       29.566      863.579
08/16/2013  12:32:00       -2.531        7.200       34.001       29.869       27.406       23.593      892.180      751.090      556.642        0.171        0.110        7.632       15.772        4.271      349.152       29.370      863.571
08/16/2013  12:33:00       -2.898       -9.145       27.952       21.676       39.409       17.936      469.850     1553.090      321.702        0.161        0.117        9.593       20.283        4.470      349.585       30.122      863.548
08/16/2013  12:34:00       87.851      -67.278       48.153      108.189      158.971      110.273    11704.946    25271.890    12160.190        3.184        2.457      110.653      108.287        0.958      348.988       29.085      863.512
08/16/2013  12:35:00      167.062     -166.994      -17.122      110.565      121.017      102.316    12224.536    14645.142    10468.593        4.671        1.867      236.214      101.180        0.183      348.696       28.578      863.496
08/16/2013  12:36:00      105.475     -134.713      -17.579       92.548      142.379       76.925     8565.224    20271.869     5917.469        3.216        1.738      171.093       83.960        0.241      348.772       28.710      863.494
08/16/2013  12:37:00       95.515     -150.479       -9.052       65.476      101.765       59.059     4287.080    10356.138     3487.957        2.499        0.907      178.233       65.168        0.134      348.701       28.587      863.498
08/16/2013  12:38:00       71.563     -106.490        9.804       53.096      102.531       48.106     2819.181    10512.518     2314.229        1.610        0.782      128.302       62.289        0.236      348.886       28.909      863.500
08/16/2013  12:39:00        8.578      -62.249       25.845       35.844       80.027       47.360     1284.802     6404.287     2242.959        0.727        0.497       62.838       43.713        0.484      349.148       29.364      863.497
08/16/2013  12:40:00       14.138       12.500       45.845       28.277       36.800       28.827      799.604     1354.233      830.981        0.272        0.149       18.872       12.977        0.473      349.159       29.383      863.476
08/16/2013  12:41:00       50.720       43.295       29.303       37.557       25.935       24.459     1410.529      672.634      598.218        0.399        0.134       66.686       19.119        0.082      348.812       28.780      863.457
08/16/2013  12:42:00       27.852       70.274        4.704       48.630       56.791       32.470     2364.872     3225.239     1054.318        0.619        0.332       75.592       26.792        0.126      348.836       28.823      863.440
08/16/2013  12:43:00       71.656       26.869       32.469       25.299       19.142       24.677      640.053      366.400      608.940        0.426        0.081       76.528       10.126        0.018      348.784       28.733      863.412
08/16/2013  12:44:00       47.162       26.386        9.947       29.692       28.447       23.228      881.608      809.258      539.547        0.262        0.112       54.041       15.658        0.084      348.858       28.862      863.401
08/16/2013  12:45:00        8.718       39.475       11.270       31.020       29.601       31.250      962.251      876.194      976.579        0.229        0.141       40.426       15.742        0.152      348.794       28.752      863.376
08/16/2013  12:46:00       64.330       73.412        0.598       43.368       53.592       34.138     1880.780     2872.154     1165.371        0.772        0.296       97.610       31.896        0.107      348.785       28.734      863.373
08/16/2013  12:47:00       73.613       45.645        0.106       47.744       45.180       24.768     2279.448     2041.225      613.450        0.622        0.247       86.617       18.099        0.044      348.782       28.730      863.383
08/16/2013  12:48:00       -2.036      132.288      -10.600       33.848       61.754       26.470     1145.704     3813.529      700.685        1.164        0.283      132.303       30.316        0.053      348.899       28.933      863.378
08/16/2013  12:49:00      -72.197       82.396      -12.272       41.089       43.696       29.495     1688.329     1909.319      869.946        0.831        0.223      109.551       24.059        0.048      348.808       28.775      863.378
08/16/2013  12:50:00      -78.037      130.056      -19.791       84.805       65.070       35.073     7191.914     4234.104     1230.142        1.802        0.633      151.672       24.767        0.027      348.794       28.750      863.387
08/16/2013  12:51:00      -53.957       66.571      -14.343       49.149       52.546       36.245     2415.617     2761.134     1313.727        0.702        0.325       85.691       32.488        0.144      349.155       29.377      863.392
08/16/2013  12:52:00      -86.707       10.691        5.183       69.376       22.926       36.639     4812.975      525.601     1342.420        0.717        0.334       87.363       41.045        0.221      349.177       29.413      863.399
08/16/2013  12:53:00       -1.374        5.849       40.415       26.729       27.895       28.185      714.427      778.123      794.418        0.198        0.114        6.008       21.100       12.333      349.586       30.125      863.374
08/16/2013  12:54:00      -63.275       -9.717       21.319       77.694       49.930       46.019     6036.406     2493.000     2117.741        0.760        0.532       64.017       51.018        0.635      348.998       29.104      863.331
08/16/2013  12:55:00     -112.330      -36.261        4.563       93.254       45.036       28.134     8696.304     2028.275      791.527        1.273        0.576      118.038       39.461        0.112      349.628       30.195      863.369
08/16/2013  12:56:00        3.667      -58.842       43.380       83.848       70.239       57.258     7030.432     4933.555     3278.451        1.030        0.762       58.956       53.922        0.837      349.677       30.280      863.363
08/16/2013  12:57:00      -42.386      110.709       10.518       73.437       78.012       72.014     5392.995     6085.856     5186.056        1.541        0.833      118.546       55.734        0.221      349.959       30.769      863.355
08/16/2013  12:58:00      -20.769       26.876       30.454       52.022       49.579       34.761     2706.279     2458.084     1208.322        0.423        0.319       33.966       24.699        0.529      349.994       30.831      863.382
08/16/2013  12:59:00      -72.632      -70.899        7.135      107.093       51.581       37.847    11468.972     2660.619     1432.423        1.295        0.778      101.500       39.887        0.154      349.419       29.833      863.364
08/16/2013  13:00:00     -222.377     -115.464        8.916      108.481      102.002       52.129    11768.200    10404.449     2717.468        4.387        1.245      250.566       43.623        0.030      349.192       29.436      863.337
08/16/2013  13:01:00     -241.006      -62.236        1.870      116.226      140.620       48.850    13508.435    19774.051     2386.318        4.881        1.783      248.912       54.656        0.048      348.855       28.853      863.334
08/16/2013  13:02:00     -220.837     -177.945       -4.623      140.095      172.711       57.561    19626.596    29829.068     3313.326        6.660        2.638      283.608       56.899        0.040      348.961       29.036      863.311
08/16/2013  13:03:00     -172.342     -170.769       -5.473      113.684      101.629       69.592    12923.948    10328.478     4843.078        4.349        1.405      242.619       67.295        0.077      349.014       29.128      863.285
08/16/2013  13:04:00     -192.709      -59.845       -1.660      120.778      121.948       50.798    14587.366    14871.304     2580.459        3.637        1.602      201.788       50.350        0.062      349.305       29.632      863.280
08/16/2013  13:05:00      -88.683       40.598       20.326      115.175       65.160       51.219    13265.284     4245.820     2623.384        1.503        1.007       97.534       51.786        0.282      349.488       29.952      863.284
08/16/2013  13:06:00     -140.252     -119.867        3.808      167.078      121.113       59.272    27914.945    14668.325     3513.177        4.007        2.305      184.496       63.460        0.118      349.255       29.546      863.292
08/16/2013  13:07:00     -240.158     -194.069       -8.959      118.726       78.158       58.072    14095.857     6108.668     3372.309        5.949        1.179      308.770       66.029        0.046      348.998       29.099      863.306
08/16/2013  13:08:00     -114.254       -6.948        4.311       79.200       77.491       35.830     6272.565     6004.783     1283.779        1.334        0.678      114.465       48.649        0.181      349.036       29.168      863.258
08/16/2013  13:09:00      -46.762       10.050      -20.016       44.704       50.483       35.070     1998.483     2548.561     1229.886        0.423        0.289       47.830       31.996        0.448      349.200       29.453      863.207
08/16/2013  13:10:00     -128.346      -79.150        1.220       82.508       53.359       35.193     6807.517     2847.234     1238.557        1.681        0.545      150.790       39.595        0.069      349.138       29.346      863.222
08/16/2013  13:11:00     -105.440     -106.033       -6.012       84.405       69.248       41.077     7124.211     4795.332     1687.291        1.800        0.680      149.535       48.902        0.107      349.134       29.336      863.218
08/16/2013  13:12:00      -22.412      -69.951       17.648       57.612       71.589       37.652     3319.177     5125.048     1417.645        0.778        0.493       73.453       28.051        0.146      349.236       29.517      863.165
08/16/2013  13:13:00     -131.194      -71.743       -0.557      114.604       73.609       44.364    13134.015     5418.309     1968.142        2.144        1.026      149.529       40.092        0.072      349.449       29.884      863.188
08/16/2013  13:14:00     -340.427      -49.191      -12.758      206.509      188.151       77.583    42645.935    35400.950     6019.149       10.126        4.203      343.963       90.246        0.069      349.352       29.712      863.186
08/16/2013  13:15:00     -353.356      -17.933       -1.391      153.177      107.216       79.082    23463.147    11495.281     6253.998        8.319        2.061      353.811       81.369        0.053      349.342       29.696      863.182
08/16/2013  13:16:00     -255.222      -87.772        3.054      133.259      116.161       70.964    17757.847    13493.285     5035.840        5.456        1.814      269.893       65.915        0.060      349.465       29.910      863.180
08/16/2013  13:17:00     -252.609     -142.895       -1.041      123.328      125.349       59.884    15209.736    15712.295     3586.107        5.936        1.725      290.224       64.412        0.049      349.247       29.531      863.199
08/16/2013  13:18:00     -189.907     -172.698        8.186      129.604      115.360       77.786    16797.168    13307.936     6050.653        5.105        1.808      256.689       84.872        0.109      349.190       29.433      863.188
08/16/2013  13:19:00     -164.999     -149.460       -2.182      108.125       79.430       54.053    11691.015     6309.203     2921.706        3.524        1.046      222.627       52.643        0.056      349.195       29.441      863.175
08/16/2013  13:20:00     -110.416      -79.755        2.205       76.850       69.298       46.852     5905.927     4802.146     2195.140        1.573        0.645      136.207       45.254        0.110      349.438       29.865      863.163
08/16/2013  13:21:00     -193.880      -30.379       -2.104      122.404       86.155       52.573    14982.692     7422.632     2763.879        3.184        1.258      196.246       49.907        0.065      349.335       29.685      863.136
08/16/2013  13:22:00     -215.594       77.205      -34.383      102.076      122.299       44.793    10419.520    14956.979     2006.437        4.050        1.369      229.001       38.441        0.028      349.060       29.208      863.130
08/16/2013  13:23:00     -134.628       80.861       -7.917       80.502       69.890       56.373     6480.647     4884.605     3177.944        1.963        0.727      157.045       53.057        0.114      349.410       29.816      863.094
08/16/2013  13:24:00      -15.976      -48.800       20.271       88.835      115.077       44.676     7891.614    13242.773     1995.942        1.309        1.157       51.349       47.121        0.842      349.603       30.152      863.066
08/16/2013  13:25:00     -175.159     -148.937        3.121      155.259      122.646       72.955    24105.362    15042.136     5322.402        4.866        2.223      229.919       62.412        0.074      349.458       29.897      863.095
08/16/2013  13:26:00     -227.776     -128.827        5.463      136.948      119.373       59.663    18754.709    14249.871     3559.657        5.253        1.828      261.684       67.901        0.067      349.718       30.350      863.110
08/16/2013  13:27:00     -210.639     -144.258        9.455      134.123       99.331       64.741    17989.014     9866.672     4191.357        4.865        1.602      255.302       73.843        0.084      349.505       29.979      863.113
08/16/2013  13:28:00     -227.507     -170.890      -21.768      104.317      123.068       46.968    10882.062    15145.756     2205.991        5.483        1.412      284.539       26.533        0.009      349.383       29.768      863.089
08/16/2013  13:29:00     -137.326      -38.834       11.081      109.419       85.853       53.426    11972.623     7370.730     2854.367        2.134        1.110      142.711       50.457        0.125      349.488       29.952      863.076
08/16/2013  13:30:00      -69.215      -98.288        5.251       76.398       73.418       39.727     5836.712     5390.251     1578.211        1.364        0.640      120.213       37.276        0.096      349.448       29.883      863.091
08/16/2013  13:31:00     -180.576     -182.669       -4.072      193.179      136.958       61.803    37318.306    18757.612     3819.632        6.293        2.995      256.858       51.102        0.040      349.476       29.930      863.053
08/16/2013  13:32:00     -165.584      -99.103       -0.815      134.415       86.596       55.519    18067.523     7498.885     3082.324        3.294        1.432      192.975       50.147        0.068      349.715       30.344      863.048
08/16/2013  13:33:00     -170.476     -178.564        0.891      141.296      104.304       58.480    19964.587    10879.264     3419.899        4.760        1.713      246.875       72.205        0.086      349.538       30.036      863.046
08/16/2013  13:34:00     -314.827     -202.154       -8.008      191.805      131.925       71.420    36789.136    17404.322     5100.774        9.966        2.965      374.142       79.512        0.045      349.495       29.963      863.042
08/16/2013  13:35:00     -176.816     -204.294       21.495      192.642      144.398       93.641    37110.972    20850.865     8768.615        7.009        3.337      270.185      109.093        0.163      349.466       29.912      863.068
08/16/2013  13:36:00     -126.846     -195.424        7.533      124.118      113.128       55.164    15405.277    12797.966     3043.075        4.279        1.562      232.981       54.208        0.054      349.148       29.361      863.087
08/16/2013  13:37:00     -257.573     -270.218       -3.606      180.382      131.217       75.469    32537.601    17218.029     5695.543        9.740        2.773      373.312       76.163        0.042      349.094       29.267      863.043
08/16/2013  13:38:00     -301.607     -275.418       -7.314      139.627      104.821       69.782    19495.742    10987.536     4869.590       10.111        1.768      408.439       67.588        0.027      349.205       29.460      863.038
08/16/2013  13:39:00     -205.661     -100.998       14.051      123.294      108.562       57.107    15201.423    11785.696     3261.176        4.147        1.512      229.123       61.435        0.072      349.465       29.908      863.032
08/16/2013  13:40:00     -280.673      -22.623      -25.220      115.822      101.032       56.845    13414.651    10207.382     3231.391        5.338        1.343      281.584       58.517        0.043      349.545       30.047      863.042
08/16/2013  13:41:00     -299.931     -201.290        8.956      237.059      130.409       80.399    56197.022    17006.550     6464.045       10.510        3.983      361.215      103.281        0.082      349.511       29.990      863.072
08/16/2013  13:42:00     -309.132     -197.293        0.163      164.243      141.519       74.886    26975.706    20027.647     5607.907        9.354        2.631      366.725       81.703        0.050      349.389       29.778      863.056
08/16/2013  13:43:00     -342.198     -159.918       -7.762      135.212      122.802       70.204    18282.349    15080.212     4928.599        9.051        1.915      377.721       61.953        0.027      349.322       29.661      863.049
08/16/2013  13:44:00     -290.956     -143.128      -21.111       81.802      109.628       59.388     6691.489    12018.280     3526.881        6.391        1.112      324.254       46.132        0.020      349.106       29.287      863.061
08/16/2013  13:45:00     -227.829     -233.021       -4.875      149.986      131.468       67.673    22495.935    17283.760     4579.685        7.529        2.218      325.891       49.398        0.023      349.205       29.459      863.038
08/16/2013  13:46:00     -223.257     -260.458       -6.591      116.435       97.341       64.306    13557.207     9475.223     4135.264        7.244        1.358      343.048       61.557        0.032      349.186       29.425      863.040
08/16/2013  13:47:00     -168.209     -278.916       -9.506      115.352      149.861       74.377    13305.991    22458.357     5532.006        7.373        2.065      325.712       80.908        0.062      349.268       29.567      863.037
08/16/2013  13:48:00     -251.879      -51.239       -3.786      148.894      122.452       56.364    22169.317    14994.605     3176.947        5.320        2.017      257.037       73.654        0.082      349.387       29.775      863.020
08/16/2013  13:49:00     -140.734       26.138        0.482      114.000       58.900       41.258    12996.041     3469.219     1702.202        1.933        0.908      143.141       42.135        0.087      349.643       30.220      862.989
08/16/2013  13:50:00     -157.911      -40.121      -19.154      100.695      143.156       48.651    10139.408    20493.667     2366.951        2.995        1.650      162.928       32.725        0.040      349.453       29.890      862.940
08/16/2013  13:51:00     -347.853       41.331      -19.439      195.823      133.801       74.964    38346.474    17902.781     5619.646        9.247        3.093      350.299       87.359        0.062      349.721       30.353      862.935
08/16/2013  13:52:00     -337.756      -27.378      -21.569      172.638      147.738       87.339    29803.859    21826.512     7628.035        8.727        2.963      338.863       90.393        0.071      349.855       30.586      862.879
08/16/2013  13:53:00     -301.801     -121.195       -4.965      205.027      139.160       79.406    42036.049    19365.435     6305.287        8.674        3.385      325.226       89.961        0.077      349.974       30.792      862.933
08/16/2013  13:54:00     -179.301     -125.586        8.574      244.151      143.503       80.593    59609.497    20593.111     6495.280        6.733        4.335      218.908      115.505        0.278      349.972       30.791      862.962
08/16/2013  13:55:00     -191.385      -78.414       -7.805      141.375       95.417       54.410    19986.750     9104.321     2960.450        3.744        1.603      206.826       70.768        0.117      349.955       30.761      862.944
08/16/2013  13:56:00     -381.662      -73.241      -23.703      195.614      146.864       62.686    38264.696    21569.064     3929.596       10.767        3.188      388.626       60.018        0.024      349.656       30.241      862.916
08/16/2013  13:57:00     -446.477     -149.045      -11.925      219.665      139.165       82.409    48252.625    19366.929     6791.258       14.804        3.721      470.698       99.558        0.045      349.615       30.170      862.928
08/16/2013  13:58:00     -191.637       -5.273       12.870      192.693      181.027       75.600    37130.641    32770.612     5715.373        5.625        3.781      191.709       81.114        0.179      349.895       30.657      862.906
08/16/2013  13:59:00     -287.261      -42.292       -1.027      167.945      139.193       84.638    28205.424    19374.819     7163.632        6.952        2.737      290.358       84.499        0.085      349.994       30.829      862.911
08/16/2013  14:00:00     -282.512     -212.255       -4.950      190.093      135.514       78.522    36135.382    18364.034     6165.671        9.277        3.033      353.363       81.800        0.054      349.715       30.343      862.937
08/16/2013  14:01:00     -255.582     -171.022       -4.290      169.365      138.794       79.716    28684.489    19263.742     6354.617        7.444        2.715      307.524      100.924        0.108      349.828       30.540      862.940
08/16/2013  14:02:00     -422.538     -347.647      -14.276      253.331      224.048      129.756    64176.837    50197.286    16836.706       21.538        6.561      547.172      136.950        0.063      349.528       30.020      862.914
08/16/2013  14:03:00     -244.769     -151.398       16.587      176.907      188.229       96.197    31296.168    35430.036     9253.864        7.953        3.799      287.807      106.144        0.136      349.750       30.404      862.954
08/16/2013  14:04:00     -326.947     -153.727      -12.972      211.496      151.228       76.631    44730.449    22869.785     5872.269       10.207        3.674      361.285       85.757        0.056      349.670       30.264      862.955
08/16/2013  14:05:00     -466.279     -149.237      -22.203      207.272      255.353       93.172    42961.752    65205.227     8681.024       17.850        5.842      489.580      107.229        0.048      349.792       30.476      862.966
08/16/2013  14:06:00     -378.153      -95.956      -18.966      138.453      157.237       79.830    19169.236    24723.503     6372.758       10.141        2.513      390.138       68.531        0.031      349.705       30.326      862.971
08/16/2013  14:07:00     -252.158      -45.274        3.398      201.050       95.450       57.367    40421.122     9110.684     3290.952        5.923        2.641      256.190       76.887        0.090      349.666       30.259      863.020
08/16/2013  14:08:00     -179.894     -124.252       -9.781       88.629       80.674       46.911     7855.030     6508.284     2200.602        3.223        0.828      218.633       41.305        0.036      349.615       30.170      863.014
08/16/2013  14:09:00     -243.010     -117.561      -14.744      101.392       69.462       40.816    10280.431     4825.018     1665.965        4.493        0.839      269.952       37.862        0.020      349.684       30.288      863.001
08/16/2013  14:10:00     -343.798      -33.406      -31.678       89.964       76.938       49.945     8093.607     5919.527     2494.506        6.841        0.825      345.417       45.279        0.017      349.356       29.719      863.012
08/16/2013  14:11:00     -168.532      -29.577      -10.772       81.109       87.196       49.577     6578.749     7603.060     2457.909        2.301        0.832      171.107       46.834        0.075      349.793       30.481      862.990
08/16/2013  14:12:00     -400.964       58.956      -26.513      178.677      119.170       68.118    31925.402    14201.513     4640.103       10.785        2.538      405.275       92.296        0.052      349.680       30.283      862.961
08/16/2013  14:13:00     -314.196       -4.468      -28.471      182.522      112.964       63.130    33314.185    12760.961     3985.337        7.480        2.503      314.228       67.773        0.047      350.021       30.874      862.889
08/16/2013  14:14:00     -382.657      -69.613       10.854      192.191      129.334       81.551    36937.522    16727.391     6650.531       10.584        3.016      388.937       88.035        0.051      349.790       30.473      862.919
08/16/2013  14:15:00     -398.965     -198.516      -19.280      158.414      120.009       75.495    25095.032    14402.251     5699.430       12.207        2.260      445.625       73.445        0.027      349.660       30.246      862.919
08/16/2013  14:16:00     -461.864      -73.045      -22.267      189.023      173.178       88.308    35729.811    29990.774     7798.241       14.632        3.676      467.604      101.646        0.047      349.803       30.497      862.924
08/16/2013  14:17:00     -222.748      -40.172       -2.570      148.864      123.853       52.003    22160.353    15339.623     2704.311        4.571        2.010      226.341       65.789        0.084      350.012       30.861      862.925
08/16/2013  14:18:00     -364.404     -145.866      -23.913      187.985      116.889       65.479    35338.518    13662.989     4287.549       10.396        2.664      392.514       69.674        0.032      349.865       30.604      862.888
08/16/2013  14:19:00     -424.024      -69.469      -26.651      193.216      105.212       81.810    37332.371    11069.581     6692.881       12.020        2.755      429.677       81.545        0.036      349.912       30.686      862.904
08/16/2013  14:20:00     -313.680     -164.493       -0.347      218.520      116.521       79.656    47750.827    13577.057     6345.037        9.655        3.384      354.194       92.791        0.069      349.847       30.572      862.926
08/16/2013  14:21:00     -107.821      -32.098        1.559      114.105       81.383       37.109    13019.933     6623.153     1377.110        1.684        1.051      112.498       53.935        0.230      349.803       30.499      862.923
08/16/2013  14:22:00        8.935       -2.385       11.119       24.594       24.433       23.608      604.889      596.991      557.351        0.098        0.088        9.248       16.322        3.115      350.035       30.903      862.887
08/16/2013  14:23:00     -145.081       18.762       13.143      141.543       58.594       49.485    20034.280     3433.314     2448.746        2.374        1.296      146.289       59.329        0.164      350.147       31.094      862.870
08/16/2013  14:24:00     -271.293       72.908      -22.371      108.610       95.798       60.536    11796.046     9177.346     3664.651        5.202        1.232      280.919       58.710        0.044      349.850       30.577      862.827
08/16/2013  14:25:00     -301.305       16.788      -14.108      156.473      107.983       53.560    24483.816    11660.323     2868.624        6.513        1.951      301.772       56.372        0.035      350.179       31.149      862.847
08/16/2013  14:26:00     -163.075      -93.240       11.807      143.873      125.127       84.290    20699.462    15656.847     7104.778        3.944        2.173      187.849       73.868        0.155      350.196       31.180      862.828
08/16/2013  14:27:00      -63.942      -81.366       34.712      213.686      158.791       93.952    45661.586    25214.581     8826.886        4.580        3.985      103.484      107.242        1.074      350.065       30.954      862.792
08/16/2013  14:28:00     -279.848     -161.449       -4.102      218.443      136.224       87.592    47717.406    18557.109     7672.416        8.916        3.697      323.080      105.392        0.106      349.893       30.651      862.795
08/16/2013  14:29:00     -237.780       24.529        8.918      167.895      137.323       67.982    28188.875    18857.728     4621.553        5.444        2.583      239.042       72.300        0.091      350.144       31.089      862.789
08/16/2013  14:30:00     -361.007     -116.443       -4.527      165.420      116.337       67.952    27363.914    13534.399     4617.525        9.470        2.276      379.322       71.198        0.035      349.983       30.810      862.779
08/16/2013  14:31:00     -486.468     -114.072      -24.936      151.798      112.541       78.169    23042.603    12665.429     6110.346       14.604        2.091      499.663       90.132        0.033      349.733       30.374      862.764
08/16/2013  14:32:00     -416.402      -71.636       -6.593      164.905      105.746       70.295    27193.514    11182.172     4941.373       11.093        2.166      422.519       79.392        0.035      349.821       30.527      862.743
08/16/2013  14:33:00     -382.457      -84.535      -11.236      176.322      109.860       65.794    31089.286    12069.322     4328.808       10.051        2.374      391.688       72.524        0.034      349.895       30.655      862.735
08/16/2013  14:34:00     -202.501      -53.665       12.636      115.355      115.865       57.592    13306.791    13424.726     3316.866        3.704        1.502      209.491       55.603        0.070      350.072       30.964      862.720
08/16/2013  14:35:00      -36.734      -29.528        1.953       52.920       61.972       38.757     2800.573     3840.543     1502.121        0.518        0.407       47.131       28.055        0.354      350.229       31.239      862.731
08/16/2013  14:36:00      -17.189       25.410      -13.565       76.773       73.345       30.909     5894.036     5379.448      955.358        0.667        0.611       30.678       14.088        0.211      349.957       30.767      862.705
08/16/2013  14:37:00      -49.713     -119.398       37.632       88.915      116.065       48.697     7905.918    13470.997     2371.430        2.094        1.187      129.334       25.246        0.038      350.141       31.084      862.671
08/16/2013  14:38:00      -93.827      -63.293        7.262       90.889       77.511       45.514     8260.866     6007.931     2071.569        1.460        0.817      113.179       43.724        0.149      350.259       31.290      862.636
08/16/2013  14:39:00     -169.527      -32.658       11.609      175.752       76.022       54.974    30888.835     5779.354     3022.140        3.481        1.985      172.644       62.748        0.132      350.275       31.317      862.603
08/16/2013  14:40:00     -330.453      -68.329      -18.209      179.509      207.190       87.737    32223.622    42927.621     7697.793        9.851        4.142      337.443       82.140        0.059      350.193       31.174      862.630
08/16/2013  14:41:00     -106.297      -75.339       40.007      159.386      135.101       87.458    25403.909    18252.326     7648.879        3.493        2.565      130.288       92.266        0.502      350.261       31.293      862.643
08/16/2013  14:42:00     -410.114     -193.933      -33.047      263.951      154.703       79.249    69670.329    23933.154     6280.473       15.337        4.994      453.655       90.617        0.040      349.817       30.521      862.670
08/16/2013  14:43:00     -415.486     -268.662       -7.519      195.829      172.561       99.048    38348.965    29777.378     9810.597       16.139        3.897      494.781       97.704        0.039      349.800       30.492      862.650
08/16/2013  14:44:00     -417.298     -266.923      -23.065      245.636      156.658       99.827    60336.853    24541.737     9965.377       17.036        4.742      495.364      107.599        0.047      349.728       30.365      862.633
08/16/2013  14:45:00     -308.841     -273.366       -7.663      211.421      161.456      101.148    44698.677    26067.892    10230.898       12.557        4.050      412.446      113.224        0.075      349.830       30.543      862.624
08/16/2013  14:46:00     -298.080       19.484      -15.977      167.796      130.755       61.448    28155.378    17096.935     3775.870        6.925        2.451      298.716       67.306        0.051      350.107       31.024      862.645
08/16/2013  14:47:00     -504.987       11.385      -26.885      217.393      149.060      100.457    47259.702    22218.846    10091.679       16.770        3.979      505.115      114.291        0.051      350.076       30.969      862.606
08/16/2013  14:48:00     -388.662      -50.492      -11.900      164.403      129.575       80.979    27028.430    16789.800     6557.550       10.205        2.519      391.928       72.862        0.035      350.175       31.142      862.632
08/16/2013  14:49:00     -490.148     -131.991      -30.009      248.598      186.659       90.560    61801.206    34841.638     8201.142       18.169        5.242      507.609      118.793        0.055      350.022       30.876      862.667
08/16/2013  14:50:00     -385.914      -78.159       -2.016      248.313      141.632      105.432    61659.150    20059.525    11115.960       12.392        4.642      393.749      121.681        0.096      350.032       30.893      862.642
08/16/2013  14:51:00     -372.584     -244.593       -2.001      219.469      165.107       95.895    48166.588    27260.298     9195.781       14.162        4.231      445.696      109.764        0.061      349.801       30.492      862.610
08/16/2013  14:52:00     -206.244     -142.054       -3.129      114.340      100.553       68.577    13073.569    10110.840     4702.839        4.530        1.394      250.431       68.481        0.075      350.113       31.036      862.595
08/16/2013  14:53:00     -219.511      -70.842       11.811      134.389      133.225       71.098    18060.283    17748.993     5054.991        4.710        2.043      230.659       72.699        0.099      350.237       31.250      862.598
08/16/2013  14:54:00     -292.662     -133.403        3.402      199.681      173.765       89.079    39872.588    30194.341     7935.030        9.072        3.900      321.632      103.538        0.104      350.033       30.896      862.588
08/16/2013  14:55:00      -53.462      -22.265       12.541      106.135       96.256       56.245    11264.677     9265.302     3163.501        1.360        1.185       57.913       56.507        0.952      350.520       31.745      862.591
08/16/2013  14:56:00     -327.742      -83.821      -29.676      128.071      120.789       56.816    16402.187    14590.088     3228.032        7.477        1.711      338.291       54.516        0.026      350.293       31.347      862.589
08/16/2013  14:57:00     -371.867     -107.661      -21.605      188.736      114.686       71.101    35621.415    13152.925     5055.354       10.208        2.691      387.138       77.223        0.040      349.908       30.677      862.557
08/16/2013  14:58:00     -375.635      -97.487      -17.221      169.780      169.502       67.305    28825.262    28730.813     4529.963       10.648        3.104      388.079       59.947        0.024      350.082       30.981      862.564
08/16/2013  14:59:00     -404.717       47.999      -45.263      143.382      153.397       74.832    20558.399    23530.752     5599.889       10.891        2.484      407.553       53.337        0.017      349.800       30.490      862.567
08/16/2013  15:00:00     -254.470      -66.405      -10.365      114.305      111.701       62.405    13065.544    12477.140     3894.340        4.935        1.472      262.991       54.961        0.044      349.986       30.813      862.559
08/16/2013  15:01:00     -380.518      -32.185      -13.434      244.510      171.401       85.696    59785.265    29378.303     7343.856       12.124        4.825      381.877      100.412        0.069      349.944       30.742      862.562
08/16/2013  15:02:00     -241.289      -91.462      -10.415      124.534      143.802       68.932    15508.793    20678.985     4751.553        5.381        2.047      258.042       68.132        0.070      349.840       30.559      862.570
08/16/2013  15:03:00     -251.933       17.126        3.238      160.186       93.544       54.516    25659.432     8750.517     2972.012        5.057        1.869      252.515       65.895        0.068      350.026       30.884      862.534
08/16/2013  15:04:00     -200.567       -8.581      -11.273      104.233       57.758       39.899    10864.431     3335.958     1591.947        2.811        0.790      200.750       46.124        0.053      349.865       30.604      862.519
08/16/2013  15:05:00      -62.137       -7.571       16.607       81.582       74.023       41.590     6655.598     5479.477     1729.768        0.903        0.693       62.596       43.312        0.479      350.127       31.062      862.486
08/16/2013  15:06:00     -131.440      -43.285       -2.491      107.218       75.837       44.598    11495.730     5751.234     1988.979        1.919        0.962      138.384       48.536        0.123      349.975       30.797      862.472
08/16/2013  15:07:00     -313.860     -220.093      -32.727      141.461      214.766       71.997    20011.188    46124.569     5183.600       10.966        3.566      383.339       58.963        0.024      350.043       30.913      862.495
08/16/2013  15:08:00     -467.587     -285.898      -10.729      217.693      202.336      108.555    47390.237    40940.042    11784.213       20.029        5.006      548.065      111.224        0.041      349.999       30.834      862.423
08/16/2013  15:09:00     -335.176     -127.154       -9.600      229.285      162.211       87.613    52571.713    26312.374     7676.000       10.757        4.328      358.485      105.540        0.087      350.026       30.885      862.458
08/16/2013  15:10:00     -363.023     -149.106       -6.121      189.306      162.321       74.678    35836.944    26348.112     5576.771       11.090        3.388      392.451       83.406        0.045      349.982       30.806      862.426
08/16/2013  15:11:00     -470.054     -115.421       -8.577      233.434      160.278       97.439    54491.476    25688.924     9494.289       16.200        4.484      484.017      115.879        0.057      349.964       30.776      862.455
08/16/2013  15:12:00     -535.401        5.677      -30.633      204.056      183.355       88.740    41638.898    33618.926     7874.777       18.536        4.157      535.431       89.378        0.028      349.774       30.446      862.451
08/16/2013  15:13:00     -525.489      -18.990      -46.808      199.598      170.009       79.845    39839.561    28903.036     6375.223       17.689        3.756      525.832       75.581        0.021      349.858       30.591      862.453
08/16/2013  15:14:00     -310.651      -71.465      -18.749      202.088      159.943       74.085    40839.468    25581.629     5488.538        8.692        3.595      318.766       82.046        0.066      350.028       30.887      862.437
08/16/2013  15:15:00     -240.438      -92.047       12.016      159.690      126.478       70.618    25500.836    15996.662     4986.849        5.645        2.324      257.455       67.571        0.069      350.129       31.062      862.448
08/16/2013  15:16:00     -295.529      -68.355        2.686      236.372      137.727       82.873    55871.620    18968.694     6867.861        8.685        4.085      303.331       92.255        0.093      350.186       31.162      862.464
08/16/2013  15:17:00     -184.464      -16.930        1.811      168.624       85.292       69.018    28434.142     7274.670     4763.476        3.739        2.024      185.239       81.426        0.193      350.322       31.397      862.468
08/16/2013  15:18:00     -367.233      -52.673        0.854      242.932      143.634       75.871    59015.785    20630.706     5756.418       11.150        4.270      370.991       99.638        0.072      350.148       31.095      862.476
08/16/2013  15:19:00     -286.086     -124.204      -18.028      175.705       91.243       51.271    30872.393     8325.298     2628.744        6.970        2.091      311.884       54.342        0.030      349.931       30.719      862.469
08/16/2013  15:20:00     -252.890     -158.326       14.513      218.097      136.572       98.690    47566.426    18651.821     9739.802        8.258        3.798      298.362      114.346        0.147      350.054       30.931      862.452
08/16/2013  15:21:00     -281.972     -215.385      -16.899      145.229      140.608       65.387    21091.607    19770.622     4275.467        8.565        2.257      354.822       59.811        0.028      349.813       30.514      862.460
08/16/2013  15:22:00     -383.903     -149.962       -5.744      174.402      157.067       85.456    30415.900    24669.893     7302.661       11.614        3.119      412.152       88.583        0.046      349.973       30.790      862.415
08/16/2013  15:23:00     -432.660     -245.565       -9.757      192.748      129.938       74.518    37151.919    16883.798     5552.900       15.358        2.979      497.490       82.291        0.027      349.807       30.502      862.438
08/16/2013  15:24:00     -262.826     -121.498      -14.574      198.357      139.026       60.931    39345.490    19328.334     3712.548        7.321        3.119      289.550       80.141        0.077      349.928       30.714      862.427
08/16/2013  15:25:00     -428.395     -302.209      -10.131      200.281      169.297       88.395    40112.491    28661.477     7813.607       17.576        3.829      524.263       94.149        0.032      349.828       30.539      862.406
08/16/2013  15:26:00     -302.683     -210.836       -4.405      170.000      153.214       94.763    28899.834    23474.433     8980.010        9.871        3.068      368.875       89.622        0.059      349.836       30.552      862.409
08/16/2013  15:27:00     -180.111     -106.037       14.296      128.040      103.742       57.113    16394.346    10762.462     3261.861        3.715        1.521      209.007       67.092        0.103      350.023       30.878      862.428
08/16/2013  15:28:00     -357.492      -22.381      -21.555      157.433      110.792       56.387    24785.218    12274.760     3179.463        8.450        2.012      358.192       74.022        0.043      350.119       31.046      862.432
08/16/2013  15:29:00     -395.060     -115.314      -23.574      147.282      133.651       64.184    21691.895    17862.557     4119.613       10.679        2.184      411.546       73.506        0.032      350.095       31.004      862.441
08/16/2013  15:30:00     -399.383     -130.582      -21.249      170.930      142.326       84.744    29217.176    20256.724     7181.557       11.682        2.833      420.189       88.851        0.045      349.866       30.606      862.416
08/16/2013  15:31:00     -308.348      -72.707       -6.900      173.654      119.496       65.649    30155.816    14279.256     4309.735        7.457        2.437      316.804       72.770        0.053      350.082       30.980      862.416
08/16/2013  15:32:00     -324.535      -31.766       10.960      173.195      130.918       70.064    29996.597    17139.415     4908.930        7.924        2.602      326.086       68.046        0.044      350.194       31.175      862.435
08/16/2013  15:33:00     -277.624     -120.796        4.640      231.019      171.725      118.687    53369.581    29489.319    14086.671        9.430        4.847      302.765      135.440        0.200      350.045       30.916      862.413
08/16/2013  15:34:00     -400.697     -144.207      -11.451      182.563      111.956       84.767    33329.154    12534.231     7185.371       11.726        2.652      425.857       89.733        0.044      349.955       30.759      862.426
08/16/2013  15:35:00     -167.829     -102.338       21.268      173.762      134.881       81.149    30193.379    18192.950     6585.099        4.702        2.749      196.570       98.358        0.250      350.172       31.139      862.406
08/16/2013  15:36:00     -156.295      -10.872       13.591      136.686      137.309       73.594    18683.163    18853.782     5416.047        3.383        2.148      156.672       60.986        0.152      350.318       31.393      862.412
08/16/2013  15:37:00     -297.772      -88.228       -7.069      210.795      115.705       69.799    44434.397    13387.586     4871.932        7.959        3.135      310.567       82.614        0.071      350.337       31.423      862.404
08/16/2013  15:38:00     -326.677      -85.880      -22.467      183.268      122.655       71.807    33587.209    15044.223     5156.246        8.418        2.689      337.777       89.973        0.071      350.016       30.866      862.418
08/16/2013  15:39:00     -154.666      -19.230       21.741      161.387       88.914       73.681    26045.794     7905.637     5428.826        3.207        1.969      155.856       73.827        0.224      350.249       31.273      862.405
08/16/2013  15:40:00     -379.687      -79.101      -15.113      177.455      141.822       83.314    31490.162    20113.525     6941.142       10.459        2.927      387.839       80.794        0.043      350.077       30.972      862.404
08/16/2013  15:41:00     -257.726      -81.259      -13.067      162.070      117.117       57.763    26266.638    13716.334     3336.508        5.825        2.166      270.233       66.937        0.061      350.084       30.986      862.395
08/16/2013  15:42:00     -311.859      -80.589       -1.897      170.004      134.655       66.507    28901.265    18131.945     4423.125        7.760        2.573      322.104       83.157        0.067      350.130       31.066      862.391
08/16/2013  15:43:00     -263.540       30.938        5.679      225.268      126.117       83.595    50745.603    15905.546     6988.057        7.203        3.682      265.350      110.001        0.172      350.001       30.839      862.361
08/16/2013  15:44:00     -289.903      -71.112      -19.908      203.638      131.360       73.576    41468.500    17255.341     5413.383        7.681        3.207      298.498       93.948        0.099      350.137       31.075      862.373
08/16/2013  15:45:00     -277.559      -54.259      -33.050      158.866       89.173       59.261    25238.370     7951.739     3511.825        5.888        1.835      282.812       69.706        0.061      350.218       31.218      862.359
08/16/2013  15:46:00     -126.617      -37.582       -0.393      153.177      106.201       60.019    23463.188    11278.586     3602.220        2.789        1.917      132.077       51.988        0.155      350.227       31.234      862.332
08/16/2013  15:47:00     -314.778     -139.908      -30.292      140.173      102.224       64.698    19648.497    10449.706     4185.790        7.692        1.714      344.470       63.115        0.034      350.173       31.138      862.315
08/16/2013  15:48:00     -487.975     -154.708      -18.910      201.515      114.736       63.734    40608.456    13164.445     4062.049       16.011        2.892      511.912       73.407        0.021      350.127       31.059      862.302
08/16/2013  15:49:00     -431.486     -143.439        5.858      250.673      139.133       82.723    62836.777    19357.879     6843.086       14.790        4.452      454.703      110.397        0.059      350.255       31.282      862.300
08/16/2013  15:50:00     -469.308     -132.336      -27.597      194.646      157.119       75.573    37887.019    24686.467     5711.349       15.339        3.414      487.609       81.456        0.028      350.118       31.042      862.289
08/16/2013  15:51:00     -447.470     -127.376      -22.371      193.942      193.373       86.220    37613.495    37393.251     7433.839       14.968        4.122      465.246       87.189        0.035      349.990       30.821      862.293
08/16/2013  15:52:00     -544.189     -187.208      -22.913      161.309      154.739       78.876    26020.444    23944.218     6221.413       19.394        2.809      575.490       79.299        0.019      349.915       30.691      862.306
08/16/2013  15:53:00     -188.614     -130.804        7.962      163.672      146.254       79.603    26788.644    21390.105     6336.680        5.362        2.726      229.532       73.473        0.102      350.134       31.070      862.311
08/16/2013  15:54:00     -147.086     -110.004       -0.797      127.647       95.298       57.162    16293.733     9081.676     3267.529        3.118        1.432      183.671       64.054        0.122      350.106       31.024      862.326
08/16/2013  15:55:00     -183.976      -94.274        1.675       94.771       89.952       48.434     8981.618     8091.274     2345.808        3.107        0.971      206.724       41.887        0.041      350.145       31.088      862.318
08/16/2013  15:56:00     -184.358      -66.751      -16.549      117.519       91.548       53.365    13810.631     8381.016     2847.855        3.187        1.252      196.070       50.856        0.067      350.161       31.118      862.293
08/16/2013  15:57:00     -310.466       68.572      -25.146      152.300      127.045       65.814    23195.208    16140.439     4331.476        7.269        2.183      317.949       66.654        0.044      350.150       31.100      862.261
08/16/2013  15:58:00     -308.113      -55.832        1.612      139.562      110.657       76.405    19477.649    12244.901     5837.774        6.780        1.878      313.131       67.821        0.047      350.263       31.293      862.255
08/16/2013  15:59:00     -269.055      -93.172       -9.236      116.621      123.986       71.476    13600.508    15372.416     5108.817        5.761        1.704      284.731       65.351        0.053      350.151       31.101      862.252
08/16/2013  16:00:00     -351.424      -45.438      -10.688      153.668       87.774       63.128    23613.734     7704.286     3985.094        8.048        1.765      354.350       70.267        0.039      350.039       30.905      862.259
08/16/2013  16:01:00     -427.951       72.134      -39.689      120.813       65.260       42.365    14595.831     4258.925     1794.787       10.528        1.032      433.988       46.832        0.012      349.851       30.578      862.238
08/16/2013  16:02:00     -208.740      -29.143      -19.717      121.712      151.379       57.544    14813.833    22915.741     3311.293        4.292        2.052      210.765       65.486        0.097      350.201       31.188      862.195
08/16/2013  16:03:00     -441.386      -18.866      -34.663      266.451      156.353       89.912    70995.978    24446.284     8084.232       14.994        5.176      441.789      117.053        0.070      350.268       31.303      862.159
08/16/2013  16:04:00     -510.259       -1.582      -30.010      246.455      184.702       85.451    60739.835    34114.812     7301.873       18.169        5.108      510.261      106.968        0.044      350.289       31.340      862.168
08/16/2013  16:05:00     -368.195      -78.906      -24.479      183.897      137.243       69.250    33818.001    18835.756     4795.589        9.991        2.872      376.555       81.308        0.047      350.271       31.309      862.207
08/16/2013  16:06:00     -134.168      -84.091       37.432      188.460      136.679       71.004    35517.241    18681.026     5041.622        4.285        2.962      158.342       83.401        0.277      350.322       31.399      862.211
08/16/2013  16:07:00     -236.852     -220.325        3.693      207.689      140.891      107.318    43134.646    19850.222    11517.120        8.957        3.725      323.484      125.017        0.149      350.203       31.190      862.194
08/16/2013  16:08:00     -278.669     -134.015       -8.370      208.480      153.987       94.955    43463.907    23711.981     9016.475        8.593        3.810      309.220      114.852        0.138      350.135       31.073      862.182
08/16/2013  16:09:00     -212.192     -124.438       22.915      205.977      143.793       99.601    42426.560    20676.454     9920.377        6.702        3.651      245.988      109.479        0.198      350.209       31.202      862.193
08/16/2013  16:10:00     -345.060     -152.509      -18.091      182.521      165.282       90.000    33313.938    27318.221     8100.028       10.568        3.437      377.260       83.551        0.049      350.120       31.045      862.202
08/16/2013  16:11:00     -309.529      -78.457       -7.550      180.709      136.318       73.089    32655.886    18582.694     5342.027        7.929        2.829      319.318       84.491        0.070      350.234       31.244      862.189
08/16/2013  16:12:00     -323.903     -139.569       -6.195      139.077      140.543       62.189    19342.417    19752.469     3867.456        8.369        2.148      352.694       59.390        0.028      350.200       31.185      862.193
08/16/2013  16:13:00     -233.774      -41.962       -2.810      224.699      150.028       80.957    50489.645    22508.256     6554.034        6.797        3.978      237.510       95.328        0.161      350.208       31.200      862.195
08/16/2013  16:14:00     -207.180      -85.272       23.967      206.928      156.656       75.606    42819.248    24541.162     5716.305        6.191        3.654      224.042       93.958        0.176      350.161       31.120      862.194
08/16/2013  16:15:00     -461.251      -84.471      -14.068      252.858      159.297       86.859    63936.955    25375.603     7544.569       15.846        4.843      468.922      105.658        0.051      349.949       30.749      862.200
08/16/2013  16:16:00     -347.289     -119.255        1.898      172.952      141.663       80.019    29912.539    20068.440     6402.963        9.560        2.819      367.194       80.127        0.048      349.876       30.621      862.195
08/16/2013  16:17:00     -220.246      -17.499        3.296      174.509       93.509       60.030    30453.418     8744.004     3603.590        4.581        2.140      220.940       69.918        0.100      350.100       31.013      862.187
08/16/2013  16:18:00     -161.425      -80.491        5.650      200.299      124.153       86.134    40119.562    15413.945     7418.996        4.775        3.148      180.380       95.922        0.283      350.293       31.348      862.194
08/16/2013  16:19:00     -293.170      -74.114      -10.115      116.975       95.811       58.053    13683.196     9179.809     3370.140        5.888        1.312      302.393       56.676        0.035      350.073       30.964      862.195
08/16/2013  16:20:00     -327.352       35.316      -40.759      170.556       83.668       57.772    29089.418     7000.259     3337.638        7.474        1.971      329.251       81.987        0.062      350.279       31.323      862.185
08/16/2013  16:21:00     -493.762      -38.872      -31.502      149.398      163.906       89.514    22319.659    26865.166     8012.706       15.174        2.860      495.290       85.779        0.030      350.040       30.905      862.145
08/16/2013  16:22:00     -290.233     -100.406       -7.562      205.514      122.504       86.843    42236.018    15007.235     7541.787        7.957        3.239      307.110      104.840        0.117      350.153       31.103      862.105
08/16/2013  16:23:00     -435.268     -106.055      -22.137      143.288      122.708       66.137    20531.558    15057.248     4374.053       12.057        1.998      448.002       71.178        0.025      350.337       31.424      862.106
08/16/2013  16:24:00     -227.501     -161.380       16.551      220.081      174.527       89.520    48435.440    30459.589     8013.878        8.248        4.345      278.927      109.571        0.154      350.199       31.184      862.142
08/16/2013  16:25:00     -321.392      -55.043      -14.144      165.876      128.263       61.030    27514.887    16451.390     3724.665        7.710        2.385      326.071       65.197        0.040      350.251       31.275      862.158
08/16/2013  16:26:00     -288.907      -62.770        8.070      250.691      170.163       91.969    62845.960    28955.503     8458.289        9.385        5.013      295.647      118.390        0.160      350.257       31.285      862.172
08/16/2013  16:27:00     -427.692     -208.933      -12.547      216.923      157.023      100.279    47055.592    24656.313    10055.798       15.424        4.088      475.997      113.709        0.057      349.993       30.825      862.164
08/16/2013  16:28:00     -369.541     -249.867      -12.408      222.047      151.866       97.015    49304.937    23063.142     9411.864       14.045        4.089      446.087       96.545        0.047      349.895       30.655      862.160
08/16/2013  16:29:00     -319.781     -144.178       -1.920      217.398      155.782      101.328    47261.917    24267.997    10267.263       10.241        4.090      350.781      107.761        0.094      349.989       30.819      862.170
08/16/2013  16:30:00     -250.920      -71.364       -1.724      191.477      152.555       73.203    36663.334    23272.906     5358.731        6.666        3.265      260.871       74.437        0.081      350.043       30.913      862.169
08/16/2013  16:31:00     -271.017      -20.719        7.092      230.849      118.250       80.720    53291.190    13983.150     6515.790        7.385        3.690      271.808       99.913        0.135      350.005       30.846      862.162
08/16/2013  16:32:00     -416.443       19.342      -31.407      194.342      162.900       79.877    37768.930    26536.532     6380.396       12.272        3.534      416.892       90.117        0.047      350.020       30.872      862.165
08/16/2013  16:33:00     -378.092     -129.920      -25.218      251.640      155.655       82.906    63322.544    24228.364     6873.350       12.743        4.721      399.791      110.373        0.076      349.924       30.707      862.151
08/16/2013  16:34:00     -392.192      -43.289      -11.716      177.659      107.113       75.510    31562.688    11473.182     5701.774       10.227        2.437      394.574       70.487        0.032      350.024       30.879      862.145
08/16/2013  16:35:00     -166.813     -147.381       11.690      163.817      159.082       72.067    26835.891    25307.238     5193.595        5.350        2.867      222.593       77.832        0.122      350.079       30.976      862.146
08/16/2013  16:36:00     -257.673     -134.490       -0.677      170.237       99.913       71.840    28980.613     9982.551     5160.918        6.430        2.206      290.660       63.559        0.048      350.161       31.119      862.129
08/16/2013  16:37:00     -420.920      -81.095      -16.524      169.145      163.031       74.141    28610.038    26579.248     5496.826       12.234        3.034      428.660       76.794        0.032      349.973       30.791      862.125
08/16/2013  16:38:00     -440.160     -179.906      -10.206      219.745      175.429       94.546    48287.727    30775.348     8939.037       15.709        4.400      475.507      106.745        0.050      349.967       30.781      862.105
08/16/2013  16:39:00     -572.135      -32.905      -52.782      165.010      173.468       84.136    27228.314    30091.047     7078.801       19.779        3.220      573.081       80.485        0.020      349.941       30.736      862.101
08/16/2013  16:40:00     -364.161      -75.906       -0.234      176.598      143.118       82.285    31186.972    20482.832     6770.786        9.840        2.922      371.988       88.192        0.056      350.090       30.994      862.123
08/16/2013  16:41:00     -229.269        1.539       -4.300      149.102      109.305       70.238    22231.428    11947.591     4933.382        4.584        1.956      229.274       71.829        0.098      350.157       31.109      862.118
08/16/2013  16:42:00     -107.588      -39.563       21.691      106.778      131.976       63.021    11401.535    17417.693     3971.632        2.320        1.640      114.631       62.179        0.294      350.201       31.187      862.110
08/16/2013  16:43:00     -465.765       14.681      -25.378      200.573      210.575       91.300    40229.483    44341.846     8335.646       15.534        4.645      465.997       99.700        0.046      350.078       30.971      862.101
08/16/2013  16:44:00     -461.590     -198.400      -17.262      195.903      196.075       93.649    38377.957    38445.571     8770.190       16.915        4.280      502.422       95.079        0.036      349.975       30.793      862.093
08/16/2013  16:45:00     -196.629     -134.481        6.812      115.329      124.419       69.650    13300.691    15480.153     4851.095        4.521        1.682      238.219       68.201        0.082      350.081       30.978      862.092
08/16/2013  16:46:00     -220.123      -90.277        5.648      147.756      115.447       77.206    21831.974    13328.073     5960.746        4.887        2.056      237.916       77.614        0.106      350.246       31.266      862.114
08/16/2013  16:47:00     -448.906     -166.553       -0.052      242.504      152.815       96.493    58808.171    23352.517     9310.962       16.035        4.574      478.808      110.397        0.053      349.953       30.757      862.122
08/16/2013  16:48:00     -202.769      -91.297       12.834      170.349      158.890       89.058    29018.913    25246.114     7931.342        5.590        3.110      222.375       93.901        0.178      350.066       30.952      862.150
08/16/2013  16:49:00     -273.194     -269.273        3.022      239.891      202.304      122.693    57547.849    40926.919    15053.484       13.032        5.676      383.592      135.098        0.124      349.826       30.536      862.128
08/16/2013  16:50:00     -464.192     -175.374       -9.942      228.587      209.920       96.839    52252.188    44066.340     9377.789       17.599        5.285      496.215      112.861        0.052      349.843       30.565      862.136
08/16/2013  16:51:00     -383.496      -97.445       -0.032      257.977      178.043       84.705    66551.920    31699.444     7174.907       13.098        5.271      395.683      105.004        0.070      349.807       30.503      862.171
08/16/2013  16:52:00     -446.329      -68.881      -24.143      193.505      142.100       96.590    37444.018    20192.295     9329.557       13.574        3.348      451.613       91.907        0.041      349.893       30.652      862.140
08/16/2013  16:53:00     -644.794      -14.108      -62.266      183.256      195.569       88.088    33582.927    38247.209     7759.488       24.970        3.979      644.948       73.901        0.013      349.780       30.455      862.080
08/16/2013  16:54:00     -362.622     -130.852       -9.262      164.734      131.814       86.103    27137.145    17374.977     7413.696       10.031        2.596      385.509       85.289        0.049      350.000       30.836      862.057
08/16/2013  16:55:00     -442.738       -2.000      -35.594      249.915      169.300       76.930    62457.619    28662.378     5918.257       14.715        4.852      442.742      107.470        0.059      350.032       30.894      862.072
08/16/2013  16:56:00     -565.823     -138.386      -32.811      177.716      173.293       90.506    31583.030    30030.422     8191.413       20.508        3.490      582.501       92.021        0.025      349.847       30.571      862.091
08/16/2013  16:57:00     -371.852      -64.098       -2.886      170.085      166.759       72.599    28929.053    27808.597     5270.554       10.219        3.100      377.336       75.705        0.040      349.885       30.639      862.106
08/16/2013  16:58:00     -378.322      -68.346       -7.850      171.792      146.094       82.354    29512.552    21343.517     6782.115       10.274        2.882      384.446       89.164        0.054      349.924       30.706      862.099
08/16/2013  16:59:00     -271.314      -19.301       -0.905      179.841      112.759       77.300    32342.608    12714.560     5975.344        6.250        2.552      272.000       83.794        0.095      350.073       30.965      862.103
08/16/2013  17:00:00     -257.902       -9.241      -11.198      177.877      118.688       72.880    31640.148    14086.784     5311.487        5.887        2.552      258.067       89.555        0.120      350.085       30.985      862.102
08/16/2013  17:01:00     -239.520     -106.975       11.675      168.892       96.778       72.228    28524.653     9365.941     5216.871        5.602        2.155      262.323       91.295        0.121      350.058       30.940      862.111
08/16/2013  17:02:00     -286.547     -246.136       -3.257      198.160      173.165       85.768    39267.273    29986.099     7356.154       10.964        3.830      377.747       86.043        0.052      349.916       30.691      862.090
08/16/2013  17:03:00     -305.710     -169.965        0.671      135.825      102.289       69.546    18448.317    10462.989     4836.586        7.804        1.687      349.781       62.001        0.031      350.008       30.852      862.105
08/16/2013  17:04:00     -137.328     -103.705       31.055      143.599      125.584       73.956    20620.581    15771.347     5469.439        3.621        2.093      172.086       80.073        0.217      350.040       30.908      862.115
08/16/2013  17:05:00     -297.956     -267.076      -17.373      176.903      157.493       82.939    31294.644    24803.919     6878.800       11.168        3.149      400.134       89.243        0.050      349.947       30.745      862.088
08/16/2013  17:06:00     -323.399     -264.357       -6.874      200.770      180.442      109.789    40308.492    32559.348    12053.626       12.971        4.246      417.698      115.085        0.076      349.899       30.663      862.091
08/16/2013  17:07:00     -429.202     -169.292      -13.449      187.279      153.550       85.057    35073.288    23577.494     7234.685       13.946        3.294      461.383       92.815        0.040      349.826       30.535      862.073
08/16/2013  17:08:00     -456.997     -173.451      -28.720      231.784      222.750      100.139    53724.052    49617.349    10027.910       17.654        5.668      488.806      108.479        0.049      349.878       30.625      862.048
08/16/2013  17:09:00     -514.274       -0.197      -39.628      217.830      197.733       89.009    47449.878    39098.479     7922.650       18.024        4.724      514.274       86.639        0.028      349.941       30.734      862.057
08/16/2013  17:10:00     -368.751      -12.194      -25.886      200.247      151.130       71.416    40099.038    22840.161     5100.316       10.241        3.402      368.952       82.901        0.050      350.116       31.040      862.031
08/16/2013  17:11:00     -197.358     -149.399       20.855      207.340      144.622       75.130    42990.038    20915.400     5644.581        6.562        3.478      247.529      102.394        0.171      350.081       30.979      862.054
08/16/2013  17:12:00     -329.425     -134.881       -2.406      212.206      143.581      100.525    45031.587    20615.412    10105.325       10.122        3.788      355.969      120.499        0.115      349.985       30.813      862.011
08/16/2013  17:13:00     -214.807     -177.860       12.348      182.896      127.670       81.223    33450.928    16299.628     6597.151        6.713        2.817      278.884       85.154        0.093      349.970       30.786      862.003
08/16/2013  17:14:00     -295.256      -64.138      -19.892      106.618      106.973       58.395    11367.412    11443.329     3409.969        5.895        1.311      302.142       54.738        0.033      349.934       30.724      861.994
08/16/2013  17:15:00     -186.463     -163.593       10.057      179.959      107.442       82.574    32385.416    11543.701     6818.389        5.618        2.537      248.055       89.630        0.131      350.119       31.044      861.998
08/16/2013  17:16:00     -378.154     -230.320       -7.801      222.058      167.874       93.342    49309.555    28181.674     8712.673       14.114        4.310      442.773      101.629        0.053      349.855       30.586      861.990
08/16/2013  17:17:00     -375.918     -242.891      -20.054      225.601      138.998       77.338    50895.816    19320.513     5981.165       13.844        3.810      447.560       89.381        0.040      349.861       30.597      861.970
08/16/2013  17:18:00     -308.798       38.553      -12.191      260.248      139.471       73.586    67728.869    19452.155     5414.902        9.478        4.630      311.195      105.521        0.115      350.002       30.842      861.974
08/16/2013  17:19:00     -551.707       89.940      -39.245      155.131      119.764       77.821    24065.763    14343.514     6056.044       17.923        2.223      558.990       72.552        0.017      349.958       30.765      861.952
08/16/2013  17:20:00     -324.276     -207.797       11.321      230.250      148.398       95.040    53014.952    22022.034     9032.649       11.625        4.203      385.142      125.922        0.107      349.955       30.761      861.975
08/16/2013  17:21:00     -285.243      -78.664       -8.978      134.646      179.704       77.749    18129.477    32293.498     6044.944        7.204        2.823      295.891       67.728        0.052      350.018       30.869      861.980
08/16/2013  17:22:00     -385.794     -252.382      -12.284      207.068      177.782      115.089    42877.302    31606.288    13245.437       15.019        4.386      461.014      127.744        0.077      349.917       30.695      861.964
08/16/2013  17:23:00     -126.478      -76.190       30.749      161.478      123.455       83.887    26075.155    15241.059     7037.083        3.554        2.418      147.653       90.317        0.374      349.929       30.715      861.977
08/16/2013  17:24:00     -181.500     -174.172       15.652      155.529      150.457       87.971    24189.349    22637.307     7738.937        5.904        2.728      251.552       93.111        0.137      349.931       30.719      861.962
08/16/2013  17:25:00     -355.894      -80.609      -15.373      193.036      125.275       74.678    37262.921    15693.849     5576.769        9.595        2.927      364.909       67.269        0.034      349.955       30.760      861.968
08/16/2013  17:26:00     -193.059     -130.924       11.611      183.125      135.775       82.956    33534.732    18434.815     6881.666        5.669        2.943      233.266       97.054        0.173      350.011       30.859      861.956
08/16/2013  17:27:00     -309.021     -146.224        4.858      226.422      150.218       92.533    51266.707    22565.322     8562.359        9.963        4.120      341.870      118.398        0.120      349.900       30.664      861.949
08/16/2013  17:28:00     -357.895     -177.188      -13.174      235.315      196.576      107.671    55373.050    38641.951    11593.033       13.262        5.280      399.356      118.717        0.088      349.829       30.540      861.924
08/16/2013  17:29:00     -306.069     -103.881       10.168      238.238      156.082      104.400    56757.190    24361.514    10899.336        9.828        4.601      323.217      120.660        0.139      349.816       30.519      861.958
08/16/2013  17:30:00     -245.227     -130.140        3.481      190.396      113.071       84.872    36250.510    12785.088     7203.185        6.665        2.812      277.620       97.602        0.124      349.864       30.603      861.971
08/16/2013  17:31:00     -450.797     -316.286      -14.541      228.341      172.824      108.856    52139.836    29868.144    11849.565       19.865        4.693      550.686      121.809        0.049      349.783       30.462      861.941
08/16/2013  17:32:00     -365.979     -161.692      -11.793      172.622      174.663       82.167    29798.421    30507.297     6751.361       11.363        3.353      400.106       85.702        0.046      349.744       30.393      861.948
08/16/2013  17:33:00     -210.497     -165.386       19.006      175.234      117.750       81.677    30706.793    13864.948     6671.088        6.162        2.562      267.696       93.845        0.123      349.845       30.568      861.935
08/16/2013  17:34:00     -233.767      -99.493       -1.738      149.070       97.939       73.291    22221.883     9592.063     5371.644        5.086        1.859      254.059       55.410        0.048      349.963       30.775      861.935
08/16/2013  17:35:00     -333.077     -193.828       -9.037      146.748      125.720       78.577    21534.950    15805.493     6174.305        9.605        2.176      385.370       81.601        0.045      349.890       30.648      861.960
08/16/2013  17:36:00     -369.517     -105.914      -15.239      169.484      119.731       73.781    28724.658    14335.512     5443.575        9.824        2.425      384.396       72.907        0.036      350.009       30.853      861.943
08/16/2013  17:37:00     -548.220     -142.975      -11.207      208.515      159.068       94.799    43478.497    25302.546     8986.808       19.943        3.888      566.557       89.773        0.025      349.859       30.594      861.904
08/16/2013  17:38:00     -471.285      -99.027      -31.216      193.169      181.230       80.904    37314.124    32844.194     6545.530       15.478        3.835      481.576       83.015        0.030      349.852       30.579      861.925
08/16/2013  17:39:00     -349.478      -95.840      -20.662      160.584      131.315       63.779    25787.110    17243.579     4067.823        8.942        2.355      362.382       69.188        0.036      349.844       30.566      861.910
08/16/2013  17:40:00     -185.273     -121.321        0.614      123.711       89.641       62.032    15304.468     8035.597     3847.958        3.811        1.359      221.461       58.022        0.069      349.906       30.674      861.918
08/16/2013  17:41:00     -222.443      -95.116       26.030      167.827      155.917       98.477    28165.877    24310.008     9697.729        6.068        3.109      241.926       89.198        0.136      349.906       30.675      861.895
08/16/2013  17:42:00     -212.964     -131.738       16.458      180.813      150.387       94.226    32693.247    22616.160     8878.620        6.357        3.209      250.417      111.605        0.199      349.962       30.773      861.911
08/16/2013  17:43:00     -335.589      -57.069        5.302      222.900      142.185       77.806    49684.583    20216.447     6053.770        9.592        3.798      340.407       93.124        0.075      349.960       30.770      861.909
08/16/2013  17:44:00     -166.008      -37.672       30.191      123.402       89.284       60.855    15228.152     7971.677     3703.286        2.839        1.345      170.229       64.315        0.143      350.092       30.999      861.921
08/16/2013  17:45:00     -197.001     -103.456       12.726      207.994      130.579       86.490    43261.543    17050.818     7480.528        5.872        3.390      222.514       92.019        0.171      349.969       30.785      861.911
08/16/2013  17:46:00     -501.265     -179.889      -25.706      217.686      194.459       88.596    47387.373    37814.309     7849.235       18.865        4.653      532.566       79.309        0.022      349.784       30.462      861.909
08/16/2013  17:47:00     -355.242      -48.090      -17.441      161.186      131.273       69.509    25980.919    17232.527     4831.450        8.842        2.402      358.483       80.769        0.051      349.881       30.633      861.939
08/16/2013  17:48:00     -379.774     -158.739       -0.771      203.555      185.615       86.778    41434.771    34452.747     7530.499       12.641        4.171      411.614       94.554        0.053      349.844       30.566      861.961
08/16/2013  17:49:00     -368.753     -149.494      -14.694      184.149      132.061       75.409    33910.941    17440.088     5686.587       10.778        2.852      397.903       71.047        0.032      349.754       30.412      861.964
08/16/2013  17:50:00     -159.789      -69.933        5.526      141.641      132.610       65.787    20062.238    17585.339     4327.967        3.621        2.099      174.423       71.164        0.166      349.880       30.630      861.970
08/16/2013  17:51:00     -303.084     -123.792      -21.784      103.297      134.752       56.127    10670.287    18158.227     3150.189        6.981        1.599      327.390       53.543        0.027      349.953       30.757      861.988
08/16/2013  17:52:00     -235.062      -74.379        5.863      171.004      135.933       75.390    29242.425    18477.898     5683.695        5.710        2.670      246.549       84.496        0.117      349.845       30.569      862.006
08/16/2013  17:53:00     -405.458     -114.119       -3.870      210.814      150.997       89.364    44442.429    22800.218     7985.954       12.632        3.761      421.212       98.576        0.055      349.786       30.466      861.980
08/16/2013  17:54:00     -302.303      -76.486        0.644      226.979      117.223       75.669    51519.436    13741.324     5725.792        8.410        3.549      311.829       94.812        0.092      349.760       30.421      861.994
08/16/2013  17:55:00     -288.793     -137.985       -9.852      296.439      121.678       86.651    87876.100    14805.602     7508.369       10.635        5.510      320.064      134.141        0.176      349.794       30.480      861.986
08/16/2013  17:56:00     -259.950      -36.555       10.670      159.445      132.411       69.534    25422.574    17532.668     4834.955        5.840        2.390      262.508       78.899        0.090      349.807       30.504      862.012
08/16/2013  17:57:00     -402.510       -9.993      -13.037      238.938      144.228       88.274    57091.584    20801.587     7792.300       12.397        4.284      402.634      116.272        0.083      349.738       30.383      862.021
08/16/2013  17:58:00     -335.378     -149.007      -17.162      142.870      131.950       70.574    20411.772    17410.675     4980.672        8.888        2.140      366.990       76.308        0.043      349.666       30.258      862.044
08/16/2013  17:59:00     -310.952     -119.978        1.647      170.345      123.465       75.010    29017.266    15243.629     5626.541        8.048        2.494      333.295       84.860        0.065      349.737       30.382      862.034
08/16/2013  18:00:00     -421.651     -164.514       -2.852      124.947      118.151       69.224    15611.746    13959.581     4791.988       11.961        1.718      452.608       72.448        0.026      349.620       30.178      862.037
08/16/2013  18:01:00     -266.858      -77.091       -5.485      130.096      122.645       59.954    16925.015    15041.841     3594.466        5.637        1.778      277.770       62.610        0.051      349.695       30.308      862.033
08/16/2013  18:02:00     -150.007      -16.129        6.480      164.306      111.771       49.419    26996.484    12492.781     2442.274        3.236        2.097      150.871       57.777        0.147      349.757       30.417      862.055
08/16/2013  18:03:00     -523.191      -39.179      -38.808      195.809      159.196       88.197    38340.978    25343.239     7778.693       17.410        3.573      524.656       93.449        0.032      349.603       30.148      862.022
08/16/2013  18:04:00     -422.167       45.383      -18.547      180.102      154.252       70.700    32436.616    23793.697     4998.468       12.092        3.061      424.599       59.021        0.019      349.644       30.220      862.018
08/16/2013  18:05:00     -423.832     -135.724        7.431      298.926      174.535      103.795    89356.613    30462.452    10773.304       16.433        6.530      445.033      131.445        0.087      349.548       30.052      862.020
08/16/2013  18:06:00     -477.002     -122.709      -26.824      240.906      169.865       80.811    58035.610    28854.232     6530.428       16.835        4.671      492.533       95.573        0.038      349.548       30.055      862.027
08/16/2013  18:07:00     -286.590      -72.396      -10.949      184.774      133.544       79.977    34141.310    17834.000     6396.366        7.292        2.919      295.593       71.998        0.059      349.553       30.062      862.009
08/16/2013  18:08:00     -157.460      -12.948       13.275      141.538      114.389       69.068    20032.996    13084.823     4770.352        3.151        1.894      157.991       71.952        0.207      349.678       30.280      862.017
08/16/2013  18:09:00     -278.996      -59.847      -15.932      104.761      105.677       49.147    10974.834    11167.596     2415.448        5.311        1.228      285.343       42.568        0.022      349.680       30.282      862.026
08/16/2013  18:10:00     -349.597     -105.235       -9.532      194.665      132.670       75.093    37894.618    17601.425     5638.947        9.725        3.057      365.092       84.147        0.053      349.554       30.065      862.016
08/16/2013  18:11:00     -454.017      -53.459      -40.181      247.099      137.954       94.593    61058.079    19031.225     8947.840       14.981        4.452      457.153      121.880        0.071      349.474       29.924      861.993
08/16/2013  18:12:00     -387.246       13.449      -30.175      146.231      109.285       67.714    21383.433    11943.221     4585.139        9.448        1.896      387.480       73.705        0.036      349.537       30.033      862.009
08/16/2013  18:13:00     -394.836      -51.103      -27.953      148.620      146.940       67.505    22087.790    21591.390     4556.903       10.375        2.412      398.129       68.195        0.029      349.548       30.051      862.007
08/16/2013  18:14:00     -231.894      -22.027        3.001      115.413       80.284       52.702    13320.174     6445.464     2777.490        3.840        1.127      232.938       51.675        0.049      349.572       30.096      862.016
08/16/2013  18:15:00     -341.501     -176.938      -14.845      114.647       79.533       53.773    13143.871     6325.420     2891.495        8.525        1.118      384.616       51.177        0.018      349.533       30.026      862.031
08/16/2013  18:16:00     -299.754      -69.115        3.334      177.719      143.507       71.563    31583.977    20594.163     5121.269        7.596        2.865      307.619       82.795        0.072      349.485       29.945      862.021
08/16/2013  18:17:00     -300.885     -145.136      -18.154      159.073      109.818       63.600    25304.294    12060.067     4044.933        7.666        2.070      334.060       32.608        0.010      349.454       29.890      862.020
08/16/2013  18:18:00     -162.138     -105.929        6.572      152.333      138.632       90.810    23205.482    19218.829     8246.503        4.410        2.534      193.674       97.447        0.253      349.485       29.945      862.018
08/16/2013  18:19:00     -214.192      -18.998       -3.873      138.033      104.571       58.010    19053.124    10935.063     3365.206        3.980        1.668      215.033       67.208        0.098      349.553       30.062      862.022
08/16/2013  18:20:00     -295.755      -73.616      -10.572      163.835      110.401       64.257    26841.851    12188.324     4128.947        6.807        2.158      304.779       55.142        0.033      349.455       29.892      862.012
08/16/2013  18:21:00     -459.935     -111.203      -16.025      200.397      144.245       79.620    40158.987    20806.551     6339.423       14.572        3.365      473.187       94.110        0.040      349.370       29.743      861.993
08/16/2013  18:22:00     -557.320     -108.278      -41.773      206.400      128.379       90.491    42600.882    16481.153     8188.627       19.566        3.364      567.741      111.407        0.039      349.330       29.675      861.993
08/16/2013  18:23:00     -594.568      -39.774      -52.056      159.359      160.788       78.242    25395.274    25852.871     6121.795       20.758        2.868      595.897       76.814        0.017      349.332       29.678      861.998
08/16/2013  18:24:00     -362.579     -112.073      -21.814      184.213      134.721       74.802    33934.296    18149.824     5595.393       10.108        2.884      379.505       77.797        0.042      349.371       29.746      862.015
08/16/2013  18:25:00     -350.685      -24.439      -20.286      181.345      121.993       75.387    32886.054    14882.384     5683.185        8.871        2.673      351.536       75.346        0.046      349.380       29.762      862.045
08/16/2013  18:26:00     -414.657      -27.269      -13.020      180.640      152.686       82.789    32630.720    23313.161     6854.068       11.782        3.140      415.553       64.628        0.024      349.330       29.674      862.043
08/16/2013  18:27:00     -453.558      -78.722      -23.299      226.265      173.156       88.967    51195.938    29983.063     7915.182       15.076        4.455      460.339       98.969        0.046      349.234       29.508      862.024
08/16/2013  18:28:00     -174.345      -27.445        5.568      139.681      122.463       67.088    19510.914    14997.170     4500.745        3.509        1.950      176.492       65.826        0.139      349.240       29.521      862.023
08/16/2013  18:29:00     -262.481      -29.959       -9.852      174.113      116.750       70.979    30315.321    13630.650     5038.061        5.943        2.449      264.185       88.360        0.112      349.217       29.478      862.036
08/16/2013  18:30:00     -296.699       41.051      -14.855      238.961      128.686       64.404    57102.455    16560.201     4147.863        8.386        3.891      299.525       79.825        0.071      349.192       29.437      862.036
08/16/2013  18:31:00     -471.455      -16.261      -28.393      181.188      129.345       80.865    32829.135    16730.015     6539.126       13.971        2.805      471.735       79.274        0.028      349.134       29.336      862.040
08/16/2013  18:32:00     -461.709      -55.711       -0.476      211.705      161.990       98.057    44819.156    26240.703     9615.158       14.846        4.034      465.058      105.965        0.052      349.108       29.290      862.057
08/16/2013  18:33:00     -446.029     -146.010      -14.096      178.834      170.654       73.163    31981.488    29122.712     5352.873       14.345        3.323      469.320       83.537        0.032      349.086       29.252      862.059
08/16/2013  18:34:00     -559.383     -144.055      -24.442      263.373      208.833      101.469    69365.089    43611.367    10296.056       22.874        6.164      577.634      110.328        0.036      349.020       29.137      862.055
08/16/2013  18:35:00     -479.403     -158.817      -17.102      220.818      169.107       67.843    48760.492    28597.145     4602.621       16.864        4.098      505.025       83.371        0.027      348.999       29.102      862.056
08/16/2013  18:36:00     -422.367      -77.480       -2.442      161.759      129.798       71.232    26165.836    16847.537     5074.001       11.624        2.404      429.415       73.489        0.029      349.015       29.130      862.045
08/16/2013  18:37:00     -288.544      -28.012      -14.790      177.086      149.781       69.758    31359.321    22434.429     4866.219        7.145        2.933      289.901       74.759        0.067      349.038       29.168      862.042
08/16/2013  18:38:00     -306.655      -11.762       -4.418      144.686      142.518       72.536    20934.112    20311.292     5261.509        7.034        2.325      306.880       64.755        0.045      349.038       29.168      862.068
08/16/2013  18:39:00     -376.193      -38.489      -15.756      161.564      145.992       71.738    26102.854    21313.523     5146.322        9.790        2.628      378.157       61.001        0.026      348.995       29.094      862.084
08/16/2013  18:40:00     -313.300     -139.385      -22.471      112.668      140.597       69.012    12694.130    19767.381     4762.647        7.765        1.861      342.907       56.525        0.027      348.997       29.099      862.072
08/16/2013  18:41:00     -234.563     -156.085      -13.246      162.258      148.463       76.073    26327.561    22041.400     5787.085        6.685        2.708      281.748       74.832        0.071      348.953       29.021      862.072
08/16/2013  18:42:00     -216.204      -69.547       25.290      181.236      143.899       89.535    32846.499    20706.857     8016.525        5.688        3.078      227.114       99.712        0.193      348.981       29.071      862.068
08/16/2013  18:43:00     -335.906     -123.860      -11.094      173.681      178.348       81.127    30165.238    31807.931     6581.559        9.841        3.428      358.014       81.167        0.051      348.902       28.935      862.070
08/16/2013  18:44:00     -432.986      -40.075      -18.506      168.238      147.523       72.442    28303.973    21763.183     5247.834       12.236        2.766      434.837       70.756        0.026      348.883       28.901      862.071
08/16/2013  18:45:00     -246.834      -22.141        6.923      160.371      131.054       71.174    25718.814    17175.083     5065.693        5.470        2.398      247.825       72.531        0.086      348.862       28.865      862.090
08/16/2013  18:46:00     -437.604      -72.115      -21.190      200.226      147.649       71.128    40090.645    21800.129     5059.155       13.204        3.347      443.507       77.449        0.030      348.836       28.818      862.064
08/16/2013  18:47:00     -297.482      -91.936        3.033      153.107      127.634       70.204    23441.719    16290.485     4928.644        7.080        2.233      311.365       74.648        0.057      348.812       28.778      862.079
08/16/2013  18:48:00     -267.287        5.386      -12.756      140.331      105.555       79.028    19692.910    11141.807     6245.371        5.435        1.854      267.341       80.341        0.090      348.861       28.864      862.079
08/16/2013  18:49:00     -291.863     -101.463      -32.076      172.267      118.501       62.827    29676.015    14042.487     3947.181        7.208        2.383      308.996       69.561        0.051      348.825       28.800      862.100
08/16/2013  18:50:00     -337.668      -84.629       -6.170      164.807      153.374       86.796    27161.483    23523.682     7533.580        8.971        2.911      348.111      101.960        0.086      348.768       28.701      862.100
08/16/2013  18:51:00     -316.593      -98.031      -10.217      140.819      128.624       63.089    19830.112    16544.089     3980.172        7.514        2.018      331.423       64.670        0.038      348.752       28.674      862.111
08/16/2013  18:52:00     -273.691      -49.303        7.273      156.374       93.104       56.919    24452.965     8668.343     3239.817        5.687        1.818      278.096       61.887        0.050      348.762       28.691      862.102
08/16/2013  18:53:00     -223.965      -53.538        1.676      154.493       99.771       62.007    23867.980     9954.331     3844.847        4.534        1.883      230.276       70.807        0.095      348.698       28.583      862.110
08/16/2013  18:54:00     -388.980     -129.301       -8.602      196.169      135.455       88.434    38482.202    18348.037     7820.653       11.636        3.233      409.908      104.740        0.065      348.687       28.565      862.134
08/16/2013  18:55:00     -383.641      -84.774       -8.443      232.049      146.681       94.437    53846.723    21515.248     8918.433       11.935        4.214      392.896      102.314        0.068      348.681       28.549      862.124
08/16/2013  18:56:00     -395.094     -103.447       -4.896      295.504      188.720       94.477    87322.722    35615.064     8925.847       14.932        6.593      408.412      120.257        0.087      348.669       28.530      862.110
08/16/2013  18:57:00     -290.796      -20.319       11.815      238.315      140.339       85.554    56793.801    19694.953     7319.567        8.445        4.190      291.505      115.973        0.158      348.622       28.450      862.129
08/16/2013  18:58:00     -296.513      -27.757        0.230      151.456      151.942       68.613    22938.997    23086.387     4707.718        6.970        2.537      297.809       61.357        0.042      348.639       28.478      862.163
08/16/2013  18:59:00     -343.502      -70.757      -20.507      167.244      142.722       69.658    27970.607    20369.519     4852.202        8.830        2.660      350.714       73.795        0.044      348.600       28.410      862.165
08/16/2013  19:00:00     -517.997     -115.801      -24.214      213.129      149.983       80.783    45423.985    22494.912     6525.946       17.837        3.722      530.783       86.866        0.027      348.557       28.335      862.163
08/16/2013  19:01:00     -458.693     -215.983      -25.254      199.442      185.652      105.318    39777.166    34466.770    11091.944       17.150        4.267      506.999      112.536        0.049      348.519       28.269      862.169
08/16/2013  19:02:00     -201.139      -59.864        4.294      118.247      111.767       71.693    13982.310    12491.866     5139.940        3.783        1.581      209.858       56.638        0.073      348.530       28.291      862.184
08/16/2013  19:03:00     -400.978      -86.564      -12.986      154.517      147.783       85.109    23875.467    21839.797     7243.599       11.069        2.648      410.216       81.681        0.040      348.489       28.218      862.194
08/16/2013  19:04:00     -475.313      -98.868      -33.095      128.985      128.719       69.929    16637.043    16568.469     4890.078       13.744        1.905      485.487       57.202        0.014      348.469       28.184      862.217
08/16/2013  19:05:00     -420.424     -123.496      -28.035      180.752      146.156       79.914    32671.347    21361.553     6386.273       12.660        3.021      438.187       91.151        0.043      348.429       28.115      862.216
08/16/2013  19:06:00     -343.421      -55.166      -11.670      149.257      139.444       66.866    22277.520    19444.625     4471.110        8.365        2.310      347.824       72.312        0.043      348.418       28.096      862.211
08/16/2013  19:07:00     -413.844       14.175      -15.141      214.293      151.560       84.268    45921.697    22970.450     7101.058       12.383        3.800      414.087      101.196        0.060      348.358       27.992      862.220
08/16/2013  19:08:00     -406.380      -98.077       -9.911      197.112      158.493       81.154    38852.944    25120.159     6586.019       12.270        3.528      418.048       94.638        0.051      348.356       27.988      862.225
08/16/2013  19:09:00     -363.689     -103.356      -13.304      153.635      139.698       59.990    23603.850    19515.447     3598.854        9.492        2.336      378.090       62.932        0.028      348.317       27.920      862.240
08/16/2013  19:10:00     -432.077      -13.343      -13.705      176.108      188.523       79.386    31014.103    35540.918     6302.106       12.994        3.643      432.283       77.686        0.032      348.303       27.896      862.245
08/16/2013  19:11:00     -408.826      -84.422      -21.550      189.279      141.448       75.362    35826.482    20007.631     5679.482       11.811        3.076      417.451       86.112        0.043      348.301       27.893      862.259
08/16/2013  19:12:00     -331.903      -11.596       -7.735      171.734      134.698       68.309    29492.498    18143.634     4666.053        8.132        2.615      332.106       83.052        0.063      348.233       27.776      862.257
08/16/2013  19:13:00     -311.785      -55.725       -4.813      132.266      115.770       66.203    17494.374    13402.686     4382.865        6.780        1.764      316.725       62.599        0.039      348.225       27.763      862.272
08/16/2013  19:14:00     -388.127      -27.559      -15.515      211.331      127.565       71.749    44660.838    16272.878     5147.966       10.885        3.304      389.104       85.992        0.049      348.230       27.772      862.284
08/16/2013  19:15:00     -249.679      -41.312        5.658      175.263      135.052       88.806    30717.289    18239.033     7886.551        6.045        2.842      253.073       92.461        0.133      348.174       27.674      862.253
08/16/2013  19:16:00     -271.018      -85.107        1.281      178.260      148.735       87.375    31776.620    22122.006     7634.330        7.110        3.077      284.067       88.303        0.097      348.177       27.680      862.262
08/16/2013  19:17:00     -382.194     -127.724       -8.828      158.038      175.651       71.723    24975.959    30853.366     5144.241       11.171        3.049      402.971       71.271        0.031      348.183       27.690      862.298
08/16/2013  19:18:00     -496.708      -72.664      -23.583      185.767      118.968       78.826    34509.357    14153.450     6213.551       15.371        2.744      501.994       80.332        0.026      348.185       27.694      862.291
08/16/2013  19:19:00     -431.755      -50.358       -1.747      269.299      166.421       81.383    72522.024    27695.814     6623.132       14.788        5.342      434.682      109.531        0.063      348.131       27.601      862.287
08/16/2013  19:20:00     -440.014     -104.465      -18.985      174.444      175.996       84.921    30430.757    30974.649     7211.584       13.674        3.431      452.244       74.684        0.027      348.126       27.590      862.278
08/16/2013  19:21:00     -437.066      -62.987        0.734      286.101      146.288      109.357    81853.576    21400.121    11958.960       15.508        5.761      441.582      140.107        0.101      348.112       27.566      862.273
08/16/2013  19:22:00     -421.217      -49.183      -10.936      180.527      175.942       81.814    32590.171    30955.680     6693.612       12.509        3.512      424.078       82.262        0.038      348.137       27.609      862.301
08/16/2013  19:23:00     -411.110     -104.635      -16.006      201.363      144.295       80.117    40547.133    20821.101     6418.770       12.399        3.389      424.217       78.823        0.035      348.144       27.623      862.322
08/16/2013  19:24:00     -427.534      -98.438      -14.662      157.336      142.735       86.682    24754.606    20373.171     7513.787       12.266        2.632      438.720       86.297        0.039      348.157       27.645      862.305
08/16/2013  19:25:00     -434.463     -203.014      -12.573      225.674      183.193       91.138    50928.604    33559.579     8306.188       16.145        4.640      479.555      105.981        0.049      348.115       27.573      862.301
08/16/2013  19:26:00     -415.966     -180.675      -15.343      326.679      211.172      118.354   106718.990    44593.566    14007.715       18.559        8.266      453.510      148.514        0.107      348.107       27.559      862.288
08/16/2013  19:27:00     -670.496     -100.808      -48.367      237.543      154.864       95.347    56426.605    23983.004     9090.992       27.577        4.475      678.032      108.182        0.025      348.149       27.629      862.333
08/16/2013  19:28:00     -393.900      -91.009        1.027      278.401      158.330       92.704    77506.984    25068.474     8594.007       13.729        5.558      404.277      113.506        0.079      348.142       27.619      862.332
08/16/2013  19:29:00     -332.413      -56.949      -20.643      186.213      179.171       61.953    34675.244    32102.313     3838.224        9.238        3.531      337.256       56.687        0.028      348.110       27.564      862.353
08/16/2013  19:30:00     -511.666     -100.170      -21.148      209.479      216.698       97.728    43881.645    46958.081     9550.670       18.632        5.020      521.379      107.186        0.042      348.092       27.532      862.374
08/16/2013  19:31:00     -504.118      -50.444      -39.776      203.563      157.024       75.645    41437.775    24656.380     5722.136       16.503        3.591      506.636       92.500        0.033      348.104       27.553      862.392
08/16/2013  19:32:00     -282.891     -102.241      -17.702      185.869      144.331       81.733    34547.229    20831.562     6680.325        7.642        3.103      300.800       88.632        0.087      348.086       27.523      862.382
08/16/2013  19:33:00     -362.862      -41.224       -5.343      246.875      205.873       92.371    60947.065    42383.892     8532.363       12.261        5.593      365.196      101.625        0.077      348.102       27.550      862.378
08/16/2013  19:34:00     -515.742     -133.148      -15.654      240.075      166.478       96.053    57635.907    27715.075     9226.103       18.925        4.729      532.653      120.144        0.051      348.093       27.534      862.397
08/16/2013  19:35:00     -373.468      -51.344       -6.052      204.876      182.076       86.689    41974.007    33151.641     7514.928       11.238        4.132      376.981       91.786        0.059      348.065       27.486      862.395
08/16/2013  19:36:00     -580.449     -108.500      -24.685      240.611      165.448       99.279    57893.826    27373.205     9856.409       22.220        4.756      590.502      118.107        0.040      348.088       27.526      862.397
08/16/2013  19:37:00     -537.067     -183.510      -40.266      199.522      202.475       74.561    39809.035    40996.289     5559.295       20.504        4.318      567.553       75.863        0.018      348.099       27.544      862.434
08/16/2013  19:38:00     -330.398      -77.612      -12.590      176.014      132.121       78.339    30980.777    17455.920     6136.964        8.495        2.729      339.391       78.782        0.054      348.078       27.508      862.418
08/16/2013  19:39:00     -547.350        9.386      -39.392      241.360      159.340       89.108    58254.584    25389.152     7940.158       19.639        4.579      547.431       86.090        0.025      348.086       27.521      862.390
08/16/2013  19:40:00     -418.862      -94.860      -20.715      218.871      149.029       82.357    47904.324    22209.555     6782.695       13.087        3.845      429.469       84.703        0.039      348.058       27.474      862.382
08/16/2013  19:41:00     -444.460     -113.002      -26.788      303.379      193.939      103.838    92038.911    37612.441    10782.395       17.571        7.022      458.600      147.043        0.103      348.036       27.434      862.379
08/16/2013  19:42:00     -400.375      -23.636      -14.736      207.980      149.862       86.089    43255.730    22458.561     7411.309       11.709        3.656      401.072       98.890        0.061      347.981       27.341      862.388
08/16/2013  19:43:00     -551.372     -124.647      -27.964      204.960      194.647       87.878    42008.517    37887.643     7722.464       20.396        4.381      565.286       87.256        0.024      348.041       27.444      862.407
08/16/2013  19:44:00     -397.709     -152.832      -17.080      212.641      199.223       85.410    45216.323    39689.632     7294.849       13.700        4.610      426.063      101.603        0.057      347.979       27.336      862.419
08/16/2013  19:45:00     -357.367     -268.254       16.260      273.636      226.652      110.690    74876.536    51371.030    12252.322       16.919        6.925      446.846      147.865        0.110      347.988       27.353      862.424
08/16/2013  19:46:00     -227.802      -72.784       47.337      293.503      155.138      110.884    86144.073    24067.825    12295.300        9.095        6.125      239.147      136.096        0.324      347.986       27.350      862.478
08/16/2013  19:47:00     -357.946     -230.431      -25.694      213.137      180.030      101.594    45427.453    32410.868    10321.388       13.501        4.408      425.704      105.131        0.061      348.004       27.380      862.432
08/16/2013  19:48:00     -326.881     -120.116      -23.027      200.113      134.331       71.076    40045.186    18044.760     5051.815        9.247        3.157      348.252       77.685        0.050      347.963       27.310      862.439
08/16/2013  19:49:00     -507.206     -152.985      -36.636      248.042      155.352       90.920    61524.693    24134.370     8266.464       18.795        4.696      529.776       95.309        0.032      347.990       27.358      862.422
08/16/2013  19:50:00     -379.197     -158.425        1.989      202.107      152.863       85.799    40847.172    23366.986     7361.467       12.022        3.579      410.961      111.011        0.073      347.911       27.221      862.423
08/16/2013  19:51:00     -386.942      -77.316       -9.040      239.739      175.789       87.653    57474.939    30901.808     7683.096       12.591        4.803      394.590      101.780        0.067      347.900       27.201      862.446
08/16/2013  19:52:00     -408.135      -12.836       -7.315      247.673      128.979      101.892    61341.863    16635.544    10381.896       12.756        4.418      408.336      127.927        0.098      347.884       27.173      862.443
08/16/2013  19:53:00     -167.892     -134.221       33.063      201.255      160.999      100.295    40503.476    25920.803    10059.049        6.188        3.824      214.949      116.685        0.295      347.891       27.187      862.441
08/16/2013  19:54:00     -309.483     -157.148      -25.653      167.469       98.629       65.831    28046.009     9727.760     4333.770        8.161        2.105      347.095       72.148        0.043      347.939       27.268      862.418
08/16/2013  19:55:00     -460.448     -149.694      -37.826      213.990      143.378       74.048    45791.626    20557.135     5483.150       15.383        3.592      484.170       84.154        0.030      347.932       27.255      862.459
08/16/2013  19:56:00     -418.422     -245.702      -15.344      186.979      166.875      100.185    34961.209    27847.148    10037.029       15.425        3.642      485.228      104.087        0.046      347.935       27.261      862.495
08/16/2013  19:57:00     -253.678     -126.461      -12.378      143.962      132.670       84.397    20725.006    17601.382     7122.865        6.297        2.272      283.452       81.746        0.083      347.922       27.238      862.562
08/16/2013  19:58:00     -286.947     -214.646       11.584      222.989      164.976       92.132    49724.182    27217.022     8488.316       10.697        4.271      358.345       88.104        0.060      347.929       27.251      862.550
08/16/2013  19:59:00     -128.371     -140.567       15.664      166.914      129.328       83.001    27860.243    16725.616     6889.105        4.397        2.574      190.363       91.406        0.231      347.894       27.191      862.563
08/16/2013  20:00:00     -266.350     -132.205       -1.678      163.117      125.443       63.245    26607.057    15736.065     3999.962        6.738        2.317      297.356       64.042        0.046      347.893       27.188      862.574
08/16/2013  20:01:00     -372.315     -144.904      -20.637      173.360      155.701       78.469    30053.667    24242.731     6157.399       11.024        3.023      399.520       75.318        0.036      347.898       27.197      862.561
08/16/2013  20:02:00     -277.882     -141.884       13.820      189.040      140.771      101.367    35736.240    19816.614    10275.347        8.167        3.291      312.009      113.015        0.131      347.850       27.113      862.577
08/16/2013  20:03:00     -525.648     -145.072      -34.157      247.620      180.219      108.883    61315.736    32478.826    11855.492       20.207        5.283      545.300      119.618        0.048      347.884       27.175      862.524
08/16/2013  20:04:00     -534.844     -194.698      -25.983      201.672      174.566      106.764    40671.619    30473.312    11398.513       20.358        4.127      569.180      104.460        0.034      347.875       27.157      862.546
08/16/2013  20:05:00     -314.337     -168.424       13.088      232.709      171.478      100.569    54153.273    29404.694    10114.141       11.049        4.684      356.615      125.741        0.124      347.854       27.122      862.575
08/16/2013  20:06:00     -304.320      -90.151       -9.342      211.419      171.731       74.320    44697.810    29491.482     5523.448        9.026        3.986      317.392       77.892        0.060      347.857       27.127      862.593
08/16/2013  20:07:00     -376.403     -132.968      -15.270      185.863      138.796       83.067    34544.963    19264.228     6900.075       11.014        3.035      399.199       84.517        0.045      347.904       27.207      862.595
08/16/2013  20:08:00     -166.250     -170.556       15.918      176.717      116.874       85.062    31228.958    13659.459     7235.464        5.454        2.606      238.177       89.245        0.140      347.816       27.055      862.583
08/16/2013  20:09:00     -325.019      -74.053      -22.340      192.292      143.743       90.006    36976.358    20662.110     8101.029        8.867        3.287      333.349       70.965        0.045      347.816       27.056      862.596
08/16/2013  20:10:00     -395.460     -243.895      -13.580      180.900      147.846       91.795    32724.883    21858.579     8426.319       13.952        3.150      464.621       84.550        0.033      347.840       27.095      862.621
08/16/2013  20:11:00     -343.229      -22.713       -5.294      195.562      150.134       84.671    38244.467    22540.183     7169.204        9.314        3.398      343.980       87.514        0.065      347.789       27.010      862.653
08/16/2013  20:12:00     -198.735      -94.600        9.686      144.882      103.304       69.871    20990.899    10671.714     4881.916        4.254        1.827      220.102       69.645        0.100      347.819       27.061      862.652
08/16/2013  20:13:00     -192.853     -150.306       13.273      243.720      186.991       96.574    59399.636    34965.700     9326.511        8.181        5.185      244.508      108.195        0.196      347.736       26.919      862.652
08/16/2013  20:14:00     -490.426     -234.062      -10.044      255.760      232.612       98.436    65413.211    54108.121     9689.650       21.229        6.461      543.418      119.151        0.048      347.820       27.062      862.646
08/16/2013  20:15:00     -333.453      -97.703       -5.093      206.927      150.818       87.283    42818.739    22745.919     7618.334        9.696        3.659      347.472      101.516        0.085      347.766       26.969      862.663
08/16/2013  20:16:00     -299.644     -226.958       -1.073      218.673      176.592      123.590    47817.753    31184.645    15274.491       11.777        4.714      375.895      121.605        0.105      347.775       26.985      862.671
08/16/2013  20:17:00     -329.478      -97.954      -14.113      173.978      118.813       69.559    30268.306    14116.449     4838.473        8.378        2.461      343.731       75.480        0.048      347.787       27.005      862.713
08/16/2013  20:18:00     -254.745     -135.640       -7.729      172.723      135.929       78.164    29833.162    18476.781     6109.636        6.888        2.721      288.606       91.016        0.099      347.759       26.958      862.727
08/16/2013  20:19:00     -288.767      -46.519        2.332      214.347      153.832       84.222    45944.539    23664.404     7093.389        8.112        3.835      292.490      106.806        0.133      347.737       26.921      862.711
08/16/2013  20:20:00     -235.717      -74.316       -1.850      145.283      135.633       65.471    21107.022    18396.406     4286.414        5.243        2.189      247.155       74.242        0.090      347.747       26.938      862.744
08/16/2013  20:21:00     -350.790      -69.059       -7.087      130.758      113.870       73.899    17097.702    12966.444     5461.020        8.169        1.776      357.523       72.779        0.041      347.746       26.935      862.794
08/16/2013  20:22:00     -218.263      -85.161       -5.329      143.620      115.217       66.449    20626.726    13274.962     4415.531        4.661        1.916      234.289       57.265        0.060      347.707       26.870      862.849
08/16/2013  20:23:00     -140.017     -132.839       -1.144      162.793      126.991       69.751    26501.436    16126.689     4865.220        4.236        2.375      193.005       70.800        0.135      347.685       26.830      862.874
08/16/2013  20:24:00     -209.417     -144.901       -0.122      140.651       98.868       62.641    19782.786     9774.863     3923.833        4.916        1.674      254.660       67.580        0.070      347.716       26.885      862.906
08/16/2013  20:25:00     -252.607     -111.807       -6.317       95.992       76.082       45.260     9214.554     5788.412     2048.509        4.670        0.853      276.245       46.025        0.028      347.688       26.836      862.930
08/16/2013  20:26:00     -236.989     -111.199       -2.887      140.685       95.597       52.067    19792.384     9138.758     2710.930        5.008        1.582      261.781       59.582        0.052      347.644       26.758      862.951
08/16/2013  20:27:00     -318.806     -109.913        3.441      232.989      135.233       71.234    54283.997    18287.912     5074.216        9.568        3.882      337.221       97.506        0.084      347.621       26.719      862.990
08/16/2013  20:28:00     -293.718      -87.670      -10.471      143.411      122.988       61.878    20566.774    15126.130     3828.839        6.679        1.976      306.523       58.620        0.037      347.618       26.714      862.996
08/16/2013  20:29:00     -213.959      -41.824       -5.247      141.242      116.649       60.750    19949.326    13607.103     3690.565        4.239        1.862      218.008       57.513        0.070      347.622       26.722      863.025
08/16/2013  20:30:00     -253.526      -54.728      -10.856      130.377      108.672       58.696    16998.144    11809.561     3445.223        4.982        1.613      259.365       49.988        0.037      347.613       26.706      863.057
08/16/2013  20:31:00     -204.679      -97.336       -1.404      107.059       77.673       47.825    11461.584     6033.032     2287.191        3.557        0.989      226.645       46.934        0.043      347.582       26.654      863.044
08/16/2013  20:32:00     -308.477      -24.294      -18.148       94.701       85.365       55.528     8968.246     7287.114     3083.390        5.770        0.967      309.432       46.436        0.023      347.535       26.571      863.051
08/16/2013  20:33:00     -201.035      -89.770        7.925      150.310      116.510       60.856    22593.173    13574.504     3703.491        4.420        1.994      220.168       67.596        0.094      347.417       26.367      863.095
08/16/2013  20:34:00     -332.730     -131.695      -11.147      153.498      122.991       58.467    23561.663    15126.730     3418.392        8.513        2.105      357.844       61.188        0.029      347.363       26.274      863.108
08/16/2013  20:35:00     -230.809      -55.163       -6.793      127.727       88.689       55.300    16314.207     7865.717     3058.087        4.180        1.362      237.310       53.949        0.052      347.319       26.198      863.150
08/16/2013  20:36:00     -137.225      -86.587       -0.711       89.675       73.265       39.634     8041.532     5367.760     1570.872        2.065        0.749      162.259       34.890        0.046      347.277       26.127      863.162
08/16/2013  20:37:00     -200.092      -81.169      -19.863       89.363       79.928       40.436     7985.742     6388.564     1635.033        3.151        0.800      215.928       40.188        0.035      347.264       26.104      863.145
08/16/2013  20:38:00     -179.804      -21.385       -7.677       81.710       60.153       41.205     6676.566     3618.409     1697.848        2.242        0.600      181.071       39.091        0.047      347.237       26.058      863.157
08/16/2013  20:39:00     -343.354       69.281      -34.419       81.758       75.073       45.944     6684.345     5635.894     2110.886        6.915        0.722      350.274       33.707        0.009      347.235       26.052      863.169
08/16/2013  20:40:00     -233.908       45.410      -21.802       97.222       94.365       45.247     9452.030     8904.832     2047.266        3.882        1.020      238.275       43.461        0.033      347.074       25.775      863.191
08/16/2013  20:41:00     -368.973     -116.928      -33.185      122.957       93.142       60.225    15118.348     8675.362     3627.004        8.916        1.371      387.057       50.982        0.017      347.061       25.754      863.200
08/16/2013  20:42:00     -371.874      -61.326      -19.235      131.927      111.723       62.915    17404.722    12482.134     3958.293        8.813        1.692      376.897       61.038        0.026      347.066       25.763      863.237
08/16/2013  20:43:00     -303.332      -96.999       -0.294      125.474      119.677       53.536    15743.730    14322.610     2866.124        6.717        1.647      318.464       55.767        0.031      347.063       25.759      863.235
08/16/2013  20:44:00     -223.626      -51.645       -3.105      115.487       95.463       59.109    13337.237     9113.115     3493.865        3.931        1.297      229.512       54.852        0.057      347.034       25.708      863.265
08/16/2013  20:45:00     -195.249      -21.639       -7.364      102.837       92.298       52.587    10575.517     8518.917     2765.345        3.025        1.093      196.445       57.121        0.085      347.131       25.876      863.269
08/16/2013  20:46:00     -291.734       59.839      -27.231      155.066       74.180       58.280    24045.362     5502.676     3396.533        6.118        1.647      297.808       73.143        0.060      347.216       26.023      863.260
08/16/2013  20:47:00     -391.400      -75.087      -14.377      135.207      134.264       71.928    18280.937    18026.730     5173.689       10.025        2.074      398.537       70.089        0.031      347.368       26.282      863.261
08/16/2013  20:48:00     -395.183      -83.766      -25.776      163.359      108.980       58.999    26686.001    11876.572     3480.885       10.294        2.102      403.963       73.101        0.033      347.381       26.306      863.267
08/16/2013  20:49:00     -375.079     -128.037      -11.667      161.097      110.857       58.430    25952.368    12289.195     3414.083        9.943        2.083      396.330       54.901        0.019      347.385       26.312      863.316
08/16/2013  20:50:00     -278.751      -39.828       -9.189      118.165       85.404       57.939    13962.931     7293.801     3356.946        5.199        1.231      281.582       53.751        0.036      347.341       26.236      863.339
08/16/2013  20:51:00     -354.221      -45.095      -20.557      102.421      117.652       44.409    10490.089    13841.964     1972.117        7.711        1.315      357.080       36.703        0.011      347.409       26.352      863.332
08/16/2013  20:52:00     -341.510       -4.743      -38.508       98.939      115.238       50.357     9788.965    13279.700     2535.854        7.187        1.280      341.543       47.160        0.019      347.450       26.422      863.337
08/16/2013  20:53:00     -239.449      -12.887      -14.350      134.000       95.924       58.187    17955.895     9201.445     3385.747        4.412        1.527      239.795       54.983        0.053      347.369       26.287      863.332
08/16/2013  20:54:00     -364.594     -112.865       -6.849      133.430      101.854       53.548    17803.630    10374.184     2867.418        8.837        1.552      381.663       62.085        0.026      347.457       26.435      863.329
08/16/2013  20:55:00     -199.508      -66.603      -10.272       85.575       96.749       55.024     7323.087     9360.412     3027.645        3.202        0.986      210.332       56.861        0.073      347.355       26.260      863.349
08/16/2013  20:56:00     -149.828      -44.631      -11.429       99.668       96.064       50.903     9933.655     9228.300     2591.141        2.316        1.088      156.334       36.905        0.056      347.281       26.135      863.363
08/16/2013  20:57:00     -225.722      -86.982       -7.165      101.820      117.475       47.997    10367.273    13800.451     2303.698        4.252        1.324      241.901       41.846        0.030      347.258       26.093      863.388
08/16/2013  20:58:00     -253.482      -66.425       -8.750      100.208       85.861       57.736    10041.656     7372.062     3333.442        4.474        1.037      262.041       48.435        0.034      347.228       26.042      863.390
08/16/2013  20:59:00     -189.699        5.561       -2.829      127.581       84.606       46.732    16276.974     7158.169     2183.898        3.082        1.281      189.780       50.053        0.070      347.144       25.898      863.402
08/16/2013  21:00:00     -262.026       18.850      -25.563       59.445       65.571       33.950     3533.722     4299.516     1152.588        3.932        0.449      262.704       32.193        0.015      347.199       25.990      863.411
08/16/2013  21:01:00     -105.083      -30.364        4.124       89.744       83.352       34.259     8053.928     6947.509     1173.657        1.408        0.809      109.382       40.042        0.134      346.994       25.641      863.421
08/16/2013  21:02:00     -123.227      -29.797       -7.178       65.536       46.741       36.038     4294.955     2184.696     1298.721        1.195        0.389      126.778       32.559        0.066      347.056       25.749      863.426
08/16/2013  21:03:00     -109.044       -1.557       -4.977       65.387       97.712       36.022     4275.510     9547.641     1297.571        1.352        0.756      109.055       49.615        0.207      347.134       25.883      863.413
08/16/2013  21:04:00     -126.271       84.340       -8.905       86.412       69.275       50.621     7467.047     4798.965     2562.436        1.898        0.741      151.847       45.248        0.089      346.892       25.465      863.444
08/16/2013  21:05:00     -179.605      -54.016      -23.096       71.582       72.394       41.943     5124.032     5240.855     1759.210        2.391        0.606      187.552       42.570        0.052      346.940       25.546      863.461
08/16/2013  21:06:00     -145.979       24.805      -20.399       85.665       51.505       33.558     7338.483     2652.727     1126.134        1.673        0.556      148.071       36.141        0.060      346.928       25.527      863.466
08/16/2013  21:07:00     -132.168        4.412      -12.249       41.313       47.772       27.382     1706.731     2282.141      749.760        1.119        0.237      132.241       15.001        0.013      346.918       25.510      863.466
08/16/2013  21:08:00     -131.590      -68.757       -7.924       62.855       54.569       40.169     3950.688     2977.736     1613.525        1.532        0.427      148.470       24.236        0.027      346.797       25.304      863.479
08/16/2013  21:09:00     -120.499      -27.797       -4.435       59.717       56.526       49.992     3566.130     3195.163     2499.193        1.228        0.463      123.664       42.744        0.119      346.786       25.285      863.476
08/16/2013  21:10:00      -87.177       13.808       -0.791       43.378       36.122       26.412     1881.660     1304.808      697.578        0.584        0.194       88.264       25.335        0.082      346.675       25.092      863.490
08/16/2013  21:11:00      -69.292       71.210       -6.431       62.645       55.704       33.774     3924.409     3102.924     1140.654        0.904        0.408       99.359       33.958        0.117      346.748       25.219      863.510
08/16/2013  21:12:00     -149.112      191.192      -35.948       66.082       52.524       41.780     4366.872     2758.792     1745.575        3.447        0.444      242.464       33.611        0.019      346.822       25.341      863.525
08/16/2013  21:13:00     -110.182      147.526      -25.002       69.142       60.057       41.720     4780.618     3606.817     1740.557        2.233        0.506      184.130       27.812        0.023      346.790       25.289      863.556
08/16/2013  21:14:00      -72.028      147.916       -6.362       51.077       76.691       41.854     2608.853     5881.493     1751.781        1.867        0.512      164.522       32.164        0.038      346.793       25.295      863.560
08/16/2013  21:15:00     -122.388      160.994      -15.302       50.399       67.532       37.282     2540.100     4560.552     1389.973        2.481        0.425      202.232       34.027        0.028      346.817       25.334      863.576
08/16/2013  21:16:00     -105.249      171.715      -29.609       77.154       51.725       38.978     5952.790     2675.497     1519.248        2.579        0.507      201.404       41.619        0.043      346.835       25.367      863.604
08/16/2013  21:17:00      -49.641      176.716      -20.584       35.298       52.272       23.548     1245.971     2732.368      554.524        1.932        0.227      183.556       18.321        0.010      346.758       25.234      863.604
08/16/2013  21:18:00      -44.687      174.139      -23.302       51.618       53.022       33.026     2664.397     2811.332     1090.701        1.971        0.328      179.781       26.898        0.022      346.628       25.010      863.606
08/16/2013  21:19:00     -103.440      145.781      -25.594       46.307       61.201       27.501     2144.360     3745.524      756.304        1.963        0.332      178.751       26.536        0.022      346.715       25.160      863.631
08/16/2013  21:20:00      -14.124      136.264      -15.341       31.076       52.139       24.020      965.688     2718.522      576.975        1.163        0.213      136.994       15.083        0.012      346.654       25.058      863.638
08/16/2013  21:21:00      -53.716      178.775      -17.648       40.367       55.719       28.798     1629.489     3104.654      829.344        2.036        0.278      186.671       27.357        0.021      346.748       25.216      863.627
08/16/2013  21:22:00      -35.342      188.063      -22.845       54.082       49.494       25.975     2924.848     2449.632      674.694        2.159        0.302      191.355       27.980        0.021      346.768       25.251      863.644
08/16/2013  21:23:00      -20.159      151.273      -17.151       52.863       62.756       35.862     2794.467     3938.286     1286.087        1.580        0.401      152.611       28.921        0.036      346.768       25.253      863.665
08/16/2013  21:24:00       -5.714      121.784      -18.945       33.070       38.077       20.312     1093.652     1449.850      412.576        0.909        0.148      121.918       19.029        0.024      346.654       25.056      863.679
08/16/2013  21:25:00        5.055      104.933      -17.011       36.500       46.243       22.952     1332.270     2138.453      526.790        0.766        0.200      105.055       26.888        0.066      346.605       24.972      863.682
08/16/2013  21:26:00      -24.452      101.708      -14.267       45.347       46.095       28.120     2056.354     2124.795      790.752        0.806        0.249      104.606       28.612        0.075      346.553       24.883      863.698
08/16/2013  21:27:00       -9.919      139.743      -21.489       36.743       34.114       21.186     1350.080     1163.736      448.842        1.152        0.148      140.095       18.848        0.018      346.674       25.091      863.714
08/16/2013  21:28:00      -10.633      193.480      -24.656       28.701       37.641       18.533      823.773     1416.834      343.456        2.037        0.129      193.772        8.537        0.002      346.825       25.349      863.718
08/16/2013  21:29:00       29.323      150.161      -23.685       76.281       51.908       25.337     5818.827     2694.434      641.961        1.656        0.458      152.997       25.745        0.028      346.755       25.230      863.712
08/16/2013  21:30:00       18.305      132.149       -8.474       81.022       63.086       36.563     6564.639     3979.887     1336.828        1.487        0.594      133.410       38.391        0.083      346.655       25.058      863.712
08/16/2013  21:31:00       -1.263      123.759      -16.344       22.458       29.645       19.654      504.364      878.837      386.281        0.868        0.088      123.766       10.104        0.007      346.556       24.888      863.731
08/16/2013  21:32:00      -14.358      117.787       -4.060       40.111       36.511       23.357     1608.873     1333.036      545.551        0.879        0.174      118.659       20.561        0.030      346.526       24.836      863.744
08/16/2013  21:33:00      -22.656      109.601      -12.148       43.692       33.273       25.711     1908.971     1107.078      661.065        0.817        0.184      111.918       20.365        0.033      346.545       24.868      863.745
08/16/2013  21:34:00       -0.296      147.850      -21.533       31.080       44.397       19.460      965.958     1971.133      378.695        1.282        0.166      147.850       21.335        0.021      346.631       25.018      863.757
08/16/2013  21:35:00       -6.623      154.173      -25.745       42.442       54.096       23.149     1801.362     2926.325      535.895        1.487        0.263      154.315       15.916        0.011      346.673       25.089      863.763
08/16/2013  21:36:00      -13.596      178.892      -23.706       44.327       55.468       28.851     1964.896     3076.695      832.405        1.931        0.294      179.408       31.479        0.031      346.706       25.145      863.748
08/16/2013  21:37:00        8.974      147.222      -16.912       25.762       75.316       28.242      663.689     5672.512      797.612        1.459        0.357      147.495       34.742        0.055      346.584       24.937      863.737
08/16/2013  21:38:00       -7.166      160.673      -10.543       46.760       71.313       31.717     2186.461     5085.503     1005.958        1.713        0.414      160.832       30.884        0.037      346.428       24.667      863.739
08/16/2013  21:39:00        5.451      238.696      -31.768       41.562       65.689       32.314     1727.362     4314.992     1044.212        3.255        0.354      238.758       36.402        0.023      346.721       25.169      863.731
08/16/2013  21:40:00     -109.583       81.667      -24.157       46.877       74.603       28.175     2197.482     5565.664      793.847        1.391        0.428      136.667       30.873        0.051      346.639       25.031      863.738
08/16/2013  21:41:00      -78.788       96.098      -19.712       43.559       44.855       24.652     1897.357     2011.964      607.698        1.017        0.226      124.267       21.383        0.030      346.575       24.921      863.756
08/16/2013  21:42:00      -96.514       98.047      -21.471       56.494       53.080       29.948     3191.539     2817.443      896.859        1.315        0.345      137.579       26.602        0.037      346.575       24.920      863.748
08/16/2013  21:43:00      -62.186       75.971      -17.275       53.631       53.800       27.367     2876.245     2894.405      748.959        0.823        0.326       98.177       34.020        0.120      346.456       24.717      863.741
08/16/2013  21:44:00      -47.735      163.674      -17.099       78.777       55.612       35.546     6205.809     3092.700     1263.517        1.996        0.528      170.493       34.367        0.041      346.476       24.749      863.742
08/16/2013  21:45:00      -91.818      169.953      -24.296       57.917       61.631       28.780     3354.358     3798.333      828.300        2.294        0.399      193.170       32.010        0.027      346.467       24.733      863.749
08/16/2013  21:46:00      -76.178       96.205      -20.425       46.567       59.817       22.313     2168.523     3578.068      497.855        1.086        0.312      122.713       30.042        0.060      346.635       25.024      863.768
08/16/2013  21:47:00       21.084      114.105      -16.198       82.155       51.010       46.433     6749.494     2601.989     2156.027        1.262        0.575      116.036       38.089        0.108      346.597       24.959      863.779
08/16/2013  21:48:00        7.578       49.699        8.557       46.464       43.079       24.518     2158.929     1855.797      601.155        0.361        0.231       50.274       25.781        0.263      346.430       24.672      863.796
08/16/2013  21:49:00      -59.974       38.504       -5.433       42.937       38.866       20.751     1843.607     1510.574      430.603        0.445        0.189       71.270       19.372        0.074      346.538       24.858      863.826
08/16/2013  21:50:00      -75.346       92.976      -22.456       37.450       35.760       23.933     1402.534     1278.781      572.779        0.904        0.163      119.672        8.256        0.005      346.450       24.706      863.847
08/16/2013  21:51:00     -126.872      194.774      -40.433       59.875       52.813       32.526     3585.040     2789.248     1057.919        3.155        0.372      232.451       24.070        0.011      346.583       24.933      863.879
08/16/2013  21:52:00     -144.819      152.820      -40.747       60.666       60.662       32.727     3680.355     3679.933     1071.065        2.721        0.422      210.539       31.367        0.022      346.683       25.105      863.888
08/16/2013  21:53:00     -118.170       64.583      -16.119       55.042       81.587       32.974     3029.670     6656.499     1087.291        1.458        0.539      134.666       34.328        0.065      346.527       24.839      863.891
08/16/2013  21:54:00     -161.080      126.979      -28.694       83.742       81.401       47.058     7012.703     6626.046     2214.478        2.937        0.793      205.111       48.564        0.056      346.511       24.809      863.894
08/16/2013  21:55:00     -109.134      115.953      -14.255       48.800       65.573       34.320     2381.414     4299.755     1177.865        1.671        0.393      159.234       26.628        0.028      346.645       25.039      863.903
08/16/2013  21:56:00      -89.360      104.869      -20.149       35.560       44.110       28.505     1264.521     1945.729      812.513        1.171        0.201      137.778       27.880        0.041      346.648       25.046      863.901
08/16/2013  21:57:00      -98.952       43.310       -4.565       44.047       37.780       21.816     1940.108     1427.315      475.924        0.777        0.192      108.015       17.586        0.027      346.568       24.909      863.901
08/16/2013  21:58:00      -83.299       66.395      -11.548       46.064       42.667       27.190     2121.884     1820.448      739.313        0.808        0.234      106.522       32.985        0.096      346.523       24.831      863.888
08/16/2013  21:59:00     -121.736       25.960      -14.827       36.277       27.531       25.056     1315.988      757.939      627.796        0.921        0.135      124.473       15.138        0.015      346.551       24.881      863.878
08/16/2013  22:00:00      -84.761       82.549      -23.342       34.923       38.419       22.193     1219.584     1476.014      492.550        0.887        0.159      118.316       19.342        0.027      346.492       24.779      863.862
08/16/2013  22:01:00     -101.096      125.502      -23.104       56.552       61.303       32.141     3198.151     3758.085     1033.033        1.725        0.399      161.156       25.892        0.026      346.547       24.870      863.846
08/16/2013  22:02:00     -108.787      145.667      -20.023       47.369       69.999       31.930     2243.814     4899.925     1019.527        2.081        0.408      181.806       29.817        0.027      346.679       25.098      863.841
08/16/2013  22:03:00      -96.243      130.032      -23.478       44.915       53.838       29.499     2017.354     2898.478      870.177        1.625        0.289      161.775       23.762        0.022      346.626       25.008      863.829
08/16/2013  22:04:00      -83.545      122.938      -14.945       51.164       63.406       36.203     2617.783     4020.266     1310.675        1.513        0.397      148.638       26.873        0.033      346.621       25.000      863.819
08/16/2013  22:05:00     -109.764       31.036       -8.454       52.538       49.618       28.847     2760.248     2461.914      832.128        0.957        0.303      114.067       22.549        0.039      346.584       24.936      863.832
08/16/2013  22:06:00      -63.323       22.608       -3.158       70.044       31.331       35.607     4906.183      981.627     1267.841        0.584        0.358       67.238       36.858        0.300      346.342       24.520      863.842
08/16/2013  22:07:00      -17.579       17.287        4.376       26.087       20.151       13.688      680.512      406.048      187.366        0.095        0.064       24.655        5.517        0.050      346.443       24.695      863.823
08/16/2013  22:08:00      -52.122        8.429        1.793       66.532       37.293       23.361     4426.511     1390.797      545.738        0.458        0.318       52.799       36.262        0.472      346.344       24.525      863.817
08/16/2013  22:09:00     -145.854       93.531      -27.701       80.377       96.809       31.701     6460.429     9371.977     1004.977        2.381        0.842      173.267       44.009        0.065      346.624       25.004      863.832
08/16/2013  22:10:00     -108.748       78.717      -11.807       35.869       65.879       33.413     1286.606     4340.095     1116.403        1.245        0.337      134.248       36.250        0.073      346.534       24.851      863.844
08/16/2013  22:11:00        8.452      108.819       -0.870       43.745       64.087       29.207     1913.655     4107.104      853.035        0.939        0.344      109.147       35.078        0.103      346.385       24.595      863.817
08/16/2013  22:12:00        5.475      -17.098       -7.467       33.120       33.811       30.617     1096.944     1143.212      937.384        0.178        0.159       17.953       17.324        0.931      346.275       24.404      863.822
08/16/2013  22:13:00       -4.658        4.326      -17.254       40.732       39.045       27.689     1659.073     1524.474      766.697        0.214        0.198        6.357       13.257        4.349      346.349       24.533      863.872
08/16/2013  22:14:00      -13.033      -41.427       15.371       41.801       50.047       22.287     1747.345     2504.672      496.730        0.343        0.237       43.429       13.516        0.097      346.134       24.164      863.896
08/16/2013  22:15:00        3.121       32.143       47.164       21.039       37.077       33.714      442.657     1374.716     1136.658        0.311        0.148       32.294       32.123        0.989      345.684       23.390      863.892
08/16/2013  22:16:00       77.087       40.625       28.399       37.079       35.318       32.608     1374.854     1247.394     1063.308        0.604        0.184       87.136       22.699        0.068      345.515       23.100      863.890
08/16/2013  22:17:00       78.082       36.949       35.281       52.055       38.851       44.506     2709.770     1509.374     1980.772        0.745        0.310       86.383       35.966        0.173      345.924       23.803      863.920
08/16/2013  22:18:00      100.056       43.663       20.955       41.815       29.197       32.129     1748.525      852.471     1032.243        0.799        0.182      109.168        1.542        0.000      346.242       24.348      863.948
08/16/2013  22:19:00       95.331       64.544       41.218       44.086       41.833       41.892     1943.583     1750.002     1754.905        1.020        0.272      115.126       28.034        0.059      346.285       24.423      863.944
08/16/2013  22:20:00      118.370       84.286       36.458       44.600       28.504       30.690     1989.204      812.500      941.901        1.309        0.187      145.313       20.691        0.020      346.341       24.520      863.934
08/16/2013  22:21:00      106.188       64.285       40.728       43.270       39.775       36.325     1872.292     1582.039     1319.473        1.092        0.239      124.131       27.020        0.047      346.208       24.288      863.939
08/16/2013  22:22:00      108.143       67.526       32.620       25.356       23.765       21.160      642.940      564.772      447.754        0.949        0.083      127.494       11.029        0.007      346.256       24.373      863.942
08/16/2013  22:23:00       91.160       49.912       33.015       48.631       41.308       38.749     2364.978     1706.368     1501.499        0.873        0.279      103.930       31.283        0.091      346.078       24.067      863.942
08/16/2013  22:24:00       87.245       92.180      100.920       43.573       46.191       33.969     1898.623     2133.564     1153.909        1.574        0.259      126.921       25.698        0.041      345.889       23.742      863.960
08/16/2013  22:25:00       64.646      117.032      124.540       58.510       65.744       40.117     3423.451     4322.316     1609.337        2.137        0.468      133.700       44.672        0.112      345.959       23.860      863.954
08/16/2013  22:26:00       14.165      149.342      160.961       54.033       54.511       40.880     2919.528     2971.458     1671.135        2.799        0.378      150.012       41.600        0.077      345.933       23.816      863.940
08/16/2013  22:27:00       32.209      105.767      115.623       46.457       56.792       40.746     2158.272     3225.380     1660.197        1.632        0.352      110.562       36.085        0.107      345.929       23.810      863.945
08/16/2013  22:28:00       50.939       35.366       69.947       44.737       66.696       38.543     2001.436     4448.293     1485.540        0.834        0.397       62.013       43.409        0.490      345.848       23.672      863.944
08/16/2013  22:29:00       23.052      -36.921       17.938       33.302       68.389       29.993     1109.020     4677.097      899.600        0.445        0.334       43.526       32.357        0.553      345.730       23.469      863.948
08/16/2013  22:30:00      -15.755      -56.641       -5.530       38.947       32.673       25.540     1516.904     1067.521      652.273        0.336        0.162       58.792       12.761        0.047      345.746       23.496      863.961
08/16/2013  22:31:00      -13.886      -24.156       16.662       55.619       27.286       29.149     3093.464      744.552      849.676        0.287        0.234       27.863       24.440        0.769      345.754       23.510      863.988
08/16/2013  22:32:00      -28.272      -81.227       15.187       47.051       43.235       25.701     2213.843     1869.253      660.533        0.618        0.237       86.006       17.195        0.040      345.864       23.700      864.004
08/16/2013  22:33:00       29.897      -57.013       18.489       43.635       31.859       25.930     1904.003     1014.974      672.341        0.404        0.180       64.376       19.498        0.092      345.685       23.393      864.026
08/16/2013  22:34:00       28.498      -37.309       16.275       46.572       73.868       34.563     2168.971     5456.507     1194.619        0.564        0.441       46.948       39.850        0.720      345.411       22.923      864.015
08/16/2013  22:35:00       24.723        6.088       35.757       57.053       44.978       35.309     3255.079     2022.979     1246.732        0.422        0.326       25.461       30.493        1.434      344.840       21.945      864.002
08/16/2013  22:36:00       51.643      -47.466       30.987       70.952      113.682       57.495     5034.164    12923.551     3305.717        1.357        1.063       70.143       71.561        1.041      345.451       22.990      864.018
08/16/2013  22:37:00       15.028      -34.890       33.388       33.228       53.244       42.653     1104.081     2834.948     1819.274        0.416        0.288       37.989       35.558        0.876      345.357       22.829      864.043
08/16/2013  22:38:00       38.145      -50.217        0.942       50.421       57.686       45.533     2542.327     3327.672     2073.284        0.596        0.397       63.062       38.569        0.374      345.479       23.040      864.036
08/16/2013  22:39:00       34.095      -76.648        8.357       47.761       51.861       39.040     2281.119     2689.599     1524.139        0.680        0.325       83.889       16.285        0.038      345.851       23.678      864.036
08/16/2013  22:40:00       24.411       -1.170       31.044       40.999       34.581       34.170     1680.956     1195.830     1167.599        0.280        0.202       24.439       26.522        1.178      345.066       22.331      864.022
08/16/2013  22:41:00       30.683       -1.873       34.189       44.057       36.310       31.775     1941.029     1318.447     1009.677        0.319        0.213       30.741       26.747        0.757      344.851       21.964      864.003
08/16/2013  22:42:00       61.671      -38.519       17.482       43.904       48.075       39.517     1927.603     2311.206     1561.588        0.570        0.290       72.712       36.725        0.255      344.598       21.531      864.006
08/16/2013  22:43:00       44.034       -2.556       26.941       45.889       37.599       32.272     2105.834     1413.710     1041.491        0.362        0.228       44.108       31.495        0.510      344.476       21.321      864.001
08/16/2013  22:44:00       83.506      -42.268        4.513       46.354       54.149       39.448     2148.671     2932.161     1556.117        0.771        0.332       93.594       31.856        0.116      344.688       21.684      864.002
08/16/2013  22:45:00       34.853      -19.814       24.156       39.176       47.955       35.487     1534.737     2299.659     1259.357        0.364        0.255       40.091       27.733        0.479      345.059       22.321      864.011
08/16/2013  22:46:00       30.272      -33.043       22.660       32.824       41.713       28.351     1077.422     1739.981      803.782        0.307        0.181       44.813       25.536        0.325      345.238       22.625      864.015
08/16/2013  22:47:00       -0.628       -9.050       18.085       20.170       38.931       22.399      406.827     1515.647      501.698        0.142        0.121        9.072       22.935        6.392      344.897       22.043      864.015
08/16/2013  22:48:00        2.274       11.763       29.701       16.921       16.308       16.137      286.322      265.963      260.392        0.092        0.041       11.981       10.744        0.804      344.657       21.632      864.025
08/16/2013  22:49:00        1.628       13.712       14.236        9.467       11.220       11.728       89.633      125.899      137.539        0.037        0.018       13.808        5.054        0.134      344.585       21.508      864.017
08/16/2013  22:50:00       -3.703      -22.648        2.939       21.917       25.986       13.216      480.377      675.267      174.658        0.093        0.067       22.949       12.744        0.308      345.387       22.881      864.009
08/16/2013  22:51:00        1.454       13.067        8.174        8.929       11.508       14.235       79.722      132.434      202.647        0.033        0.021       13.148       11.447        0.758      344.639       21.601      864.016
08/16/2013  22:52:00       11.420       -9.397        5.338       20.625       22.619       17.999      425.374      511.628      323.976        0.075        0.063       14.789       11.068        0.560      344.918       22.077      864.013
08/16/2013  22:53:00       18.346      -29.208       25.128       24.980       31.329       19.828      624.000      981.475      393.161        0.191        0.100       34.492       12.237        0.126      344.951       22.135      864.016
08/16/2013  22:54:00       61.373     -108.326      -13.832       35.837       37.154       24.908     1284.297     1380.411      620.404        0.949        0.164      124.504       23.402        0.035      345.753       23.508      864.001
08/16/2013  22:55:00        8.537      -30.365       21.790       18.645       26.007       19.161      347.651      676.376      367.141        0.143        0.070       31.542        8.948        0.080      345.296       22.724      863.978
08/16/2013  22:56:00       29.622        0.653       23.688       29.108       33.801       19.012      847.277     1142.496      361.445        0.189        0.118       29.630       11.805        0.159      344.840       21.945      863.963
08/16/2013  22:57:00      -14.939       14.195       24.133       15.754       28.250       26.970      248.202      798.065      727.381        0.139        0.089       20.607       24.985        1.470      344.955       22.143      863.957
08/16/2013  22:58:00      -77.861      -33.816       -8.206       31.129       11.551        9.280      969.001      133.419       86.118        0.423        0.059       84.888       11.680        0.019      345.361       22.836      863.979
08/16/2013  22:59:00      -77.884      -32.664       -4.006       15.618       12.464       13.820      243.933      155.356      190.994        0.387        0.030       84.456        8.283        0.010      345.314       22.755      863.995
08/16/2013  23:00:00      -30.963      -22.957       -2.108       28.351       20.873       12.245      803.790      435.683      149.935        0.144        0.069       38.545        7.182        0.035      345.279       22.696      864.003
08/16/2013  23:01:00      -37.120      -16.699        3.337       35.496       27.096       15.332     1259.995      734.199      235.060        0.195        0.111       40.703       17.377        0.182      345.336       22.794      864.020
08/16/2013  23:02:00       11.566       -0.330       24.722       24.463       25.090       14.578      598.415      629.522      212.515        0.109        0.072       11.570       13.772        1.417      344.583       21.503      864.022
08/16/2013  23:03:00      -64.065      -90.030       -6.746       25.666       24.539       16.143      658.750      602.177      260.580        0.689        0.076      110.498        6.208        0.003      345.729       23.467      864.018
08/16/2013  23:04:00      -34.494      -59.002        5.735       25.880       40.590       16.243      669.795     1647.556      263.837        0.364        0.129       68.346       17.168        0.063      345.620       23.282      864.035
08/16/2013  23:05:00      -85.340      -11.902        1.261       25.418       17.608       16.330      646.077      310.043      266.671        0.432        0.061       86.166       14.337        0.028      345.180       22.526      864.041
08/16/2013  23:06:00     -129.945      -37.557       -5.654       32.188       24.135       14.756     1036.093      582.496      217.749        1.008        0.092      135.264       14.346        0.011      345.287       22.709      864.042
08/16/2013  23:07:00     -113.553      -51.171        1.191       45.689       33.841       22.575     2087.522     1145.229      509.622        0.963        0.187      124.550       16.526        0.018      345.315       22.757      864.047
08/16/2013  23:08:00      -12.563        1.146       22.952       28.072       27.947       15.987      788.024      781.015      255.574        0.125        0.091       12.615       15.466        1.503      344.585       21.509      864.047
08/16/2013  23:09:00      -33.212     -106.698       -0.813       40.084       66.158       24.170     1606.737     4376.850      584.208        0.953        0.328      111.748       16.213        0.021      345.256       22.655      864.031
08/16/2013  23:10:00      -85.067      -66.187        4.837       42.846       35.386       19.955     1835.800     1252.155      398.211        0.756        0.174      107.783       23.766        0.049      345.231       22.614      864.024
08/16/2013  23:11:00      -28.822      -42.788       15.194       45.939       26.673       22.820     2110.378      711.428      520.754        0.312        0.167       51.589       22.751        0.194      345.153       22.481      864.038
08/16/2013  23:12:00     -100.858      -91.615       -0.173       69.369       53.764       27.776     4812.072     2890.535      771.480        1.352        0.424      136.256       31.899        0.055      345.173       22.514      864.052
08/16/2013  23:13:00      -83.637      -90.452       -8.622       51.390       51.472       27.024     2640.970     2649.384      730.299        1.063        0.301      123.194       24.533        0.040      345.152       22.478      864.043
08/16/2013  23:14:00      -87.870      -83.343       -8.739       69.533       46.779       42.953     4834.799     2188.282     1844.968        1.180        0.443      121.108       40.286        0.111      345.083       22.362      864.035
08/16/2013  23:15:00     -141.848     -110.588        0.503       53.987       69.481       30.883     2914.613     4827.634      953.777        2.052        0.435      179.863       30.744        0.029      345.060       22.320      864.025
08/16/2013  23:16:00     -117.415      -81.665       -3.493       75.508       57.567       39.882     5701.393     3313.932     1590.605        1.553        0.530      143.022       35.040        0.060      345.047       22.297      864.015
08/16/2013  23:17:00     -148.829      -87.989       11.240       88.862       70.823       46.792     7896.411     5015.932     2189.518        2.256        0.755      172.894       52.837        0.093      344.891       22.030      864.000
08/16/2013  23:18:00     -152.589     -106.230       -7.046       81.849       61.479       41.977     6699.231     3779.672     1762.070        2.343        0.612      185.925       47.909        0.066      344.892       22.030      863.995
08/16/2013  23:19:00     -159.760     -131.790       -3.487       78.474       76.436       43.456     6158.229     5842.511     1888.388        2.839        0.694      207.104       48.206        0.054      344.856       21.967      863.991
08/16/2013  23:20:00     -171.614     -109.075        1.269       85.735       61.544       41.588     7350.430     3787.666     1729.561        2.711        0.643      203.344       38.265        0.035      344.793       21.861      863.975
08/16/2013  23:21:00     -130.417     -117.314        1.288       68.040       60.620       41.220     4629.487     3674.794     1699.097        2.039        0.500      175.417       36.154        0.042      344.772       21.827      863.965
08/16/2013  23:22:00     -161.164     -120.179       -9.991       60.166       55.630       31.484     3619.932     3094.744      991.257        2.411        0.385      201.039       20.982        0.011      344.795       21.863      863.965
08/16/2013  23:23:00     -143.374      -96.401       -0.130       56.186       41.922       35.721     3156.913     1757.470     1275.976        1.802        0.310      172.769       29.102        0.028      344.752       21.793      863.967
08/16/2013  23:24:00      -89.050      -86.330       -7.468       54.354       39.383       24.063     2954.361     1551.043      579.046        1.026        0.254      124.028       22.922        0.034      344.721       21.740      863.970
08/16/2013  23:25:00      -58.303      -47.660        7.514       47.073       29.784       24.500     2215.878      887.084      600.227        0.471        0.185       75.304       26.261        0.122      344.674       21.661      863.983
08/16/2013  23:26:00     -105.896      -55.618       -7.892       49.193       24.034       18.077     2419.966      577.649      326.778        0.885        0.166      119.613       19.573        0.027      344.692       21.690      863.998
08/16/2013  23:27:00      -63.965      -21.484        3.008       37.552       28.558       16.280     1410.151      815.542      265.035        0.353        0.125       67.477       17.757        0.069      344.598       21.531      864.013
08/16/2013  23:28:00      -21.890        1.935       12.467       38.125       23.090       16.864     1453.501      533.162      284.404        0.145        0.114       21.976       15.275        0.483      344.393       21.180      864.030
08/16/2013  23:29:00      -21.723       26.250        0.006       20.020       28.525       14.780      400.817      813.702      218.455        0.130        0.072       34.073        8.108        0.057      344.357       21.118      864.039
08/16/2013  23:30:00       14.831       26.248        8.835       21.943       15.040       18.868      481.511      226.201      356.014        0.103        0.053       30.149       11.623        0.149      344.210       20.867      864.073
08/16/2013  23:31:00       20.812       43.718       15.793       17.480       21.855       20.295      305.542      477.652      411.868        0.189        0.060       48.419       10.845        0.050      343.874       20.294      864.081
08/16/2013  23:32:00       74.563       53.273       14.947       25.237       17.095       19.845      636.919      292.233      393.834        0.497        0.066       91.639        5.170        0.003      344.125       20.720      864.077
08/16/2013  23:33:00       69.561       52.620        9.569       25.630       19.872       23.407      656.886      394.916      547.876        0.465        0.080       87.221       16.592        0.036      344.162       20.785      864.096
08/16/2013  23:34:00       27.406       34.020        4.746       24.325       22.021       19.302      591.692      484.939      372.549        0.169        0.072       43.686       16.460        0.142      344.095       20.672      864.119
08/16/2013  23:35:00       70.607       46.622        9.656       30.013       17.231       20.459      900.762      296.922      418.555        0.443        0.081       84.611       12.715        0.023      344.370       21.140      864.114
08/16/2013  23:36:00       82.469       48.070       19.792       24.965       20.553       27.555      623.227      422.422      759.268        0.565        0.090       95.456       10.943        0.013      344.236       20.910      864.108
08/16/2013  23:37:00       21.847        6.642        8.581       26.566       33.840       24.945      705.755     1145.166      622.276        0.153        0.124       22.834       22.008        0.929      343.724       20.037      864.111
08/16/2013  23:38:00       13.978      -42.491      -17.170       29.645       35.042       19.645      878.826     1227.955      385.924        0.239        0.125       44.731       16.791        0.141      343.583       19.797      864.110
08/16/2013  23:39:00       50.938      -58.788       -6.910       30.365       21.451       24.861      922.055      460.133      618.062        0.405        0.100       77.786       11.417        0.022      343.656       19.920      864.115
08/16/2013  23:40:00       51.324      -43.213       -2.358       21.479       22.763       21.015      461.335      518.150      441.612        0.296        0.071       67.093       12.257        0.033      343.843       20.241      864.124
08/16/2013  23:41:00       45.925        8.488       19.535       42.306       19.715       20.914     1789.827      388.693      437.413        0.259        0.131       46.702       22.077        0.223      343.909       20.352      864.109
08/16/2013  23:42:00      -39.545       -4.123        6.770       17.988       22.788       25.898      323.565      519.314      670.681        0.157        0.076       39.759       21.505        0.293      344.005       20.517      864.107
08/16/2013  23:43:00       15.499       14.399       11.746       34.910       20.071       15.621     1218.738      402.847      244.005        0.123        0.093       21.156       14.379        0.462      343.943       20.412      864.096
08/16/2013  23:44:00       21.201       -8.995        3.996       22.709       42.148       26.076      515.697     1776.441      679.935        0.176        0.149       23.030       14.979        0.423      343.660       19.928      864.067
08/16/2013  23:45:00       12.043      -27.003      -20.970       20.773       16.333       13.333      431.536      266.778      177.757        0.109        0.044       29.566        4.574        0.024      344.097       20.676      864.068
08/16/2013  23:46:00      -15.767      -28.306       -8.340       23.543       13.499       17.174      554.251      182.230      294.961        0.108        0.052       32.401       17.902        0.305      344.293       21.008      864.070
08/16/2013  23:47:00      -28.999        0.806       -5.106       12.670       13.132        8.881      160.539      172.448       78.873        0.064        0.021       29.010        7.577        0.068      344.103       20.686      864.064
08/16/2013  23:48:00      -31.238       -8.434       -3.584        8.317       12.265        6.212       69.175      150.440       38.586        0.066        0.013       32.356        5.212        0.026      344.212       20.873      864.061
08/16/2013  23:49:00      -47.449        4.907       -9.073       16.438       21.216       11.258      270.192      450.104      126.742        0.160        0.042       47.703       10.175        0.045      344.143       20.753      864.047
08/16/2013  23:50:00      -38.246       -6.231       -0.249       18.212       15.670       11.575      331.693      245.553      133.976        0.111        0.036       38.750       11.663        0.091      344.027       20.554      864.042
08/16/2013  23:51:00      -71.743       -8.109      -10.109       13.584       13.024        7.662      184.523      169.623       58.703        0.286        0.021       72.199        2.527        0.001      343.957       20.435      864.044
08/16/2013  23:52:00      -70.806       -3.316      -12.578       18.144       19.365       11.307      329.208      375.018      127.849        0.301        0.042       70.883       10.641        0.023      343.933       20.395      864.044
08/16/2013  23:53:00      -64.228      -23.548       -8.146       24.060       16.748       13.332      578.866      280.506      177.753        0.289        0.052       68.408        6.845        0.010      343.919       20.370      864.073
08/16/2013  23:54:00      -78.801      -34.790       -6.956       46.178       18.985       13.512     2132.371      360.415      182.580        0.507        0.134       86.139       16.156        0.035      343.802       20.170      864.084
08/16/2013  23:55:00      -41.032      -28.426       -3.579       18.990       12.064        9.799      360.602      145.549       96.020        0.155        0.030       49.917        7.703        0.024      343.794       20.158      864.074
08/16/2013  23:56:00      -50.545        0.475       -6.379       14.546        7.853        8.434      211.587       61.665       71.132        0.147        0.017       50.547        7.717        0.023      343.869       20.284      864.060
08/16/2013  23:57:00      -17.442       -3.167       -0.388        7.665        5.739        4.719       58.753       32.936       22.266        0.021        0.006       17.727        4.081        0.053      343.897       20.332      864.033
08/16/2013  23:58:00       22.357      -25.122        1.447       28.284       18.787       19.415      799.969      352.970      376.959        0.133        0.076       33.629       11.987        0.127      343.602       19.829      864.029
08/16/2013  23:59:00      -42.017      -10.147       -6.334       28.823        7.561        8.302      830.748       57.165       68.923        0.143        0.048       43.225        1.470        0.001      343.893       20.325      864.022
